Time,TemperatureF,DewpointF,PressureIn,WindDirection,WindDirectionDegrees,WindSpeedMPH,WindSpeedGustMPH,Humidity,HourlyPrecipIn,Conditions,Clouds,dailyrainin,SoftwareType,DateUTC
2013-06-20 00:00:00,81.3,56.1,30.15,SSE,149,3.6,5.4,42,0.00,,---,0.00,VWS V15.00,2013-06-20 04:00:00,
2013-06-20 00:01:00,79.7,58.9,30.18,SE,128,0.0,0.0,49,0.00,,---,0.00,VWS V14.01,2013-06-20 04:01:00,
2013-06-20 00:02:00,79.5,58.7,30.18,SE,129,0.0,0.0,49,0.00,,---,0.00,VWS V14.01,2013-06-20 04:02:00,
2013-06-20 00:03:00,79.5,58.7,30.18,SE,128,0.0,0.0,49,0.00,,---,0.00,VWS V14.01,2013-06-20 04:03:00,
2013-06-20 00:04:00,81.1,55.9,30.15,SSE,157,2.7,3.1,42,0.00,,---,0.00,VWS V15.00,2013-06-20 04:04:00,
2013-06-20 00:05:00,81.3,56.1,30.15,ESE,111,3.6,3.6,42,0.00,,---,0.00,VWS V15.00,2013-06-20 04:05:00,
2013-06-20 00:06:00,81.1,55.9,30.15,ESE,118,2.7,3.6,42,0.00,,---,0.00,VWS V15.00,2013-06-20 04:06:00,
2013-06-20 00:07:00,81.1,55.9,30.15,ENE,76,2.7,4.0,42,0.00,,---,0.00,VWS V15.00,2013-06-20 04:07:00,
2013-06-20 00:08:00,79.2,59.5,30.18,SE,129,0.0,0.0,51,0.00,,---,0.00,VWS V14.01,2013-06-20 04:08:00,
2013-06-20 00:09:00,81.1,55.9,30.15,ESE,112,3.1,4.9,42,0.00,,---,0.00,VWS V15.00,2013-06-20 04:09:00,
2013-06-20 00:10:00,81.1,55.9,30.15,ENE,77,3.1,4.9,42,0.00,,---,0.00,VWS V15.00,2013-06-20 04:10:00,
2013-06-20 00:11:00,81.1,55.9,30.15,SE,135,4.0,5.4,42,0.00,,---,0.00,VWS V15.00,2013-06-20 04:11:00,
2013-06-20 00:12:00,81.1,55.9,30.15,SSE,149,3.1,4.0,42,0.00,,---,0.00,VWS V15.00,2013-06-20 04:12:00,
2013-06-20 00:13:00,78.8,60.2,30.18,SE,128,0.0,0.0,53,0.00,,---,0.00,VWS V14.01,2013-06-20 04:13:00,
2013-06-20 00:14:00,81.1,55.9,30.15,South,169,0.0,5.4,42,0.00,,---,0.00,VWS V15.00,2013-06-20 04:14:00,
2013-06-20 00:15:00,81.1,55.9,30.15,SSE,154,2.2,2.2,42,0.00,,---,0.00,VWS V15.00,2013-06-20 04:15:00,
2013-06-20 00:16:00,81.1,55.9,30.15,SE,129,2.7,3.1,42,0.00,,---,0.00,VWS V15.00,2013-06-20 04:16:00,
2013-06-20 00:17:00,81.1,55.9,30.15,SE,144,3.1,3.6,42,0.00,,---,0.00,VWS V15.00,2013-06-20 04:17:00,
2013-06-20 00:18:00,78.6,60.1,30.18,SE,128,0.0,0.0,53,0.00,,---,0.00,VWS V14.01,2013-06-20 04:18:00,
2013-06-20 00:19:00,81.1,55.9,30.15,SE,142,3.6,4.0,42,0.00,,---,0.00,VWS V15.00,2013-06-20 04:19:00,
2013-06-20 00:20:00,81.1,55.9,30.15,SSE,149,2.7,4.0,42,0.00,,---,0.00,VWS V15.00,2013-06-20 04:20:00,
2013-06-20 00:21:00,81.1,55.9,30.15,ESE,115,2.7,3.1,42,0.00,,---,0.00,VWS V15.00,2013-06-20 04:21:00,
2013-06-20 00:22:00,81.0,55.7,30.15,SSE,147,3.1,3.1,42,0.00,,---,0.00,VWS V15.00,2013-06-20 04:22:00,
2013-06-20 00:23:00,78.4,60.4,30.18,SE,128,0.0,0.0,54,0.00,,---,0.00,VWS V14.01,2013-06-20 04:23:00,
2013-06-20 00:24:00,81.0,56.4,30.15,ESE,105,0.0,0.0,43,0.00,,---,0.00,VWS V15.00,2013-06-20 04:24:00,
2013-06-20 00:25:00,80.8,56.2,30.15,ESE,105,0.0,0.0,43,0.00,,---,0.00,VWS V15.00,2013-06-20 04:25:00,
2013-06-20 00:26:00,80.8,56.2,30.15,ESE,105,0.0,0.0,43,0.00,,---,0.00,VWS V15.00,2013-06-20 04:26:00,
2013-06-20 00:27:00,80.6,56.7,30.15,ESE,105,0.0,0.0,44,0.00,,---,0.00,VWS V15.00,2013-06-20 04:27:00,
2013-06-20 00:28:00,78.1,62.1,30.18,SE,128,0.0,0.0,58,0.00,,---,0.00,VWS V14.01,2013-06-20 04:28:00,
2013-06-20 00:29:00,80.4,56.5,30.15,ESE,105,0.0,0.0,44,0.00,,---,0.00,VWS V15.00,2013-06-20 04:29:00,
2013-06-20 00:30:00,80.4,57.8,30.15,ESE,105,0.0,0.0,46,0.00,,---,0.00,VWS V15.00,2013-06-20 04:30:00,
2013-06-20 00:31:00,80.4,57.2,30.15,ESE,105,0.0,0.0,45,0.00,,---,0.00,VWS V15.00,2013-06-20 04:31:00,
2013-06-20 00:32:00,80.4,57.2,30.15,ESE,105,0.0,0.0,45,0.00,,---,0.00,VWS V15.00,2013-06-20 04:32:00,
2013-06-20 00:33:00,77.7,62.7,30.18,SE,129,0.0,0.0,60,0.00,,---,0.00,VWS V14.01,2013-06-20 04:33:00,
2013-06-20 00:34:00,80.1,57.4,30.15,ESE,105,0.0,0.0,46,0.00,,---,0.00,VWS V15.00,2013-06-20 04:34:00,
2013-06-20 00:35:00,80.1,57.4,30.15,ESE,121,2.7,3.1,46,0.00,,---,0.00,VWS V15.00,2013-06-20 04:35:00,
2013-06-20 00:36:00,80.1,57.4,30.15,ESE,121,2.7,2.7,46,0.00,,---,0.00,VWS V15.00,2013-06-20 04:36:00,
2013-06-20 00:37:00,80.1,57.4,30.15,ESE,121,0.0,2.7,46,0.00,,---,0.00,VWS V15.00,2013-06-20 04:37:00,
2013-06-20 00:38:00,80.2,57.6,30.15,ESE,121,0.0,0.0,46,0.00,,---,0.00,VWS V15.00,2013-06-20 04:38:00,
2013-06-20 00:39:00,77.5,63.0,30.18,SE,128,0.0,0.0,61,0.00,,---,0.00,VWS V14.01,2013-06-20 04:39:00,
2013-06-20 00:40:00,80.2,57.6,30.15,ESE,121,0.0,0.0,46,0.00,,---,0.00,VWS V15.00,2013-06-20 04:40:00,
2013-06-20 00:41:00,80.1,57.4,30.15,ESE,121,0.0,0.0,46,0.00,,---,0.00,VWS V15.00,2013-06-20 04:41:00,
2013-06-20 00:42:00,80.1,57.4,30.15,ESE,121,0.0,0.0,46,0.00,,---,0.00,VWS V15.00,2013-06-20 04:42:00,
2013-06-20 00:43:00,80.1,57.4,30.15,ESE,121,0.0,0.0,46,0.00,,---,0.00,VWS V15.00,2013-06-20 04:43:00,
2013-06-20 00:44:00,77.5,64.0,30.18,SE,128,0.0,0.0,63,0.00,,---,0.00,VWS V14.01,2013-06-20 04:44:00,
2013-06-20 00:45:00,80.1,57.4,30.15,SE,146,3.6,3.6,46,0.00,,---,0.00,VWS V15.00,2013-06-20 04:45:00,
2013-06-20 00:46:00,80.2,57.6,30.15,SE,139,2.7,3.6,46,0.00,,---,0.00,VWS V15.00,2013-06-20 04:46:00,
2013-06-20 00:47:00,80.2,57.6,30.18,SE,128,4.0,4.0,46,0.00,,---,0.00,VWS V15.00,2013-06-20 04:47:00,
2013-06-20 00:48:00,80.2,57.6,30.18,SE,129,2.7,4.0,46,0.00,,---,0.00,VWS V15.00,2013-06-20 04:48:00,
2013-06-20 00:49:00,77.7,65.5,30.18,SE,128,0.0,0.0,66,0.00,,---,0.00,VWS V14.01,2013-06-20 04:49:00,
2013-06-20 00:50:00,80.2,57.6,30.18,SE,128,0.0,0.0,46,0.00,,---,0.00,VWS V15.00,2013-06-20 04:50:00,
2013-06-20 00:51:00,80.2,57.6,30.18,SE,129,0.0,0.0,46,0.00,,---,0.00,VWS V15.00,2013-06-20 04:51:00,
2013-06-20 00:52:00,80.2,57.6,30.18,SE,129,0.0,0.0,46,0.00,,---,0.00,VWS V15.00,2013-06-20 04:52:00,
2013-06-20 00:53:00,80.2,57.6,30.18,SE,128,0.0,0.0,46,0.00,,---,0.00,VWS V15.00,2013-06-20 04:53:00,
2013-06-20 00:54:00,77.7,66.8,30.18,SE,129,0.0,0.0,69,0.00,,---,0.00,VWS V14.01,2013-06-20 04:54:00,
2013-06-20 00:55:00,80.1,57.4,30.18,SE,128,0.0,0.0,46,0.00,,---,0.00,VWS V15.00,2013-06-20 04:55:00,
2013-06-20 00:56:00,80.1,58.0,30.18,SE,128,0.0,0.0,47,0.00,,---,0.00,VWS V15.00,2013-06-20 04:56:00,
2013-06-20 00:57:00,79.9,58.5,30.18,SE,129,0.0,0.0,48,0.00,,---,0.00,VWS V15.00,2013-06-20 04:57:00,
2013-06-20 00:58:00,79.9,58.5,30.18,SE,128,0.0,0.0,48,0.00,,---,0.00,VWS V15.00,2013-06-20 04:58:00,
2013-06-20 00:59:00,78.1,65.8,30.18,WNW,302,3.1,3.6,66,0.00,,---,0.00,VWS V14.01,2013-06-20 04:59:00,
2013-06-20 01:00:00,79.7,58.9,30.18,SE,129,0.0,0.0,49,0.00,,---,0.00,VWS V15.00,2013-06-20 05:00:00,
2013-06-20 01:01:00,79.7,58.9,30.18,SE,128,0.0,0.0,49,0.00,,---,0.00,VWS V15.00,2013-06-20 05:01:00,
2013-06-20 01:02:00,79.5,58.7,30.18,SE,129,0.0,0.0,49,0.00,,---,0.00,VWS V15.00,2013-06-20 05:02:00,
2013-06-20 01:03:00,79.5,58.7,30.18,SE,128,0.0,0.0,49,0.00,,---,0.00,VWS V15.00,2013-06-20 05:03:00,
2013-06-20 01:04:00,77.9,65.2,30.18,WNW,288,3.6,3.6,65,0.00,,---,0.00,VWS V14.01,2013-06-20 05:04:00,
2013-06-20 01:05:00,79.5,59.8,30.18,SE,128,0.0,0.0,51,0.00,,---,0.00,VWS V15.00,2013-06-20 05:05:00,
2013-06-20 01:06:00,79.5,59.8,30.18,SE,128,0.0,0.0,51,0.00,,---,0.00,VWS V15.00,2013-06-20 05:06:00,
2013-06-20 01:07:00,79.3,59.7,30.18,SE,128,0.0,0.0,51,0.00,,---,0.00,VWS V15.00,2013-06-20 05:07:00,
2013-06-20 01:08:00,79.2,59.5,30.18,SE,128,0.0,0.0,51,0.00,,---,0.00,VWS V15.00,2013-06-20 05:08:00,
2013-06-20 01:09:00,77.5,65.7,30.18,West,277,0.0,2.7,67,0.00,,---,0.00,VWS V14.01,2013-06-20 05:09:00,
2013-06-20 01:10:00,79.2,60.6,30.18,SE,128,0.0,0.0,53,0.00,,---,0.00,VWS V15.00,2013-06-20 05:10:00,
2013-06-20 01:11:00,79.0,60.4,30.18,SE,128,0.0,0.0,53,0.00,,---,0.00,VWS V15.00,2013-06-20 05:11:00,
2013-06-20 01:12:00,79.0,60.4,30.18,SE,128,0.0,0.0,53,0.00,,---,0.00,VWS V15.00,2013-06-20 05:12:00,
2013-06-20 01:13:00,78.8,60.2,30.18,SE,129,0.0,0.0,53,0.00,,---,0.00,VWS V15.00,2013-06-20 05:13:00,
2013-06-20 01:14:00,77.5,64.4,30.18,NW,313,0.0,0.0,64,0.00,,---,0.00,VWS V14.01,2013-06-20 05:14:00,
2013-06-20 01:15:00,78.8,60.2,30.18,SE,128,0.0,0.0,53,0.00,,---,0.00,VWS V15.00,2013-06-20 05:15:00,
2013-06-20 01:16:00,78.8,60.2,30.18,SE,129,0.0,0.0,53,0.00,,---,0.00,VWS V15.00,2013-06-20 05:16:00,
2013-06-20 01:17:00,78.6,60.1,30.18,SE,128,0.0,0.0,53,0.00,,---,0.00,VWS V15.00,2013-06-20 05:17:00,
2013-06-20 01:18:00,78.6,60.1,30.18,SE,128,0.0,0.0,53,0.00,,---,0.00,VWS V15.00,2013-06-20 05:18:00,
2013-06-20 01:19:00,77.4,62.4,30.18,WNW,299,0.0,3.1,60,0.00,,---,0.00,VWS V14.01,2013-06-20 05:19:00,
2013-06-20 01:20:00,78.4,59.9,30.18,SE,128,0.0,0.0,53,0.00,,---,0.00,VWS V15.00,2013-06-20 05:20:00,
2013-06-20 01:21:00,78.4,59.9,30.18,SE,128,0.0,0.0,53,0.00,,---,0.00,VWS V15.00,2013-06-20 05:21:00,
2013-06-20 01:22:00,78.4,59.9,30.18,SE,128,0.0,0.0,53,0.00,,---,0.00,VWS V15.00,2013-06-20 05:22:00,
2013-06-20 01:23:00,78.4,60.4,30.18,SE,128,0.0,0.0,54,0.00,,---,0.00,VWS V15.00,2013-06-20 05:23:00,
2013-06-20 01:24:00,77.2,61.8,30.18,ESE,122,6.3,6.3,59,0.00,,---,0.00,VWS V14.01,2013-06-20 05:24:00,
2013-06-20 01:25:00,78.3,61.3,30.18,SE,129,0.0,0.0,56,0.00,,---,0.00,VWS V15.00,2013-06-20 05:25:00,
2013-06-20 01:26:00,78.3,61.3,30.18,SE,128,0.0,0.0,56,0.00,,---,0.00,VWS V15.00,2013-06-20 05:26:00,
2013-06-20 01:27:00,78.3,61.3,30.18,SE,128,0.0,0.0,56,0.00,,---,0.00,VWS V15.00,2013-06-20 05:27:00,
2013-06-20 01:28:00,78.1,62.1,30.18,SE,128,0.0,0.0,58,0.00,,---,0.00,VWS V15.00,2013-06-20 05:28:00,
2013-06-20 01:29:00,76.5,58.1,30.18,ESE,105,4.0,4.0,53,0.00,,---,0.00,VWS V14.01,2013-06-20 05:29:00,
2013-06-20 01:30:00,77.9,62.4,30.18,SE,128,0.0,0.0,59,0.00,,---,0.00,VWS V15.00,2013-06-20 05:30:00,
2013-06-20 01:31:00,77.9,62.4,30.18,SE,128,0.0,0.0,59,0.00,,---,0.00,VWS V15.00,2013-06-20 05:31:00,
2013-06-20 01:32:00,77.9,62.9,30.18,SE,128,0.0,0.0,60,0.00,,---,0.00,VWS V15.00,2013-06-20 05:32:00,
2013-06-20 01:33:00,77.7,62.7,30.18,SE,129,0.0,0.0,60,0.00,,---,0.00,VWS V15.00,2013-06-20 05:33:00,
2013-06-20 01:34:00,73.6,55.4,30.18,East,82,5.8,5.8,53,0.04,,---,0.04,VWS V14.01,2013-06-20 05:34:00,
2013-06-20 01:35:00,77.7,62.7,30.18,SE,129,0.0,0.0,60,0.00,,---,0.00,VWS V15.00,2013-06-20 05:35:00,
2013-06-20 01:36:00,77.7,62.7,30.18,SE,128,0.0,0.0,60,0.00,,---,0.00,VWS V15.00,2013-06-20 05:36:00,
2013-06-20 01:37:00,77.7,63.2,30.18,SE,129,0.0,0.0,61,0.00,,---,0.00,VWS V15.00,2013-06-20 05:37:00,
2013-06-20 01:38:00,77.5,63.0,30.18,SE,128,0.0,0.0,61,0.00,,---,0.00,VWS V15.00,2013-06-20 05:38:00,
2013-06-20 01:39:00,72.7,62.3,30.18,ENE,67,3.6,4.5,70,0.12,,---,0.12,VWS V14.01,2013-06-20 05:39:00,
2013-06-20 01:40:00,77.5,63.0,30.18,SE,128,0.0,0.0,61,0.00,,---,0.00,VWS V15.00,2013-06-20 05:40:00,
2013-06-20 01:41:00,77.5,63.5,30.18,SE,128,0.0,0.0,62,0.00,,---,0.00,VWS V15.00,2013-06-20 05:41:00,
2013-06-20 01:42:00,77.5,63.5,30.18,SE,128,0.0,0.0,62,0.00,,---,0.00,VWS V15.00,2013-06-20 05:42:00,
2013-06-20 01:43:00,77.5,63.5,30.18,SE,128,0.0,0.0,62,0.00,,---,0.00,VWS V15.00,2013-06-20 05:43:00,
2013-06-20 01:44:00,72.7,65.8,30.18,ESE,112,0.0,0.0,79,0.16,,---,0.16,VWS V14.01,2013-06-20 05:44:00,
2013-06-20 01:45:00,77.5,64.0,30.18,SE,128,0.0,0.0,63,0.00,,---,0.00,VWS V15.00,2013-06-20 05:45:00,
2013-06-20 01:46:00,77.7,64.6,30.18,SE,128,0.0,0.0,64,0.00,,---,0.00,VWS V15.00,2013-06-20 05:46:00,
2013-06-20 01:47:00,77.7,64.6,30.18,SE,128,0.0,0.0,64,0.00,,---,0.00,VWS V15.00,2013-06-20 05:47:00,
2013-06-20 01:48:00,77.7,65.0,30.18,SE,128,0.0,0.0,65,0.00,,---,0.00,VWS V15.00,2013-06-20 05:48:00,
2013-06-20 01:49:00,77.7,65.5,30.18,SE,128,0.0,0.0,66,0.00,,---,0.00,VWS V15.00,2013-06-20 05:49:00,
2013-06-20 01:50:00,72.7,66.5,30.18,East,84,0.0,0.0,81,0.16,,---,0.16,VWS V14.01,2013-06-20 05:50:00,
2013-06-20 01:51:00,77.7,65.9,30.18,SE,128,0.0,0.0,67,0.00,,---,0.00,VWS V15.00,2013-06-20 05:51:00,
2013-06-20 01:52:00,77.5,65.3,30.18,SE,128,0.0,0.0,66,0.00,,---,0.00,VWS V15.00,2013-06-20 05:52:00,
2013-06-20 01:53:00,77.7,66.3,30.18,SE,129,0.0,0.0,68,0.00,,---,0.00,VWS V15.00,2013-06-20 05:53:00,
2013-06-20 01:54:00,77.7,66.8,30.18,SE,128,0.0,0.0,69,0.00,,---,0.00,VWS V15.00,2013-06-20 05:54:00,
2013-06-20 01:55:00,73.0,69.3,30.18,NE,46,0.0,2.2,88,0.16,,---,0.16,VWS V14.01,2013-06-20 05:55:00,
2013-06-20 01:56:00,77.9,67.3,30.18,SSE,150,0.0,0.0,70,0.00,,---,0.00,VWS V15.00,2013-06-20 05:56:00,
2013-06-20 01:57:00,77.9,66.1,30.18,NW,310,4.0,4.0,67,0.00,,---,0.00,VWS V15.00,2013-06-20 05:57:00,
2013-06-20 01:58:00,78.1,65.4,30.18,WNW,291,3.6,4.0,65,0.00,,---,0.00,VWS V15.00,2013-06-20 05:58:00,
2013-06-20 01:59:00,78.1,65.8,30.18,WNW,289,2.7,3.6,66,0.00,,---,0.00,VWS V15.00,2013-06-20 05:59:00,
2013-06-20 02:00:00,72.7,68.9,30.18,NE,34,0.0,0.0,88,0.20,,---,0.20,VWS V14.01,2013-06-20 06:00:00,
2013-06-20 02:01:00,77.9,65.6,30.18,WNW,302,4.9,4.9,66,0.00,,---,0.00,VWS V15.00,2013-06-20 06:01:00,
2013-06-20 02:02:00,77.9,65.2,30.18,WNW,289,3.6,4.9,65,0.00,,---,0.00,VWS V15.00,2013-06-20 06:02:00,
2013-06-20 02:03:00,77.9,65.2,30.18,West,268,2.2,3.6,65,0.00,,---,0.00,VWS V15.00,2013-06-20 06:03:00,
2013-06-20 02:04:00,77.9,65.2,30.18,WNW,288,3.6,3.6,65,0.00,,---,0.00,VWS V15.00,2013-06-20 06:04:00,
2013-06-20 02:05:00,72.7,68.9,30.18,North,357,0.0,0.0,88,0.20,,---,0.20,VWS V14.01,2013-06-20 06:05:00,
2013-06-20 02:06:00,77.7,65.9,30.18,WNW,290,0.0,0.0,67,0.00,,---,0.00,VWS V15.00,2013-06-20 06:06:00,
2013-06-20 02:07:00,77.7,66.3,30.18,West,281,3.1,3.1,68,0.00,,---,0.00,VWS V15.00,2013-06-20 06:07:00,
2013-06-20 02:08:00,77.7,65.9,30.18,West,279,2.7,3.1,67,0.00,,---,0.00,VWS V15.00,2013-06-20 06:08:00,
2013-06-20 02:09:00,77.5,65.7,30.18,West,277,0.0,2.7,67,0.00,,---,0.00,VWS V15.00,2013-06-20 06:09:00,
2013-06-20 02:10:00,72.5,68.8,30.18,ENE,63,0.0,2.2,88,0.20,,---,0.20,VWS V14.01,2013-06-20 06:10:00,
2013-06-20 02:11:00,77.5,65.3,30.18,West,280,0.0,2.2,66,0.00,,---,0.00,VWS V15.00,2013-06-20 06:11:00,
2013-06-20 02:12:00,77.5,64.9,30.18,WNW,299,2.7,4.0,65,0.00,,---,0.00,VWS V15.00,2013-06-20 06:12:00,
2013-06-20 02:13:00,77.5,64.9,30.18,NW,323,2.2,3.6,65,0.00,,---,0.00,VWS V15.00,2013-06-20 06:13:00,
2013-06-20 02:14:00,77.5,64.4,30.18,NW,322,0.0,2.2,64,0.00,,---,0.00,VWS V15.00,2013-06-20 06:14:00,
2013-06-20 02:15:00,72.5,69.1,30.18,East,81,0.0,0.0,89,0.20,,---,0.20,VWS V14.01,2013-06-20 06:15:00,
2013-06-20 02:16:00,77.5,64.0,30.18,WNW,283,0.0,2.7,63,0.00,,---,0.00,VWS V15.00,2013-06-20 06:16:00,
2013-06-20 02:17:00,77.4,62.9,30.18,WNW,283,0.0,3.1,61,0.00,,---,0.00,VWS V15.00,2013-06-20 06:17:00,
2013-06-20 02:18:00,77.5,63.0,30.18,WNW,286,2.2,2.2,61,0.00,,---,0.00,VWS V15.00,2013-06-20 06:18:00,
2013-06-20 02:19:00,77.4,62.4,30.18,WNW,299,0.0,3.1,60,0.00,,---,0.00,VWS V15.00,2013-06-20 06:19:00,
2013-06-20 02:20:00,72.7,69.9,30.15,NNW,339,0.0,0.0,91,0.20,,---,0.20,VWS V14.01,2013-06-20 06:20:00,
2013-06-20 02:21:00,77.4,62.4,30.18,WNW,293,0.0,0.0,60,0.00,,---,0.00,VWS V15.00,2013-06-20 06:21:00,
2013-06-20 02:22:00,77.4,62.4,30.18,WNW,293,0.0,0.0,60,0.00,,---,0.00,VWS V15.00,2013-06-20 06:22:00,
2013-06-20 02:23:00,77.2,61.8,30.18,WNW,293,0.0,0.0,59,0.00,,---,0.00,VWS V15.00,2013-06-20 06:23:00,
2013-06-20 02:24:00,77.2,61.8,30.18,ESE,122,6.3,6.3,59,0.00,,---,0.00,VWS V15.00,2013-06-20 06:24:00,
2013-06-20 02:25:00,72.5,69.7,30.15,NNW,339,0.0,0.0,91,0.20,,---,0.20,VWS V14.01,2013-06-20 06:25:00,
2013-06-20 02:26:00,77.4,62.4,30.18,SSE,158,5.4,5.8,60,0.00,,---,0.00,VWS V15.00,2013-06-20 06:26:00,
2013-06-20 02:27:00,77.2,61.3,30.18,SSE,163,8.1,9.6,58,0.00,,---,0.00,VWS V15.00,2013-06-20 06:27:00,
2013-06-20 02:28:00,77.0,59.1,30.18,SSE,147,4.0,8.7,54,0.00,,---,0.00,VWS V15.00,2013-06-20 06:28:00,
2013-06-20 02:29:00,76.5,58.1,30.18,ESE,123,3.1,4.9,53,0.00,,---,0.00,VWS V15.00,2013-06-20 06:29:00,
2013-06-20 02:30:00,72.5,69.7,30.15,NNW,339,0.0,0.0,91,0.20,,---,0.20,VWS V14.01,2013-06-20 06:30:00,
2013-06-20 02:31:00,75.7,60.4,30.18,SE,140,2.7,6.3,59,0.00,,---,0.00,VWS V15.00,2013-06-20 06:31:00,
2013-06-20 02:32:00,75.6,62.1,30.18,ENE,70,4.9,6.3,63,0.00,,---,0.00,VWS V15.00,2013-06-20 06:32:00,
2013-06-20 02:33:00,75.6,62.1,30.18,SE,126,5.8,5.8,63,0.04,,---,0.04,VWS V15.00,2013-06-20 06:33:00,
2013-06-20 02:34:00,73.8,55.6,30.18,ESE,117,4.0,8.7,53,0.04,,---,0.04,VWS V15.00,2013-06-20 06:34:00,
2013-06-20 02:35:00,72.3,69.6,30.15,NNW,339,0.0,0.0,91,0.16,,---,0.20,VWS V14.01,2013-06-20 06:35:00,
2013-06-20 02:36:00,73.2,57.1,30.18,ESE,111,3.6,6.3,57,0.08,,---,0.08,VWS V15.00,2013-06-20 06:36:00,
2013-06-20 02:37:00,72.7,59.4,30.18,ESE,118,5.8,5.8,63,0.08,,---,0.08,VWS V15.00,2013-06-20 06:37:00,
2013-06-20 02:38:00,72.5,59.6,30.18,East,87,4.0,5.8,64,0.12,,---,0.12,VWS V15.00,2013-06-20 06:38:00,
2013-06-20 02:39:00,72.5,61.3,30.18,ENE,60,4.5,5.8,68,0.12,,---,0.12,VWS V15.00,2013-06-20 06:39:00,
2013-06-20 02:40:00,72.5,69.7,30.15,SE,127,4.0,4.0,91,0.08,,---,0.20,VWS V14.01,2013-06-20 06:40:00,
2013-06-20 02:41:00,72.9,64.5,30.18,ENE,74,4.9,4.9,75,0.16,,---,0.16,VWS V15.00,2013-06-20 06:41:00,
2013-06-20 02:42:00,72.9,65.6,30.18,ENE,63,3.6,4.9,78,0.16,,---,0.16,VWS V15.00,2013-06-20 06:42:00,
2013-06-20 02:43:00,72.7,65.4,30.18,ESE,114,2.7,3.6,78,0.16,,---,0.16,VWS V15.00,2013-06-20 06:43:00,
2013-06-20 02:44:00,72.7,65.4,30.18,ESE,112,0.0,3.1,78,0.16,,---,0.16,VWS V15.00,2013-06-20 06:44:00,
2013-06-20 02:45:00,73.0,70.9,30.15,ESE,120,5.4,5.4,93,0.04,,---,0.20,VWS V14.01,2013-06-20 06:45:00,
2013-06-20 02:46:00,72.7,66.2,30.18,ESE,112,0.0,0.0,80,0.16,,---,0.16,VWS V15.00,2013-06-20 06:46:00,
2013-06-20 02:47:00,72.7,66.2,30.18,ESE,112,0.0,0.0,80,0.16,,---,0.16,VWS V15.00,2013-06-20 06:47:00,
2013-06-20 02:48:00,72.7,66.5,30.18,ESE,113,0.0,0.0,81,0.16,,---,0.16,VWS V15.00,2013-06-20 06:48:00,
2013-06-20 02:49:00,72.7,66.5,30.18,ESE,113,0.0,0.0,81,0.16,,---,0.16,VWS V15.00,2013-06-20 06:49:00,
2013-06-20 02:50:00,72.7,70.5,30.15,East,96,3.1,3.1,93,0.04,,---,0.20,VWS V14.01,2013-06-20 06:50:00,
2013-06-20 02:51:00,73.0,68.3,30.18,East,94,2.7,3.1,85,0.16,,---,0.16,VWS V15.00,2013-06-20 06:51:00,
2013-06-20 02:52:00,73.0,68.6,30.18,NE,50,2.7,3.1,86,0.16,,---,0.16,VWS V15.00,2013-06-20 06:52:00,
2013-06-20 02:53:00,73.0,68.9,30.18,ENE,61,2.7,4.0,87,0.16,,---,0.16,VWS V15.00,2013-06-20 06:53:00,
2013-06-20 02:54:00,73.0,68.9,30.18,NE,35,2.2,3.1,87,0.16,,---,0.16,VWS V15.00,2013-06-20 06:54:00,
2013-06-20 02:55:00,72.1,69.7,30.15,SSE,153,4.0,4.0,92,0.04,,---,0.20,VWS V14.01,2013-06-20 06:55:00,
2013-06-20 02:56:00,73.0,69.3,30.18,ENE,76,0.0,3.6,88,0.20,,---,0.20,VWS V15.00,2013-06-20 06:56:00,
2013-06-20 02:57:00,72.9,69.1,30.18,NE,36,0.0,4.0,88,0.20,,---,0.20,VWS V15.00,2013-06-20 06:57:00,
2013-06-20 02:58:00,72.7,68.6,30.18,NNE,16,0.0,2.2,87,0.20,,---,0.20,VWS V15.00,2013-06-20 06:58:00,
2013-06-20 02:59:00,72.7,68.6,30.18,NNE,32,0.0,0.0,87,0.20,,---,0.20,VWS V15.00,2013-06-20 06:59:00,
2013-06-20 03:00:00,72.0,69.2,30.15,ESE,123,0.0,0.0,91,0.00,,---,0.20,VWS V14.01,2013-06-20 07:00:00,
2013-06-20 03:01:00,72.7,68.9,30.18,ENE,57,4.9,4.9,88,0.20,,---,0.20,VWS V15.00,2013-06-20 07:01:00,
2013-06-20 03:02:00,72.5,68.4,30.18,ENE,71,4.0,5.4,87,0.20,,---,0.20,VWS V15.00,2013-06-20 07:02:00,
2013-06-20 03:03:00,72.7,68.6,30.18,ENE,66,0.0,4.0,87,0.20,,---,0.20,VWS V15.00,2013-06-20 07:03:00,
2013-06-20 03:04:00,72.7,68.9,30.18,ENE,78,0.0,2.7,88,0.20,,---,0.20,VWS V15.00,2013-06-20 07:04:00,
2013-06-20 03:05:00,72.7,68.9,30.18,North,357,0.0,0.0,88,0.20,,---,0.20,VWS V15.00,2013-06-20 07:05:00,
2013-06-20 03:06:00,71.8,69.0,30.15,East,92,0.0,0.0,91,0.00,,---,0.20,VWS V14.01,2013-06-20 07:06:00,
2013-06-20 03:07:00,72.5,68.8,30.18,East,89,3.1,3.1,88,0.20,,---,0.20,VWS V15.00,2013-06-20 07:07:00,
2013-06-20 03:08:00,72.5,68.8,30.18,NNE,33,2.7,3.1,88,0.20,,---,0.20,VWS V15.00,2013-06-20 07:08:00,
2013-06-20 03:09:00,72.5,68.8,30.18,NE,49,0.0,3.1,88,0.20,,---,0.20,VWS V15.00,2013-06-20 07:09:00,
2013-06-20 03:10:00,72.5,68.8,30.18,ENE,63,0.0,2.2,88,0.20,,---,0.20,VWS V15.00,2013-06-20 07:10:00,
2013-06-20 03:11:00,71.6,68.8,30.15,NE,46,2.7,2.7,91,0.00,,---,0.20,VWS V14.01,2013-06-20 07:11:00,
2013-06-20 03:12:00,72.3,68.6,30.18,ESE,109,3.1,3.1,88,0.20,,---,0.20,VWS V15.00,2013-06-20 07:12:00,
2013-06-20 03:13:00,72.3,68.6,30.18,East,81,2.2,3.1,88,0.20,,---,0.20,VWS V15.00,2013-06-20 07:13:00,
2013-06-20 03:14:00,72.3,68.9,30.18,East,81,0.0,2.2,89,0.20,,---,0.20,VWS V15.00,2013-06-20 07:14:00,
2013-06-20 03:15:00,72.5,69.1,30.18,East,81,0.0,0.0,89,0.20,,---,0.20,VWS V15.00,2013-06-20 07:15:00,
2013-06-20 03:16:00,71.8,69.3,30.15,ENE,68,4.0,5.8,92,0.00,,---,0.20,VWS V14.01,2013-06-20 07:16:00,
2013-06-20 03:17:00,72.7,69.6,30.15,NNW,339,0.0,0.0,90,0.20,,---,0.20,VWS V15.00,2013-06-20 07:17:00,
2013-06-20 03:18:00,72.7,69.6,30.15,NNW,339,0.0,0.0,90,0.20,,---,0.20,VWS V15.00,2013-06-20 07:18:00,
2013-06-20 03:19:00,72.7,69.9,30.15,NNW,339,0.0,0.0,91,0.20,,---,0.20,VWS V15.00,2013-06-20 07:19:00,
2013-06-20 03:20:00,72.7,69.9,30.15,NNW,339,0.0,0.0,91,0.20,,---,0.20,VWS V15.00,2013-06-20 07:20:00,
2013-06-20 03:21:00,72.0,69.5,30.18,East,85,3.1,3.1,92,0.00,,---,0.20,VWS V14.01,2013-06-20 07:21:00,
2013-06-20 03:22:00,72.5,69.7,30.15,NNW,339,0.0,0.0,91,0.20,,---,0.20,VWS V15.00,2013-06-20 07:22:00,
2013-06-20 03:23:00,72.5,69.7,30.15,NNW,339,0.0,0.0,91,0.20,,---,0.20,VWS V15.00,2013-06-20 07:23:00,
2013-06-20 03:24:00,72.5,69.7,30.15,NNW,339,0.0,0.0,91,0.20,,---,0.20,VWS V15.00,2013-06-20 07:24:00,
2013-06-20 03:25:00,72.5,69.7,30.15,NNW,339,0.0,0.0,91,0.20,,---,0.20,VWS V15.00,2013-06-20 07:25:00,
2013-06-20 03:26:00,71.8,69.3,30.18,ENE,73,3.1,3.1,92,0.00,,---,0.20,VWS V14.01,2013-06-20 07:26:00,
2013-06-20 03:27:00,72.5,69.7,30.15,NNW,339,0.0,0.0,91,0.20,,---,0.20,VWS V15.00,2013-06-20 07:27:00,
2013-06-20 03:28:00,72.5,69.7,30.15,NNW,339,0.0,0.0,91,0.20,,---,0.20,VWS V15.00,2013-06-20 07:28:00,
2013-06-20 03:29:00,72.5,69.7,30.15,NNW,339,0.0,0.0,91,0.20,,---,0.20,VWS V15.00,2013-06-20 07:29:00,
2013-06-20 03:30:00,72.5,69.7,30.15,NNW,339,0.0,0.0,91,0.20,,---,0.20,VWS V15.00,2013-06-20 07:30:00,
2013-06-20 03:31:00,71.8,69.3,30.18,East,84,3.1,3.1,92,0.00,,---,0.20,VWS V14.01,2013-06-20 07:31:00,
2013-06-20 03:32:00,72.3,69.6,30.15,NNW,339,0.0,0.0,91,0.20,,---,0.20,VWS V15.00,2013-06-20 07:32:00,
2013-06-20 03:33:00,72.3,69.6,30.15,NNW,339,0.0,0.0,91,0.20,,---,0.20,VWS V15.00,2013-06-20 07:33:00,
2013-06-20 03:34:00,72.3,69.6,30.15,NNW,339,0.0,0.0,91,0.16,,---,0.20,VWS V15.00,2013-06-20 07:34:00,
2013-06-20 03:35:00,72.3,69.6,30.15,NNW,339,0.0,0.0,91,0.16,,---,0.20,VWS V15.00,2013-06-20 07:35:00,
2013-06-20 03:36:00,71.8,69.3,30.15,East,84,3.1,3.1,92,0.00,,---,0.20,VWS V14.01,2013-06-20 07:36:00,
2013-06-20 03:37:00,72.5,69.7,30.15,NNW,339,0.0,0.0,91,0.12,,---,0.20,VWS V15.00,2013-06-20 07:37:00,
2013-06-20 03:38:00,72.5,69.7,30.15,NNW,339,0.0,0.0,91,0.12,,---,0.20,VWS V15.00,2013-06-20 07:38:00,
2013-06-20 03:39:00,72.5,69.7,30.15,NNW,339,0.0,0.0,91,0.08,,---,0.20,VWS V15.00,2013-06-20 07:39:00,
2013-06-20 03:40:00,72.5,69.7,30.15,SE,127,4.0,4.0,91,0.08,,---,0.20,VWS V15.00,2013-06-20 07:40:00,
2013-06-20 03:41:00,71.8,69.7,30.15,ENE,72,2.7,2.7,93,0.00,,---,0.20,VWS V14.01,2013-06-20 07:41:00,
2013-06-20 03:42:00,72.7,70.2,30.15,ESE,104,2.7,5.4,92,0.04,,---,0.20,VWS V15.00,2013-06-20 07:42:00,
2013-06-20 03:43:00,72.9,70.4,30.15,ESE,119,3.6,4.0,92,0.04,,---,0.20,VWS V15.00,2013-06-20 07:43:00,
2013-06-20 03:44:00,72.9,70.7,30.15,SE,142,5.4,6.3,93,0.04,,---,0.20,VWS V15.00,2013-06-20 07:44:00,
2013-06-20 03:45:00,73.0,70.9,30.15,SE,127,4.9,5.4,93,0.04,,---,0.20,VWS V15.00,2013-06-20 07:45:00,
2013-06-20 03:46:00,71.8,69.7,30.15,SE,135,3.6,3.6,93,0.04,,---,0.24,VWS V14.01,2013-06-20 07:46:00,
2013-06-20 03:47:00,72.9,70.7,30.15,SSE,150,2.2,4.0,93,0.04,,---,0.20,VWS V15.00,2013-06-20 07:47:00,
2013-06-20 03:48:00,72.9,70.7,30.15,SSE,167,4.0,4.0,93,0.04,,---,0.20,VWS V15.00,2013-06-20 07:48:00,
2013-06-20 03:49:00,72.7,70.5,30.15,South,169,5.8,5.8,93,0.04,,---,0.20,VWS V15.00,2013-06-20 07:49:00,
2013-06-20 03:50:00,72.7,70.5,30.15,East,96,3.1,8.1,93,0.04,,---,0.20,VWS V15.00,2013-06-20 07:50:00,
2013-06-20 03:51:00,71.8,69.7,30.15,East,85,4.0,4.0,93,0.04,,---,0.24,VWS V14.01,2013-06-20 07:51:00,
2013-06-20 03:52:00,72.5,70.1,30.15,ESE,112,5.4,5.4,92,0.04,,---,0.20,VWS V15.00,2013-06-20 07:52:00,
2013-06-20 03:53:00,72.3,69.9,30.15,SSE,147,6.3,6.3,92,0.04,,---,0.20,VWS V15.00,2013-06-20 07:53:00,
2013-06-20 03:54:00,72.1,69.7,30.15,SE,134,0.0,6.3,92,0.04,,---,0.20,VWS V15.00,2013-06-20 07:54:00,
2013-06-20 03:55:00,72.1,69.7,30.15,SSE,156,4.0,4.0,92,0.04,,---,0.20,VWS V15.00,2013-06-20 07:55:00,
2013-06-20 03:56:00,71.8,69.7,30.15,East,91,0.0,0.0,93,0.04,,---,0.24,VWS V14.01,2013-06-20 07:56:00,
2013-06-20 03:57:00,72.0,69.2,30.15,SE,140,2.7,2.7,91,0.00,,---,0.20,VWS V15.00,2013-06-20 07:57:00,
2013-06-20 03:58:00,72.0,69.2,30.15,SE,146,2.7,2.7,91,0.00,,---,0.20,VWS V15.00,2013-06-20 07:58:00,
2013-06-20 03:59:00,72.0,69.2,30.15,ESE,123,0.0,2.7,91,0.00,,---,0.20,VWS V15.00,2013-06-20 07:59:00,
2013-06-20 04:00:00,72.0,69.2,30.15,ESE,123,0.0,0.0,91,0.00,,---,0.20,VWS V15.00,2013-06-20 08:00:00,
2013-06-20 04:01:00,72.0,69.8,30.15,SE,146,2.2,2.2,93,0.04,,---,0.24,VWS V14.01,2013-06-20 08:01:00,
2013-06-20 04:02:00,71.8,69.0,30.15,ESE,123,0.0,0.0,91,0.00,,---,0.20,VWS V15.00,2013-06-20 08:02:00,
2013-06-20 04:03:00,72.0,69.2,30.15,East,92,0.0,0.0,91,0.00,,---,0.20,VWS V15.00,2013-06-20 08:03:00,
2013-06-20 04:04:00,72.0,69.2,30.15,East,92,0.0,0.0,91,0.00,,---,0.20,VWS V15.00,2013-06-20 08:04:00,
2013-06-20 04:05:00,72.0,69.2,30.15,East,92,0.0,0.0,91,0.00,,---,0.20,VWS V15.00,2013-06-20 08:05:00,
2013-06-20 04:06:00,71.8,69.7,30.15,SE,145,2.7,2.7,93,0.04,,---,0.24,VWS V14.01,2013-06-20 08:06:00,
2013-06-20 04:07:00,71.8,69.0,30.15,ESE,115,2.7,2.7,91,0.00,,---,0.20,VWS V15.00,2013-06-20 08:07:00,
2013-06-20 04:08:00,71.6,68.8,30.15,ESE,115,2.7,2.7,91,0.00,,---,0.20,VWS V15.00,2013-06-20 08:08:00,
2013-06-20 04:09:00,71.6,68.8,30.15,SE,124,2.2,2.7,91,0.00,,---,0.20,VWS V15.00,2013-06-20 08:09:00,
2013-06-20 04:10:00,71.6,68.8,30.15,ENE,73,2.7,2.7,91,0.00,,---,0.20,VWS V15.00,2013-06-20 08:10:00,
2013-06-20 04:11:00,71.6,68.8,30.15,NE,56,3.6,3.6,91,0.00,,---,0.20,VWS V15.00,2013-06-20 08:11:00,
2013-06-20 04:12:00,72.0,69.8,30.15,SSE,147,0.0,0.0,93,0.04,,---,0.24,VWS V14.01,2013-06-20 08:12:00,
2013-06-20 04:13:00,71.8,69.3,30.15,ENE,57,3.6,3.6,92,0.00,,---,0.20,VWS V15.00,2013-06-20 08:13:00,
2013-06-20 04:14:00,72.0,69.5,30.15,ENE,74,3.1,4.0,92,0.00,,---,0.20,VWS V15.00,2013-06-20 08:14:00,
2013-06-20 04:15:00,71.8,69.3,30.15,NE,56,3.6,3.6,92,0.00,,---,0.20,VWS V15.00,2013-06-20 08:15:00,
2013-06-20 04:16:00,71.8,69.0,30.15,East,83,3.6,5.8,91,0.00,,---,0.20,VWS V15.00,2013-06-20 08:16:00,
2013-06-20 04:17:00,72.0,69.8,30.15,ESE,119,0.0,0.0,93,0.04,,---,0.24,VWS V14.01,2013-06-20 08:17:00,
2013-06-20 04:18:00,72.0,69.2,30.18,East,80,3.6,5.4,91,0.00,,---,0.20,VWS V15.00,2013-06-20 08:18:00,
2013-06-20 04:19:00,72.0,69.5,30.18,East,89,4.0,5.4,92,0.00,,---,0.20,VWS V15.00,2013-06-20 08:19:00,
2013-06-20 04:20:00,72.0,69.5,30.18,East,85,3.1,4.0,92,0.00,,---,0.20,VWS V15.00,2013-06-20 08:20:00,
2013-06-20 04:21:00,72.0,69.5,30.18,East,95,3.6,3.6,92,0.00,,---,0.20,VWS V15.00,2013-06-20 08:21:00,
2013-06-20 04:22:00,72.1,70.3,30.15,SE,124,3.1,3.1,94,0.04,,---,0.24,VWS V14.01,2013-06-20 08:22:00,
2013-06-20 04:23:00,71.8,69.3,30.18,SE,126,4.9,5.4,92,0.00,,---,0.20,VWS V15.00,2013-06-20 08:23:00,
2013-06-20 04:24:00,71.8,69.3,30.18,East,94,2.2,4.9,92,0.00,,---,0.20,VWS V15.00,2013-06-20 08:24:00,
2013-06-20 04:25:00,71.8,69.3,30.18,ENE,69,3.1,3.1,92,0.00,,---,0.20,VWS V15.00,2013-06-20 08:25:00,
2013-06-20 04:26:00,71.8,69.3,30.18,ENE,73,3.1,3.1,92,0.00,,---,0.20,VWS V15.00,2013-06-20 08:26:00,
2013-06-20 04:27:00,72.1,70.3,30.15,ESE,102,0.0,0.0,94,0.04,,---,0.24,VWS V14.01,2013-06-20 08:27:00,
2013-06-20 04:28:00,71.8,69.3,30.18,ENE,73,3.1,3.1,92,0.00,,---,0.20,VWS V15.00,2013-06-20 08:28:00,
2013-06-20 04:29:00,71.8,69.3,30.18,ENE,73,3.1,3.1,92,0.00,,---,0.20,VWS V15.00,2013-06-20 08:29:00,
2013-06-20 04:30:00,71.8,69.3,30.18,East,84,3.1,3.1,92,0.00,,---,0.20,VWS V15.00,2013-06-20 08:30:00,
2013-06-20 04:31:00,71.8,69.3,30.18,East,84,3.1,3.1,92,0.00,,---,0.20,VWS V15.00,2013-06-20 08:31:00,
2013-06-20 04:32:00,72.1,70.3,30.15,SE,144,3.1,3.1,94,0.04,,---,0.24,VWS V14.01,2013-06-20 08:32:00,
2013-06-20 04:33:00,71.8,69.3,30.15,East,84,3.1,3.1,92,0.00,,---,0.20,VWS V15.00,2013-06-20 08:33:00,
2013-06-20 04:34:00,71.8,69.3,30.15,East,84,3.1,3.1,92,0.00,,---,0.20,VWS V15.00,2013-06-20 08:34:00,
2013-06-20 04:35:00,71.8,69.3,30.15,East,84,3.1,3.1,92,0.00,,---,0.20,VWS V15.00,2013-06-20 08:35:00,
2013-06-20 04:36:00,71.8,69.3,30.15,East,84,3.1,3.1,92,0.00,,---,0.20,VWS V15.00,2013-06-20 08:36:00,
2013-06-20 04:37:00,72.0,70.1,30.12,SSE,151,0.0,0.0,94,0.04,,---,0.24,VWS V14.01,2013-06-20 08:37:00,
2013-06-20 04:38:00,72.0,69.8,30.15,ENE,73,2.7,3.1,93,0.00,,---,0.20,VWS V15.00,2013-06-20 08:38:00,
2013-06-20 04:39:00,72.0,69.8,30.15,ENE,61,2.7,3.6,93,0.00,,---,0.20,VWS V15.00,2013-06-20 08:39:00,
2013-06-20 04:40:00,72.0,69.8,30.15,East,79,4.5,4.5,93,0.00,,---,0.20,VWS V15.00,2013-06-20 08:40:00,
2013-06-20 04:41:00,71.8,69.7,30.15,SE,143,2.7,4.5,93,0.00,,---,0.20,VWS V15.00,2013-06-20 08:41:00,
2013-06-20 04:42:00,72.0,70.1,30.12,SSE,164,2.7,4.0,94,0.04,,---,0.24,VWS V14.01,2013-06-20 08:42:00,
2013-06-20 04:43:00,71.8,69.7,30.15,East,95,3.6,4.0,93,0.00,,---,0.20,VWS V15.00,2013-06-20 08:43:00,
2013-06-20 04:44:00,71.8,69.7,30.15,ENE,77,0.0,3.6,93,0.04,,---,0.24,VWS V15.00,2013-06-20 08:44:00,
2013-06-20 04:45:00,71.8,69.7,30.15,East,92,2.7,4.0,93,0.04,,---,0.24,VWS V15.00,2013-06-20 08:45:00,
2013-06-20 04:46:00,71.8,69.7,30.15,NE,39,3.1,4.0,93,0.04,,---,0.24,VWS V15.00,2013-06-20 08:46:00,
2013-06-20 04:47:00,72.0,70.1,30.15,SE,128,0.0,2.2,94,0.00,,---,0.24,VWS V14.01,2013-06-20 08:47:00,
2013-06-20 04:48:00,71.8,69.7,30.15,ESE,102,2.7,4.0,93,0.04,,---,0.24,VWS V15.00,2013-06-20 08:48:00,
2013-06-20 04:49:00,71.8,69.7,30.15,ENE,65,2.7,4.0,93,0.04,,---,0.24,VWS V15.00,2013-06-20 08:49:00,
2013-06-20 04:50:00,71.8,69.7,30.15,East,86,2.7,3.6,93,0.04,,---,0.24,VWS V15.00,2013-06-20 08:50:00,
2013-06-20 04:51:00,71.8,69.7,30.15,East,84,3.6,3.6,93,0.04,,---,0.24,VWS V15.00,2013-06-20 08:51:00,
2013-06-20 04:52:00,72.1,70.3,30.15,SE,129,0.0,0.0,94,0.00,,---,0.24,VWS V14.01,2013-06-20 08:52:00,
2013-06-20 04:53:00,71.8,69.7,30.15,East,101,2.7,3.1,93,0.04,,---,0.24,VWS V15.00,2013-06-20 08:53:00,
2013-06-20 04:54:00,71.8,69.7,30.15,ENE,58,0.0,2.7,93,0.04,,---,0.24,VWS V15.00,2013-06-20 08:54:00,
2013-06-20 04:55:00,71.8,69.7,30.15,East,91,0.0,2.2,93,0.04,,---,0.24,VWS V15.00,2013-06-20 08:55:00,
2013-06-20 04:56:00,71.8,69.7,30.15,East,91,0.0,0.0,93,0.04,,---,0.24,VWS V15.00,2013-06-20 08:56:00,
2013-06-20 04:57:00,72.3,70.5,30.15,ESE,113,2.7,2.7,94,0.00,,---,0.24,VWS V14.01,2013-06-20 08:57:00,
2013-06-20 04:58:00,71.8,69.7,30.15,East,91,0.0,0.0,93,0.04,,---,0.24,VWS V15.00,2013-06-20 08:58:00,
2013-06-20 04:59:00,71.8,69.7,30.15,East,91,0.0,0.0,93,0.04,,---,0.24,VWS V15.00,2013-06-20 08:59:00,
2013-06-20 05:00:00,71.8,69.7,30.15,East,91,0.0,0.0,93,0.04,,---,0.24,VWS V15.00,2013-06-20 09:00:00,
2013-06-20 05:01:00,72.0,69.8,30.15,SE,146,2.2,2.2,93,0.04,,---,0.24,VWS V15.00,2013-06-20 09:01:00,
2013-06-20 05:02:00,72.3,70.5,30.15,SE,141,0.0,0.0,94,0.00,,---,0.24,VWS V14.01,2013-06-20 09:02:00,
2013-06-20 05:03:00,72.0,69.8,30.15,SE,146,0.0,0.0,93,0.04,,---,0.24,VWS V15.00,2013-06-20 09:03:00,
2013-06-20 05:04:00,71.8,69.7,30.15,SE,146,2.2,2.2,93,0.04,,---,0.24,VWS V15.00,2013-06-20 09:04:00,
2013-06-20 05:05:00,71.8,69.7,30.15,SE,146,0.0,2.7,93,0.04,,---,0.24,VWS V15.00,2013-06-20 09:05:00,
2013-06-20 05:06:00,71.8,69.7,30.15,SE,146,0.0,0.0,93,0.04,,---,0.24,VWS V15.00,2013-06-20 09:06:00,
2013-06-20 05:07:00,72.3,70.5,30.15,East,98,2.7,2.7,94,0.00,,---,0.24,VWS V14.01,2013-06-20 09:07:00,
2013-06-20 05:08:00,72.0,69.8,30.15,SE,140,2.7,3.1,93,0.04,,---,0.24,VWS V15.00,2013-06-20 09:08:00,
2013-06-20 05:09:00,72.0,69.8,30.15,SSE,147,2.7,2.7,93,0.04,,---,0.24,VWS V15.00,2013-06-20 09:09:00,
2013-06-20 05:10:00,72.0,69.8,30.15,SSE,147,0.0,2.7,93,0.04,,---,0.24,VWS V15.00,2013-06-20 09:10:00,
2013-06-20 05:11:00,72.0,69.8,30.15,SSE,147,0.0,0.0,93,0.04,,---,0.24,VWS V15.00,2013-06-20 09:11:00,
2013-06-20 05:12:00,72.5,70.7,30.15,East,98,0.0,0.0,94,0.00,,---,0.24,VWS V14.01,2013-06-20 09:12:00,
2013-06-20 05:13:00,72.0,69.8,30.15,SSE,155,0.0,0.0,93,0.04,,---,0.24,VWS V15.00,2013-06-20 09:13:00,
2013-06-20 05:14:00,72.0,69.8,30.15,SSE,159,0.0,0.0,93,0.04,,---,0.24,VWS V15.00,2013-06-20 09:14:00,
2013-06-20 05:15:00,72.0,69.8,30.15,SE,139,0.0,0.0,93,0.04,,---,0.24,VWS V15.00,2013-06-20 09:15:00,
2013-06-20 05:16:00,72.0,69.8,30.15,SE,139,0.0,0.0,93,0.04,,---,0.24,VWS V15.00,2013-06-20 09:16:00,
2013-06-20 05:17:00,72.0,69.8,30.15,ESE,112,0.0,0.0,93,0.04,,---,0.24,VWS V15.00,2013-06-20 09:17:00,
2013-06-20 05:18:00,72.3,70.5,30.15,East,84,2.7,2.7,94,0.00,,---,0.24,VWS V14.01,2013-06-20 09:18:00,
2013-06-20 05:19:00,72.0,69.8,30.15,SE,132,0.0,0.0,93,0.04,,---,0.24,VWS V15.00,2013-06-20 09:19:00,
2013-06-20 05:20:00,72.0,69.8,30.15,SE,132,0.0,0.0,93,0.04,,---,0.24,VWS V15.00,2013-06-20 09:20:00,
2013-06-20 05:21:00,72.1,70.3,30.15,SSE,152,3.1,3.1,94,0.04,,---,0.24,VWS V15.00,2013-06-20 09:21:00,
2013-06-20 05:22:00,72.1,70.3,30.15,ESE,112,2.2,3.1,94,0.04,,---,0.24,VWS V15.00,2013-06-20 09:22:00,
2013-06-20 05:23:00,72.1,70.3,30.15,ESE,108,0.0,0.0,94,0.00,,---,0.24,VWS V14.01,2013-06-20 09:23:00,
2013-06-20 05:24:00,72.1,70.3,30.15,NNE,28,0.0,0.0,94,0.04,,---,0.24,VWS V15.00,2013-06-20 09:24:00,
2013-06-20 05:25:00,72.1,70.3,30.15,NNE,28,0.0,0.0,94,0.04,,---,0.24,VWS V15.00,2013-06-20 09:25:00,
2013-06-20 05:26:00,72.1,70.3,30.15,ESE,119,0.0,0.0,94,0.04,,---,0.24,VWS V15.00,2013-06-20 09:26:00,
2013-06-20 05:27:00,72.1,70.3,30.15,ESE,102,0.0,0.0,94,0.04,,---,0.24,VWS V15.00,2013-06-20 09:27:00,
2013-06-20 05:28:00,72.1,70.3,30.15,ESE,108,0.0,0.0,94,0.00,,---,0.24,VWS V14.01,2013-06-20 09:28:00,
2013-06-20 05:29:00,72.1,70.3,30.15,East,91,3.1,3.1,94,0.04,,---,0.24,VWS V15.00,2013-06-20 09:29:00,
2013-06-20 05:30:00,72.1,70.3,30.15,SE,133,0.0,3.1,94,0.04,,---,0.24,VWS V15.00,2013-06-20 09:30:00,
2013-06-20 05:31:00,72.1,70.3,30.15,ESE,123,0.0,0.0,94,0.04,,---,0.24,VWS V15.00,2013-06-20 09:31:00,
2013-06-20 05:32:00,72.1,70.3,30.15,SE,144,3.1,3.1,94,0.04,,---,0.24,VWS V15.00,2013-06-20 09:32:00,
2013-06-20 05:33:00,72.1,70.3,30.15,ESE,108,0.0,0.0,94,0.00,,---,0.24,VWS V14.01,2013-06-20 09:33:00,
2013-06-20 05:34:00,72.0,70.1,30.12,South,172,0.0,2.7,94,0.04,,---,0.24,VWS V15.00,2013-06-20 09:34:00,
2013-06-20 05:35:00,72.0,70.1,30.12,SSE,152,3.1,3.1,94,0.04,,---,0.24,VWS V15.00,2013-06-20 09:35:00,
2013-06-20 05:36:00,72.0,70.1,30.12,SE,135,0.0,3.1,94,0.04,,---,0.24,VWS V15.00,2013-06-20 09:36:00,
2013-06-20 05:37:00,72.0,70.1,30.12,SSE,151,0.0,0.0,94,0.04,,---,0.24,VWS V15.00,2013-06-20 09:37:00,
2013-06-20 05:38:00,72.0,70.1,30.15,ESE,108,0.0,0.0,94,0.00,,---,0.24,VWS V14.01,2013-06-20 09:38:00,
2013-06-20 05:39:00,72.0,70.1,30.12,SE,143,3.6,3.6,94,0.04,,---,0.24,VWS V15.00,2013-06-20 09:39:00,
2013-06-20 05:40:00,72.0,70.1,30.12,SSE,158,0.0,4.9,94,0.04,,---,0.24,VWS V15.00,2013-06-20 09:40:00,
2013-06-20 05:41:00,72.0,70.1,30.12,SSE,158,0.0,0.0,94,0.04,,---,0.24,VWS V15.00,2013-06-20 09:41:00,
2013-06-20 05:42:00,72.0,70.1,30.12,SSE,164,2.7,4.0,94,0.04,,---,0.24,VWS V15.00,2013-06-20 09:42:00,
2013-06-20 05:43:00,72.0,70.1,30.15,ESE,108,0.0,0.0,94,0.00,,---,0.24,VWS V14.01,2013-06-20 09:43:00,
2013-06-20 05:44:00,72.0,70.1,30.12,ESE,121,2.7,3.1,94,0.04,,---,0.24,VWS V15.00,2013-06-20 09:44:00,
2013-06-20 05:45:00,72.0,70.1,30.12,ESE,121,0.0,2.7,94,0.00,,---,0.24,VWS V15.00,2013-06-20 09:45:00,
2013-06-20 05:46:00,72.0,70.1,30.12,SE,136,0.0,0.0,94,0.00,,---,0.24,VWS V15.00,2013-06-20 09:46:00,
2013-06-20 05:47:00,72.0,70.1,30.15,SE,128,0.0,2.2,94,0.00,,---,0.24,VWS V15.00,2013-06-20 09:47:00,
2013-06-20 05:48:00,72.0,70.1,30.18,SE,131,0.0,0.0,94,0.00,,---,0.24,VWS V14.01,2013-06-20 09:48:00,
2013-06-20 05:49:00,72.0,70.1,30.15,ESE,118,3.1,3.6,94,0.00,,---,0.24,VWS V15.00,2013-06-20 09:49:00,
2013-06-20 05:50:00,72.0,70.1,30.15,ESE,117,3.6,3.6,94,0.00,,---,0.24,VWS V15.00,2013-06-20 09:50:00,
2013-06-20 05:51:00,72.1,70.3,30.15,ESE,118,2.7,3.6,94,0.00,,---,0.24,VWS V15.00,2013-06-20 09:51:00,
2013-06-20 05:52:00,72.1,70.3,30.15,SE,129,0.0,2.7,94,0.00,,---,0.24,VWS V15.00,2013-06-20 09:52:00,
2013-06-20 05:53:00,71.8,70.0,30.18,SE,145,0.0,0.0,94,0.00,,---,0.24,VWS V14.01,2013-06-20 09:53:00,
2013-06-20 05:54:00,72.1,70.3,30.15,SE,143,3.6,3.6,94,0.00,,---,0.24,VWS V15.00,2013-06-20 09:54:00,
2013-06-20 05:55:00,72.1,70.3,30.15,ESE,122,3.1,3.6,94,0.00,,---,0.24,VWS V15.00,2013-06-20 09:55:00,
2013-06-20 05:56:00,72.3,70.5,30.15,ESE,115,3.1,3.6,94,0.00,,---,0.24,VWS V15.00,2013-06-20 09:56:00,
2013-06-20 05:57:00,72.3,70.5,30.15,ESE,111,2.7,3.1,94,0.00,,---,0.24,VWS V15.00,2013-06-20 09:57:00,
2013-06-20 05:58:00,71.8,70.0,30.18,SE,145,0.0,0.0,94,0.00,,---,0.24,VWS V14.01,2013-06-20 09:58:00,
2013-06-20 05:59:00,72.3,70.5,30.15,East,88,0.0,2.7,94,0.00,,---,0.24,VWS V15.00,2013-06-20 09:59:00,
2013-06-20 06:00:00,72.3,70.5,30.15,ESE,120,0.0,0.0,94,0.00,,---,0.24,VWS V15.00,2013-06-20 10:00:00,
2013-06-20 06:01:00,72.3,70.5,30.15,SE,141,0.0,2.7,94,0.00,,---,0.24,VWS V15.00,2013-06-20 10:01:00,
2013-06-20 06:02:00,72.3,70.5,30.15,SE,141,0.0,0.0,94,0.00,,---,0.24,VWS V15.00,2013-06-20 10:02:00,
2013-06-20 06:03:00,71.6,69.8,30.15,SSE,152,0.0,0.0,94,0.00,,---,0.24,VWS V14.01,2013-06-20 10:03:00,
2013-06-20 06:04:00,72.3,70.5,30.15,SE,141,0.0,0.0,94,0.00,,---,0.24,VWS V15.00,2013-06-20 10:04:00,
2013-06-20 06:05:00,72.3,70.5,30.15,SE,141,0.0,0.0,94,0.00,,---,0.24,VWS V15.00,2013-06-20 10:05:00,
2013-06-20 06:06:00,72.3,70.5,30.15,SE,141,0.0,0.0,94,0.00,,---,0.24,VWS V15.00,2013-06-20 10:06:00,
2013-06-20 06:07:00,72.3,70.5,30.15,SE,141,0.0,0.0,94,0.00,,---,0.24,VWS V15.00,2013-06-20 10:07:00,
2013-06-20 06:08:00,71.4,69.6,30.15,SSE,154,0.0,0.0,94,0.00,,---,0.24,VWS V14.01,2013-06-20 10:08:00,
2013-06-20 06:09:00,72.3,70.5,30.15,East,98,0.0,0.0,94,0.00,,---,0.24,VWS V15.00,2013-06-20 10:09:00,
2013-06-20 06:10:00,72.3,70.5,30.15,East,98,0.0,0.0,94,0.00,,---,0.24,VWS V15.00,2013-06-20 10:10:00,
2013-06-20 06:11:00,72.5,70.7,30.15,East,98,0.0,0.0,94,0.00,,---,0.24,VWS V15.00,2013-06-20 10:11:00,
2013-06-20 06:12:00,72.5,70.7,30.15,East,98,0.0,0.0,94,0.00,,---,0.24,VWS V15.00,2013-06-20 10:12:00,
2013-06-20 06:13:00,71.6,69.5,30.15,SSE,154,0.0,0.0,93,0.00,,---,0.24,VWS V14.01,2013-06-20 10:13:00,
2013-06-20 06:14:00,72.5,70.7,30.15,East,98,0.0,0.0,94,0.00,,---,0.24,VWS V15.00,2013-06-20 10:14:00,
2013-06-20 06:15:00,72.3,70.5,30.15,East,98,0.0,0.0,94,0.00,,---,0.24,VWS V15.00,2013-06-20 10:15:00,
2013-06-20 06:16:00,72.3,70.5,30.15,ESE,109,2.2,2.7,94,0.00,,---,0.24,VWS V15.00,2013-06-20 10:16:00,
2013-06-20 06:17:00,72.3,70.5,30.15,ESE,119,2.7,2.7,94,0.00,,---,0.24,VWS V15.00,2013-06-20 10:17:00,
2013-06-20 06:18:00,71.4,69.6,30.15,SSE,154,0.0,0.0,94,0.00,,---,0.24,VWS V14.01,2013-06-20 10:18:00,
2013-06-20 06:19:00,72.3,70.5,30.15,ESE,108,0.0,3.1,94,0.00,,---,0.24,VWS V15.00,2013-06-20 10:19:00,
2013-06-20 06:20:00,72.1,70.3,30.15,ESE,108,0.0,0.0,94,0.00,,---,0.24,VWS V15.00,2013-06-20 10:20:00,
2013-06-20 06:21:00,72.1,70.3,30.15,ESE,108,0.0,0.0,94,0.00,,---,0.24,VWS V15.00,2013-06-20 10:21:00,
2013-06-20 06:22:00,72.1,70.3,30.15,ESE,108,0.0,0.0,94,0.00,,---,0.24,VWS V15.00,2013-06-20 10:22:00,
2013-06-20 06:23:00,71.4,69.6,30.15,SSE,154,0.0,0.0,94,0.00,,---,0.24,VWS V14.01,2013-06-20 10:23:00,
2013-06-20 06:24:00,72.1,70.3,30.15,ESE,108,0.0,0.0,94,0.00,,---,0.24,VWS V15.00,2013-06-20 10:24:00,
2013-06-20 06:25:00,72.1,70.3,30.15,ESE,108,0.0,0.0,94,0.00,,---,0.24,VWS V15.00,2013-06-20 10:25:00,
2013-06-20 06:26:00,72.1,70.3,30.15,ESE,108,0.0,0.0,94,0.00,,---,0.24,VWS V15.00,2013-06-20 10:26:00,
2013-06-20 06:27:00,72.1,70.3,30.15,ESE,108,0.0,0.0,94,0.00,,---,0.24,VWS V15.00,2013-06-20 10:27:00,
2013-06-20 06:28:00,71.6,69.8,30.15,SSE,154,0.0,0.0,94,0.00,,---,0.24,VWS V14.01,2013-06-20 10:28:00,
2013-06-20 06:29:00,72.1,70.3,30.15,ESE,108,0.0,0.0,94,0.00,,---,0.24,VWS V15.00,2013-06-20 10:29:00,
2013-06-20 06:30:00,72.1,70.3,30.15,ESE,108,0.0,0.0,94,0.00,,---,0.24,VWS V15.00,2013-06-20 10:30:00,
2013-06-20 06:31:00,72.1,70.3,30.15,ESE,108,0.0,0.0,94,0.00,,---,0.24,VWS V15.00,2013-06-20 10:31:00,
2013-06-20 06:32:00,72.1,70.3,30.15,ESE,108,0.0,0.0,94,0.00,,---,0.24,VWS V15.00,2013-06-20 10:32:00,
2013-06-20 06:33:00,71.4,69.9,30.15,SE,127,0.0,0.0,95,0.00,,---,0.24,VWS V14.01,2013-06-20 10:33:00,
2013-06-20 06:34:00,72.1,70.3,30.15,ESE,108,0.0,0.0,94,0.00,,---,0.24,VWS V15.00,2013-06-20 10:34:00,
2013-06-20 06:35:00,72.1,70.3,30.15,ESE,108,0.0,0.0,94,0.00,,---,0.24,VWS V15.00,2013-06-20 10:35:00,
2013-06-20 06:36:00,72.1,70.3,30.15,ESE,108,0.0,0.0,94,0.00,,---,0.24,VWS V15.00,2013-06-20 10:36:00,
2013-06-20 06:37:00,72.1,70.3,30.15,ESE,108,0.0,0.0,94,0.00,,---,0.24,VWS V15.00,2013-06-20 10:37:00,
2013-06-20 06:38:00,72.0,70.1,30.15,ESE,108,0.0,0.0,94,0.00,,---,0.24,VWS V15.00,2013-06-20 10:38:00,
2013-06-20 06:39:00,71.4,69.6,30.15,ESE,117,0.0,0.0,94,0.00,,---,0.24,VWS V14.01,2013-06-20 10:39:00,
2013-06-20 06:40:00,72.0,70.1,30.15,ESE,108,0.0,0.0,94,0.00,,---,0.24,VWS V15.00,2013-06-20 10:40:00,
2013-06-20 06:41:00,72.0,70.1,30.15,ESE,108,0.0,0.0,94,0.00,,---,0.24,VWS V15.00,2013-06-20 10:41:00,
2013-06-20 06:42:00,72.0,70.1,30.15,ESE,108,0.0,0.0,94,0.00,,---,0.24,VWS V15.00,2013-06-20 10:42:00,
2013-06-20 06:43:00,72.0,70.1,30.15,ESE,108,0.0,0.0,94,0.00,,---,0.24,VWS V15.00,2013-06-20 10:43:00,
2013-06-20 06:44:00,71.4,69.6,30.15,ESE,117,0.0,0.0,94,0.00,,---,0.24,VWS V14.01,2013-06-20 10:44:00,
2013-06-20 06:45:00,72.0,70.1,30.15,ESE,109,0.0,2.2,94,0.00,,---,0.24,VWS V15.00,2013-06-20 10:45:00,
2013-06-20 06:46:00,72.0,70.1,30.15,SE,131,0.0,0.0,94,0.00,,---,0.24,VWS V15.00,2013-06-20 10:46:00,
2013-06-20 06:47:00,72.0,70.1,30.18,SE,131,0.0,0.0,94,0.00,,---,0.24,VWS V15.00,2013-06-20 10:47:00,
2013-06-20 06:48:00,72.0,70.1,30.18,SE,131,0.0,0.0,94,0.00,,---,0.24,VWS V15.00,2013-06-20 10:48:00,
2013-06-20 06:49:00,71.4,69.6,30.15,SE,124,0.0,0.0,94,0.00,,---,0.24,VWS V14.01,2013-06-20 10:49:00,
2013-06-20 06:50:00,72.0,70.1,30.18,SE,145,0.0,0.0,94,0.00,,---,0.24,VWS V15.00,2013-06-20 10:50:00,
2013-06-20 06:51:00,72.0,70.1,30.18,SE,145,0.0,0.0,94,0.00,,---,0.24,VWS V15.00,2013-06-20 10:51:00,
2013-06-20 06:52:00,72.0,70.1,30.18,SE,145,0.0,0.0,94,0.00,,---,0.24,VWS V15.00,2013-06-20 10:52:00,
2013-06-20 06:53:00,71.8,70.0,30.18,SE,145,0.0,0.0,94,0.00,,---,0.24,VWS V15.00,2013-06-20 10:53:00,
2013-06-20 06:54:00,71.6,69.8,30.15,SE,124,0.0,0.0,94,0.00,,---,0.24,VWS V14.01,2013-06-20 10:54:00,
2013-06-20 06:55:00,71.8,70.0,30.18,SE,145,0.0,0.0,94,0.00,,---,0.24,VWS V15.00,2013-06-20 10:55:00,
2013-06-20 06:56:00,71.8,70.0,30.18,SE,145,0.0,0.0,94,0.00,,---,0.24,VWS V15.00,2013-06-20 10:56:00,
2013-06-20 06:57:00,71.8,70.0,30.18,SE,145,0.0,0.0,94,0.00,,---,0.24,VWS V15.00,2013-06-20 10:57:00,
2013-06-20 06:58:00,71.8,70.0,30.18,SE,145,0.0,0.0,94,0.00,,---,0.24,VWS V15.00,2013-06-20 10:58:00,
2013-06-20 06:59:00,71.4,69.6,30.15,SE,124,0.0,0.0,94,0.00,,---,0.24,VWS V14.01,2013-06-20 10:59:00,
2013-06-20 07:00:00,71.8,70.0,30.18,SE,145,0.0,0.0,94,0.00,,---,0.24,VWS V15.00,2013-06-20 11:00:00,
2013-06-20 07:01:00,71.8,70.0,30.18,SSE,148,0.0,0.0,94,0.00,,---,0.24,VWS V15.00,2013-06-20 11:01:00,
2013-06-20 07:02:00,71.6,69.8,30.15,SSE,148,0.0,0.0,94,0.00,,---,0.24,VWS V15.00,2013-06-20 11:02:00,
2013-06-20 07:03:00,71.6,69.8,30.15,SSE,152,0.0,0.0,94,0.00,,---,0.24,VWS V15.00,2013-06-20 11:03:00,
2013-06-20 07:04:00,71.4,69.6,30.18,SE,124,0.0,0.0,94,0.00,,---,0.24,VWS V14.01,2013-06-20 11:04:00,
2013-06-20 07:05:00,71.6,69.8,30.15,SE,143,0.0,3.1,94,0.00,,---,0.24,VWS V15.00,2013-06-20 11:05:00,
2013-06-20 07:06:00,71.6,69.8,30.15,SE,143,0.0,0.0,94,0.00,,---,0.24,VWS V15.00,2013-06-20 11:06:00,
2013-06-20 07:07:00,71.4,69.6,30.15,SE,143,0.0,0.0,94,0.00,,---,0.24,VWS V15.00,2013-06-20 11:07:00,
2013-06-20 07:08:00,71.4,69.6,30.15,SSE,154,0.0,0.0,94,0.00,,---,0.24,VWS V15.00,2013-06-20 11:08:00,
2013-06-20 07:09:00,71.6,69.8,30.18,SE,124,0.0,0.0,94,0.00,,---,0.24,VWS V14.01,2013-06-20 11:09:00,
2013-06-20 07:10:00,71.6,69.5,30.15,SSE,154,0.0,0.0,93,0.00,,---,0.24,VWS V15.00,2013-06-20 11:10:00,
2013-06-20 07:11:00,71.6,69.5,30.15,SSE,154,0.0,0.0,93,0.00,,---,0.24,VWS V15.00,2013-06-20 11:11:00,
2013-06-20 07:12:00,71.6,69.5,30.15,SSE,154,0.0,0.0,93,0.00,,---,0.24,VWS V15.00,2013-06-20 11:12:00,
2013-06-20 07:13:00,71.6,69.5,30.15,SSE,154,0.0,0.0,93,0.00,,---,0.24,VWS V15.00,2013-06-20 11:13:00,
2013-06-20 07:14:00,72.0,70.1,30.18,SE,124,0.0,0.0,94,0.00,,---,0.24,VWS V14.01,2013-06-20 11:14:00,
2013-06-20 07:15:00,71.6,69.5,30.15,SSE,154,0.0,0.0,93,0.00,,---,0.24,VWS V15.00,2013-06-20 11:15:00,
2013-06-20 07:16:00,71.6,69.5,30.15,SSE,154,0.0,0.0,93,0.00,,---,0.24,VWS V15.00,2013-06-20 11:16:00,
2013-06-20 07:17:00,71.4,69.6,30.15,SSE,154,0.0,0.0,94,0.00,,---,0.24,VWS V15.00,2013-06-20 11:17:00,
2013-06-20 07:18:00,71.4,69.6,30.15,SSE,154,0.0,0.0,94,0.00,,---,0.24,VWS V15.00,2013-06-20 11:18:00,
2013-06-20 07:19:00,72.1,70.6,30.18,East,82,0.0,0.0,95,0.00,,---,0.24,VWS V14.01,2013-06-20 11:19:00,
2013-06-20 07:20:00,71.4,69.6,30.15,SSE,154,0.0,0.0,94,0.00,,---,0.24,VWS V15.00,2013-06-20 11:20:00,
2013-06-20 07:21:00,71.4,69.6,30.15,SSE,154,0.0,0.0,94,0.00,,---,0.24,VWS V15.00,2013-06-20 11:21:00,
2013-06-20 07:22:00,71.4,69.6,30.15,SSE,154,0.0,0.0,94,0.00,,---,0.24,VWS V15.00,2013-06-20 11:22:00,
2013-06-20 07:23:00,71.4,69.6,30.15,SSE,154,0.0,0.0,94,0.00,,---,0.24,VWS V15.00,2013-06-20 11:23:00,
2013-06-20 07:24:00,72.1,70.6,30.18,East,82,0.0,0.0,95,0.00,,---,0.24,VWS V14.01,2013-06-20 11:24:00,
2013-06-20 07:25:00,71.6,69.8,30.15,SSE,154,0.0,0.0,94,0.00,,---,0.24,VWS V15.00,2013-06-20 11:25:00,
2013-06-20 07:26:00,71.6,69.8,30.15,SSE,154,0.0,0.0,94,0.00,,---,0.24,VWS V15.00,2013-06-20 11:26:00,
2013-06-20 07:27:00,71.6,69.8,30.15,SSE,154,0.0,0.0,94,0.00,,---,0.24,VWS V15.00,2013-06-20 11:27:00,
2013-06-20 07:28:00,71.6,69.8,30.15,SSE,154,0.0,0.0,94,0.00,,---,0.24,VWS V15.00,2013-06-20 11:28:00,
2013-06-20 07:29:00,72.3,70.8,30.18,East,82,0.0,0.0,95,0.00,,---,0.24,VWS V14.01,2013-06-20 11:29:00,
2013-06-20 07:30:00,71.6,69.8,30.15,SSE,154,0.0,0.0,94,0.00,,---,0.24,VWS V15.00,2013-06-20 11:30:00,
2013-06-20 07:31:00,71.6,69.8,30.15,SE,133,0.0,0.0,94,0.00,,---,0.24,VWS V15.00,2013-06-20 11:31:00,
2013-06-20 07:32:00,71.6,69.8,30.15,SE,127,0.0,0.0,94,0.00,,---,0.24,VWS V15.00,2013-06-20 11:32:00,
2013-06-20 07:33:00,71.6,69.8,30.15,SE,127,0.0,0.0,94,0.00,,---,0.24,VWS V15.00,2013-06-20 11:33:00,
2013-06-20 07:34:00,72.7,70.9,30.18,East,82,0.0,0.0,94,0.00,,---,0.24,VWS V14.01,2013-06-20 11:34:00,
2013-06-20 07:35:00,71.4,69.9,30.15,SE,127,0.0,0.0,95,0.00,,---,0.24,VWS V15.00,2013-06-20 11:35:00,
2013-06-20 07:36:00,71.4,69.9,30.15,SE,127,0.0,0.0,95,0.00,,---,0.24,VWS V15.00,2013-06-20 11:36:00,
2013-06-20 07:37:00,71.4,69.9,30.15,SE,127,0.0,0.0,95,0.00,,---,0.24,VWS V15.00,2013-06-20 11:37:00,
2013-06-20 07:38:00,71.4,69.9,30.15,SE,127,0.0,0.0,95,0.00,,---,0.24,VWS V15.00,2013-06-20 11:38:00,
2013-06-20 07:39:00,71.4,69.6,30.15,ESE,117,0.0,0.0,94,0.00,,---,0.24,VWS V15.00,2013-06-20 11:39:00,
2013-06-20 07:40:00,73.0,71.2,30.18,East,82,0.0,0.0,94,0.00,,---,0.24,VWS V14.01,2013-06-20 11:40:00,
2013-06-20 07:41:00,71.4,69.6,30.15,ESE,117,0.0,0.0,94,0.00,,---,0.24,VWS V15.00,2013-06-20 11:41:00,
2013-06-20 07:42:00,71.4,69.6,30.15,ESE,117,0.0,0.0,94,0.00,,---,0.24,VWS V15.00,2013-06-20 11:42:00,
2013-06-20 07:43:00,71.4,69.6,30.15,ESE,117,0.0,0.0,94,0.00,,---,0.24,VWS V15.00,2013-06-20 11:43:00,
2013-06-20 07:44:00,71.4,69.6,30.15,ESE,117,0.0,0.0,94,0.00,,---,0.24,VWS V15.00,2013-06-20 11:44:00,
2013-06-20 07:45:00,75.0,73.2,30.18,East,82,0.0,0.0,94,0.00,,---,0.24,VWS V14.01,2013-06-20 11:45:00,
2013-06-20 07:46:00,71.4,69.6,30.15,SE,124,0.0,0.0,94,0.00,,---,0.24,VWS V15.00,2013-06-20 11:46:00,
2013-06-20 07:47:00,71.4,69.6,30.15,SE,124,0.0,0.0,94,0.00,,---,0.24,VWS V15.00,2013-06-20 11:47:00,
2013-06-20 07:48:00,71.4,69.6,30.15,SE,124,0.0,0.0,94,0.00,,---,0.24,VWS V15.00,2013-06-20 11:48:00,
2013-06-20 07:49:00,71.4,69.6,30.15,SE,124,0.0,0.0,94,0.00,,---,0.24,VWS V15.00,2013-06-20 11:49:00,
2013-06-20 07:50:00,77.9,75.4,30.18,East,83,0.0,0.0,92,0.00,,---,0.24,VWS V14.01,2013-06-20 11:50:00,
2013-06-20 07:51:00,71.6,69.8,30.15,SE,124,0.0,0.0,94,0.00,,---,0.24,VWS V15.00,2013-06-20 11:51:00,
2013-06-20 07:52:00,71.6,69.8,30.15,SE,124,0.0,0.0,94,0.00,,---,0.24,VWS V15.00,2013-06-20 11:52:00,
2013-06-20 07:53:00,71.6,69.8,30.15,SE,124,0.0,0.0,94,0.00,,---,0.24,VWS V15.00,2013-06-20 11:53:00,
2013-06-20 07:54:00,71.6,69.8,30.15,SE,124,0.0,0.0,94,0.00,,---,0.24,VWS V15.00,2013-06-20 11:54:00,
2013-06-20 07:55:00,80.8,77.6,30.18,East,83,0.0,0.0,90,0.00,,---,0.24,VWS V14.01,2013-06-20 11:55:00,
2013-06-20 07:56:00,71.6,69.8,30.15,SE,124,0.0,0.0,94,0.00,,---,0.24,VWS V15.00,2013-06-20 11:56:00,
2013-06-20 07:57:00,71.6,69.8,30.15,SE,124,0.0,0.0,94,0.00,,---,0.24,VWS V15.00,2013-06-20 11:57:00,
2013-06-20 07:58:00,71.6,69.8,30.15,SE,124,0.0,0.0,94,0.00,,---,0.24,VWS V15.00,2013-06-20 11:58:00,
2013-06-20 07:59:00,71.4,69.6,30.15,SE,124,0.0,0.0,94,0.00,,---,0.24,VWS V15.00,2013-06-20 11:59:00,
2013-06-20 08:00:00,82.2,76.6,30.18,East,82,0.0,0.0,83,0.00,,---,0.24,VWS V14.01,2013-06-20 12:00:00,
2013-06-20 08:01:00,71.4,69.6,30.15,SE,124,0.0,0.0,94,0.00,,---,0.24,VWS V15.00,2013-06-20 12:01:00,
2013-06-20 08:02:00,71.4,69.6,30.18,SE,124,0.0,0.0,94,0.00,,---,0.24,VWS V15.00,2013-06-20 12:02:00,
2013-06-20 08:03:00,71.4,69.6,30.18,SE,124,0.0,0.0,94,0.00,,---,0.24,VWS V15.00,2013-06-20 12:03:00,
2013-06-20 08:04:00,71.4,69.6,30.18,SE,124,0.0,0.0,94,0.00,,---,0.24,VWS V15.00,2013-06-20 12:04:00,
2013-06-20 08:05:00,84.0,61.0,30.18,SE,135,2.2,3.1,46,0.00,,---,0.24,VWS V14.01,2013-06-20 12:05:00,
2013-06-20 08:06:00,71.4,69.6,30.18,SE,124,0.0,0.0,94,0.00,,---,0.24,VWS V15.00,2013-06-20 12:06:00,
2013-06-20 08:07:00,71.6,69.8,30.18,SE,124,0.0,0.0,94,0.00,,---,0.24,VWS V15.00,2013-06-20 12:07:00,
2013-06-20 08:08:00,71.6,69.8,30.18,SE,124,0.0,0.0,94,0.00,,---,0.24,VWS V15.00,2013-06-20 12:08:00,
2013-06-20 08:09:00,71.6,69.8,30.18,SE,124,0.0,0.0,94,0.00,,---,0.24,VWS V15.00,2013-06-20 12:09:00,
2013-06-20 08:10:00,85.5,57.0,30.18,ESE,113,0.0,0.0,38,0.00,,---,0.24,VWS V14.01,2013-06-20 12:10:00,
2013-06-20 08:11:00,71.8,70.0,30.18,SE,124,0.0,0.0,94,0.00,,---,0.24,VWS V15.00,2013-06-20 12:11:00,
2013-06-20 08:12:00,71.8,70.0,30.18,SE,124,0.0,0.0,94,0.00,,---,0.24,VWS V15.00,2013-06-20 12:12:00,
2013-06-20 08:13:00,71.8,70.0,30.18,SE,124,0.0,0.0,94,0.00,,---,0.24,VWS V15.00,2013-06-20 12:13:00,
2013-06-20 08:14:00,72.0,70.1,30.18,SE,124,0.0,0.0,94,0.00,,---,0.24,VWS V15.00,2013-06-20 12:14:00,
2013-06-20 08:15:00,86.9,52.7,30.18,ENE,78,0.0,0.0,31,0.00,,---,0.24,VWS V14.01,2013-06-20 12:15:00,
2013-06-20 08:16:00,72.1,70.6,30.18,East,82,0.0,0.0,95,0.00,,---,0.24,VWS V15.00,2013-06-20 12:16:00,
2013-06-20 08:17:00,72.1,70.6,30.18,East,83,0.0,0.0,95,0.00,,---,0.24,VWS V15.00,2013-06-20 12:17:00,
2013-06-20 08:18:00,72.1,70.6,30.18,East,83,0.0,0.0,95,0.00,,---,0.24,VWS V15.00,2013-06-20 12:18:00,
2013-06-20 08:19:00,72.1,70.6,30.18,East,83,0.0,0.0,95,0.00,,---,0.24,VWS V15.00,2013-06-20 12:19:00,
2013-06-20 08:20:00,87.3,53.0,30.18,NE,51,0.0,0.0,31,0.00,,---,0.24,VWS V14.01,2013-06-20 12:20:00,
2013-06-20 08:21:00,72.1,70.6,30.18,East,83,0.0,0.0,95,0.00,,---,0.24,VWS V15.00,2013-06-20 12:21:00,
2013-06-20 08:22:00,72.1,70.6,30.18,East,83,0.0,0.0,95,0.00,,---,0.24,VWS V15.00,2013-06-20 12:22:00,
2013-06-20 08:23:00,72.1,70.6,30.18,East,82,0.0,0.0,95,0.00,,---,0.24,VWS V15.00,2013-06-20 12:23:00,
2013-06-20 08:24:00,72.1,70.6,30.18,East,82,0.0,0.0,95,0.00,,---,0.24,VWS V15.00,2013-06-20 12:24:00,
2013-06-20 08:25:00,87.8,53.4,30.18,ENE,74,0.0,0.0,31,0.00,,---,0.24,VWS V14.01,2013-06-20 12:25:00,
2013-06-20 08:26:00,72.1,70.6,30.18,East,83,0.0,0.0,95,0.00,,---,0.24,VWS V15.00,2013-06-20 12:26:00,
2013-06-20 08:27:00,72.3,70.8,30.18,East,83,0.0,0.0,95,0.00,,---,0.24,VWS V15.00,2013-06-20 12:27:00,
2013-06-20 08:28:00,72.3,70.8,30.18,East,83,0.0,0.0,95,0.00,,---,0.24,VWS V15.00,2013-06-20 12:28:00,
2013-06-20 08:29:00,72.3,70.8,30.18,East,83,0.0,0.0,95,0.00,,---,0.24,VWS V15.00,2013-06-20 12:29:00,
2013-06-20 08:30:00,89.6,52.2,30.18,ESE,107,2.7,2.7,28,0.00,,---,0.24,VWS V14.01,2013-06-20 12:30:00,
2013-06-20 08:31:00,72.3,70.5,30.18,East,83,0.0,0.0,94,0.00,,---,0.24,VWS V15.00,2013-06-20 12:31:00,
2013-06-20 08:32:00,72.5,70.7,30.18,East,82,0.0,0.0,94,0.00,,---,0.24,VWS V15.00,2013-06-20 12:32:00,
2013-06-20 08:33:00,72.5,70.7,30.18,East,83,0.0,0.0,94,0.00,,---,0.24,VWS V15.00,2013-06-20 12:33:00,
2013-06-20 08:34:00,72.7,70.9,30.18,East,82,0.0,0.0,94,0.00,,---,0.24,VWS V15.00,2013-06-20 12:34:00,
2013-06-20 08:35:00,72.7,70.9,30.18,East,83,0.0,0.0,94,0.00,,---,0.24,VWS V15.00,2013-06-20 12:35:00,
2013-06-20 08:36:00,89.4,53.0,30.18,SSE,160,0.0,0.0,29,0.00,,---,0.24,VWS V14.01,2013-06-20 12:36:00,
2013-06-20 08:37:00,72.9,71.0,30.18,East,83,0.0,0.0,94,0.00,,---,0.24,VWS V15.00,2013-06-20 12:37:00,
2013-06-20 08:38:00,73.0,71.2,30.18,East,83,0.0,0.0,94,0.00,,---,0.24,VWS V15.00,2013-06-20 12:38:00,
2013-06-20 08:39:00,73.0,71.2,30.18,East,82,0.0,0.0,94,0.00,,---,0.24,VWS V15.00,2013-06-20 12:39:00,
2013-06-20 08:40:00,73.0,71.2,30.18,East,83,0.0,0.0,94,0.00,,---,0.24,VWS V15.00,2013-06-20 12:40:00,
2013-06-20 08:41:00,90.7,53.1,30.18,East,84,0.0,0.0,28,0.00,,---,0.24,VWS V14.01,2013-06-20 12:41:00,
2013-06-20 08:42:00,73.8,71.9,30.18,East,82,0.0,0.0,94,0.00,,---,0.24,VWS V15.00,2013-06-20 12:42:00,
2013-06-20 08:43:00,74.1,72.3,30.18,East,83,0.0,0.0,94,0.00,,---,0.24,VWS V15.00,2013-06-20 12:43:00,
2013-06-20 08:44:00,74.8,73.0,30.18,East,83,0.0,0.0,94,0.00,,---,0.24,VWS V15.00,2013-06-20 12:44:00,
2013-06-20 08:45:00,75.6,73.4,30.18,East,83,0.0,0.0,93,0.00,,---,0.24,VWS V15.00,2013-06-20 12:45:00,
2013-06-20 08:46:00,91.9,53.2,30.18,SSE,166,0.0,2.7,27,0.00,,---,0.24,VWS V14.01,2013-06-20 12:46:00,
2013-06-20 08:47:00,76.6,74.5,30.18,East,82,0.0,0.0,93,0.00,,---,0.24,VWS V15.00,2013-06-20 12:47:00,
2013-06-20 08:48:00,76.8,74.7,30.18,East,82,0.0,0.0,93,0.00,,---,0.24,VWS V15.00,2013-06-20 12:48:00,
2013-06-20 08:49:00,77.5,75.0,30.18,East,83,0.0,0.0,92,0.00,,---,0.24,VWS V15.00,2013-06-20 12:49:00,
2013-06-20 08:50:00,78.3,75.8,30.18,East,83,0.0,0.0,92,0.00,,---,0.24,VWS V15.00,2013-06-20 12:50:00,
2013-06-20 08:51:00,92.3,52.5,30.18,SE,126,0.0,0.0,26,0.00,,---,0.24,VWS V14.01,2013-06-20 12:51:00,
2013-06-20 08:52:00,79.3,76.8,30.18,East,82,0.0,0.0,92,0.00,,---,0.24,VWS V15.00,2013-06-20 12:52:00,
2013-06-20 08:53:00,79.7,76.8,30.18,East,83,0.0,0.0,91,0.00,,---,0.24,VWS V15.00,2013-06-20 12:53:00,
2013-06-20 08:54:00,80.4,77.2,30.18,East,82,0.0,0.0,90,0.00,,---,0.24,VWS V15.00,2013-06-20 12:54:00,
2013-06-20 08:55:00,80.8,77.6,30.18,East,83,0.0,0.0,90,0.00,,---,0.24,VWS V15.00,2013-06-20 12:55:00,
2013-06-20 08:56:00,92.8,54.0,30.18,SE,144,0.0,0.0,27,0.00,,---,0.24,VWS V14.01,2013-06-20 12:56:00,
2013-06-20 08:57:00,81.9,78.3,30.18,East,82,0.0,0.0,89,0.00,,---,0.24,VWS V15.00,2013-06-20 12:57:00,
2013-06-20 08:58:00,82.6,78.3,30.18,East,83,0.0,0.0,87,0.00,,---,0.24,VWS V15.00,2013-06-20 12:58:00,
2013-06-20 08:59:00,82.2,76.5,30.18,East,83,0.0,0.0,83,0.00,,---,0.24,VWS V15.00,2013-06-20 12:59:00,
2013-06-20 09:00:00,82.2,76.5,30.18,East,83,0.0,0.0,83,0.00,,---,0.24,VWS V15.00,2013-06-20 13:00:00,
2013-06-20 09:01:00,93.7,52.6,30.18,ESE,113,3.6,3.6,25,0.00,,---,0.24,VWS V14.01,2013-06-20 13:01:00,
2013-06-20 09:02:00,83.5,68.2,30.18,East,83,0.0,0.0,60,0.00,,---,0.24,VWS V15.00,2013-06-20 13:02:00,
2013-06-20 09:03:00,83.7,67.8,30.18,East,82,0.0,0.0,59,0.00,,---,0.24,VWS V15.00,2013-06-20 13:03:00,
2013-06-20 09:04:00,83.8,60.9,30.18,ESE,123,3.1,3.1,46,0.00,,---,0.24,VWS V15.00,2013-06-20 13:04:00,
2013-06-20 09:05:00,84.0,61.0,30.18,SE,135,2.2,3.1,46,0.00,,---,0.24,VWS V15.00,2013-06-20 13:05:00,
2013-06-20 09:06:00,92.8,54.0,30.18,South,169,0.0,2.2,27,0.00,,---,0.24,VWS V14.01,2013-06-20 13:06:00,
2013-06-20 09:07:00,84.6,56.9,30.18,SE,135,0.0,0.0,39,0.00,,---,0.24,VWS V15.00,2013-06-20 13:07:00,
2013-06-20 09:08:00,84.7,57.1,30.18,ESE,113,0.0,2.2,39,0.00,,---,0.24,VWS V15.00,2013-06-20 13:08:00,
2013-06-20 09:09:00,85.5,54.7,30.18,ESE,113,0.0,0.0,35,0.00,,---,0.24,VWS V15.00,2013-06-20 13:09:00,
2013-06-20 09:10:00,85.5,57.0,30.18,ESE,113,0.0,0.0,38,0.00,,---,0.24,VWS V15.00,2013-06-20 13:10:00,
2013-06-20 09:11:00,93.0,52.0,30.18,SE,128,3.6,4.9,25,0.00,,---,0.24,VWS V14.01,2013-06-20 13:11:00,
2013-06-20 09:12:00,86.4,53.9,30.18,East,97,0.0,0.0,33,0.00,,---,0.24,VWS V15.00,2013-06-20 13:12:00,
2013-06-20 09:13:00,86.7,53.4,30.18,NE,56,2.7,2.7,32,0.00,,---,0.24,VWS V15.00,2013-06-20 13:13:00,
2013-06-20 09:14:00,86.9,52.7,30.18,ENE,78,2.7,2.7,31,0.00,,---,0.24,VWS V15.00,2013-06-20 13:14:00,
2013-06-20 09:15:00,86.9,53.5,30.18,ENE,77,0.0,2.7,32,0.00,,---,0.24,VWS V15.00,2013-06-20 13:15:00,
2013-06-20 09:16:00,93.9,53.9,30.18,WSW,237,2.2,2.2,26,0.00,,---,0.24,VWS V14.01,2013-06-20 13:16:00,
2013-06-20 09:17:00,87.1,53.7,30.18,ENE,74,2.7,2.7,32,0.00,,---,0.24,VWS V15.00,2013-06-20 13:17:00,
2013-06-20 09:18:00,87.1,53.7,30.18,East,91,0.0,2.7,32,0.00,,---,0.24,VWS V15.00,2013-06-20 13:18:00,
2013-06-20 09:19:00,87.3,53.0,30.18,East,91,2.2,2.2,31,0.00,,---,0.24,VWS V15.00,2013-06-20 13:19:00,
2013-06-20 09:20:00,87.3,53.0,30.18,NE,51,0.0,2.7,31,0.00,,---,0.24,VWS V15.00,2013-06-20 13:20:00,
2013-06-20 09:21:00,94.3,52.0,30.21,SSE,147,3.6,4.5,24,0.00,,---,0.24,VWS V14.01,2013-06-20 13:21:00,
2013-06-20 09:22:00,87.3,53.8,30.18,NE,51,0.0,0.0,32,0.00,,---,0.24,VWS V15.00,2013-06-20 13:22:00,
2013-06-20 09:23:00,87.1,52.8,30.18,ENE,74,0.0,0.0,31,0.00,,---,0.24,VWS V15.00,2013-06-20 13:23:00,
2013-06-20 09:24:00,87.6,53.3,30.18,ENE,74,0.0,0.0,31,0.00,,---,0.24,VWS V15.00,2013-06-20 13:24:00,
2013-06-20 09:25:00,87.8,53.4,30.18,ENE,74,0.0,0.0,31,0.00,,---,0.24,VWS V15.00,2013-06-20 13:25:00,
2013-06-20 09:26:00,94.1,51.8,30.21,ESE,102,2.7,2.7,24,0.00,,---,0.24,VWS V14.01,2013-06-20 13:26:00,
2013-06-20 09:27:00,88.7,54.2,30.18,ENE,74,0.0,0.0,31,0.00,,---,0.24,VWS V15.00,2013-06-20 13:27:00,
2013-06-20 09:28:00,88.9,53.5,30.18,ENE,74,0.0,0.0,30,0.00,,---,0.24,VWS V15.00,2013-06-20 13:28:00,
2013-06-20 09:29:00,89.1,52.7,30.18,ESE,106,0.0,0.0,29,0.00,,---,0.24,VWS V15.00,2013-06-20 13:29:00,
2013-06-20 09:30:00,89.6,53.2,30.18,ESE,106,0.0,0.0,29,0.00,,---,0.24,VWS V15.00,2013-06-20 13:30:00,
2013-06-20 09:31:00,94.5,53.2,30.21,South,172,5.4,5.8,25,0.00,,---,0.24,VWS V14.01,2013-06-20 13:31:00,
2013-06-20 09:32:00,89.4,53.0,30.18,ESE,108,0.0,2.7,29,0.00,,---,0.24,VWS V15.00,2013-06-20 13:32:00,
2013-06-20 09:33:00,89.2,51.9,30.18,ESE,108,0.0,0.0,28,0.00,,---,0.24,VWS V15.00,2013-06-20 13:33:00,
2013-06-20 09:34:00,89.2,52.9,30.18,SSE,156,0.0,0.0,29,0.00,,---,0.24,VWS V15.00,2013-06-20 13:34:00,
2013-06-20 09:35:00,89.2,52.9,30.18,SSE,165,0.0,0.0,29,0.00,,---,0.24,VWS V15.00,2013-06-20 13:35:00,
2013-06-20 09:36:00,93.4,53.4,30.21,SE,133,2.7,5.4,26,0.00,,---,0.24,VWS V14.01,2013-06-20 13:36:00,
2013-06-20 09:37:00,89.6,52.2,30.18,SSE,159,0.0,3.6,28,0.00,,---,0.24,VWS V15.00,2013-06-20 13:37:00,
2013-06-20 09:38:00,90.9,53.3,30.18,East,84,0.0,0.0,28,0.00,,---,0.24,VWS V15.00,2013-06-20 13:38:00,
2013-06-20 09:39:00,90.5,53.0,30.18,East,84,0.0,0.0,28,0.00,,---,0.24,VWS V15.00,2013-06-20 13:39:00,
2013-06-20 09:40:00,90.5,53.0,30.18,East,84,0.0,0.0,28,0.00,,---,0.24,VWS V15.00,2013-06-20 13:40:00,
2013-06-20 09:41:00,91.6,53.9,30.21,ESE,115,6.3,6.3,28,0.00,,---,0.24,VWS V14.01,2013-06-20 13:41:00,
2013-06-20 09:42:00,91.2,53.6,30.18,East,84,0.0,0.0,28,0.00,,---,0.24,VWS V15.00,2013-06-20 13:42:00,
2013-06-20 09:43:00,91.6,52.9,30.18,East,84,0.0,0.0,27,0.00,,---,0.24,VWS V15.00,2013-06-20 13:43:00,
2013-06-20 09:44:00,91.8,53.1,30.18,East,84,0.0,0.0,27,0.00,,---,0.24,VWS V15.00,2013-06-20 13:44:00,
2013-06-20 09:45:00,91.4,51.7,30.18,SSE,166,2.7,2.7,26,0.00,,---,0.24,VWS V15.00,2013-06-20 13:45:00,
2013-06-20 09:46:00,92.1,53.4,30.21,SE,134,3.6,5.4,27,0.00,,---,0.24,VWS V14.01,2013-06-20 13:46:00,
2013-06-20 09:47:00,91.8,53.1,30.18,SSE,159,0.0,0.0,27,0.00,,---,0.24,VWS V15.00,2013-06-20 13:47:00,
2013-06-20 09:48:00,91.9,53.2,30.18,SSE,159,0.0,0.0,27,0.00,,---,0.24,VWS V15.00,2013-06-20 13:48:00,
2013-06-20 09:49:00,92.1,53.4,30.18,South,170,0.0,0.0,27,0.00,,---,0.24,VWS V15.00,2013-06-20 13:49:00,
2013-06-20 09:50:00,91.9,52.2,30.18,SSE,168,0.0,0.0,26,0.00,,---,0.24,VWS V15.00,2013-06-20 13:50:00,
2013-06-20 09:51:00,92.3,53.5,30.18,SE,126,0.0,0.0,27,0.00,,---,0.24,VWS V15.00,2013-06-20 13:51:00,
2013-06-20 09:52:00,93.0,54.1,30.21,SE,137,7.6,7.6,27,0.00,,---,0.24,VWS V14.01,2013-06-20 13:52:00,
2013-06-20 09:53:00,92.1,50.2,30.18,SE,143,3.1,3.6,24,0.00,,---,0.24,VWS V15.00,2013-06-20 13:53:00,
2013-06-20 09:54:00,92.1,50.2,30.18,SE,144,2.2,3.6,24,0.00,,---,0.24,VWS V15.00,2013-06-20 13:54:00,
2013-06-20 09:55:00,92.3,51.4,30.18,SE,144,0.0,2.2,25,0.00,,---,0.24,VWS V15.00,2013-06-20 13:55:00,
2013-06-20 09:56:00,92.8,54.0,30.18,SE,144,0.0,0.0,27,0.00,,---,0.24,VWS V15.00,2013-06-20 13:56:00,
2013-06-20 09:57:00,93.6,54.6,30.21,East,81,3.1,4.0,27,0.00,,---,0.24,VWS V14.01,2013-06-20 13:57:00,
2013-06-20 09:58:00,94.1,55.0,30.18,SE,144,0.0,0.0,27,0.00,,---,0.24,VWS V15.00,2013-06-20 13:58:00,
2013-06-20 09:59:00,94.1,51.8,30.18,SE,144,0.0,0.0,24,0.00,,---,0.24,VWS V15.00,2013-06-20 13:59:00,
2013-06-20 10:00:00,94.3,53.1,30.18,ESE,110,0.0,0.0,25,0.00,,---,0.24,VWS V15.00,2013-06-20 14:00:00,
2013-06-20 10:01:00,93.7,52.6,30.18,ESE,113,3.6,3.6,25,0.00,,---,0.24,VWS V15.00,2013-06-20 14:01:00,
2013-06-20 10:02:00,93.7,53.7,30.21,South,174,3.6,3.6,26,0.00,,---,0.24,VWS V14.01,2013-06-20 14:02:00,
2013-06-20 10:03:00,93.4,50.1,30.18,SE,132,3.1,3.6,23,0.00,,---,0.24,VWS V15.00,2013-06-20 14:03:00,
2013-06-20 10:04:00,92.3,50.3,30.18,South,169,4.0,4.0,24,0.00,,---,0.24,VWS V15.00,2013-06-20 14:04:00,
2013-06-20 10:05:00,92.7,50.6,30.18,South,169,2.2,4.0,24,0.00,,---,0.24,VWS V15.00,2013-06-20 14:05:00,
2013-06-20 10:06:00,92.8,54.0,30.18,South,169,0.0,2.2,27,0.00,,---,0.24,VWS V15.00,2013-06-20 14:06:00,
2013-06-20 10:07:00,94.1,55.0,30.21,ENE,60,3.1,3.1,27,0.00,,---,0.24,VWS V14.01,2013-06-20 14:07:00,
2013-06-20 10:08:00,93.2,53.2,30.18,ESE,116,2.2,4.0,26,0.00,,---,0.24,VWS V15.00,2013-06-20 14:08:00,
2013-06-20 10:09:00,93.7,53.7,30.18,SE,133,3.6,5.8,26,0.00,,---,0.24,VWS V15.00,2013-06-20 14:09:00,
2013-06-20 10:10:00,93.4,52.3,30.18,SE,136,4.9,4.9,25,0.00,,---,0.24,VWS V15.00,2013-06-20 14:10:00,
2013-06-20 10:11:00,93.0,52.0,30.18,SE,128,3.6,4.9,25,0.00,,---,0.24,VWS V15.00,2013-06-20 14:11:00,
2013-06-20 10:12:00,95.0,53.7,30.21,SE,139,3.6,6.3,25,0.00,,---,0.24,VWS V14.01,2013-06-20 14:12:00,
2013-06-20 10:13:00,94.3,53.1,30.18,ESE,118,0.0,2.2,25,0.00,,---,0.24,VWS V15.00,2013-06-20 14:13:00,
2013-06-20 10:14:00,94.3,55.2,30.18,ESE,118,0.0,0.0,27,0.00,,---,0.24,VWS V15.00,2013-06-20 14:14:00,
2013-06-20 10:15:00,94.6,55.5,30.18,SSE,167,0.0,0.0,27,0.00,,---,0.24,VWS V15.00,2013-06-20 14:15:00,
2013-06-20 10:16:00,93.9,53.9,30.18,WSW,237,0.0,2.2,26,0.00,,---,0.24,VWS V15.00,2013-06-20 14:16:00,
2013-06-20 10:17:00,93.9,50.5,30.21,SE,143,8.7,8.7,23,0.00,,---,0.24,VWS V14.01,2013-06-20 14:17:00,
2013-06-20 10:18:00,94.8,51.3,30.21,ESE,104,3.1,6.3,23,0.00,,---,0.24,VWS V15.00,2013-06-20 14:18:00,
2013-06-20 10:19:00,94.8,51.3,30.21,SE,135,5.4,6.7,23,0.00,,---,0.24,VWS V15.00,2013-06-20 14:19:00,
2013-06-20 10:20:00,94.6,52.3,30.21,ESE,120,3.1,5.4,24,0.00,,---,0.24,VWS V15.00,2013-06-20 14:20:00,
2013-06-20 10:21:00,94.3,53.1,30.21,ESE,123,4.5,5.8,25,0.00,,---,0.24,VWS V15.00,2013-06-20 14:21:00,
2013-06-20 10:22:00,93.6,49.0,30.21,SSE,149,4.9,5.8,22,0.00,,---,0.24,VWS V14.01,2013-06-20 14:22:00,
2013-06-20 10:23:00,94.8,53.5,30.21,SE,138,3.1,4.0,25,0.00,,---,0.24,VWS V15.00,2013-06-20 14:23:00,
2013-06-20 10:24:00,94.1,52.9,30.21,SE,139,3.1,3.1,25,0.00,,---,0.24,VWS V15.00,2013-06-20 14:24:00,
2013-06-20 10:25:00,94.1,54.0,30.21,SSE,154,3.6,4.5,26,0.00,,---,0.24,VWS V15.00,2013-06-20 14:25:00,
2013-06-20 10:26:00,94.1,51.8,30.21,ESE,102,2.7,3.6,24,0.00,,---,0.24,VWS V15.00,2013-06-20 14:26:00,
2013-06-20 10:27:00,94.3,48.4,30.21,SSE,164,5.4,5.4,21,0.00,,---,0.24,VWS V14.01,2013-06-20 14:27:00,
2013-06-20 10:28:00,94.1,52.9,30.21,East,99,6.7,6.7,25,0.00,,---,0.24,VWS V15.00,2013-06-20 14:28:00,
2013-06-20 10:29:00,94.1,52.9,30.21,SE,129,5.4,6.7,25,0.00,,---,0.24,VWS V15.00,2013-06-20 14:29:00,
2013-06-20 10:30:00,94.5,53.2,30.21,ESE,109,5.4,6.3,25,0.00,,---,0.24,VWS V15.00,2013-06-20 14:30:00,
2013-06-20 10:31:00,94.5,53.2,30.21,ESE,123,5.8,8.3,25,0.00,,---,0.24,VWS V15.00,2013-06-20 14:31:00,
2013-06-20 10:32:00,95.7,50.8,30.21,SSE,160,3.6,3.6,22,0.00,,---,0.24,VWS V14.01,2013-06-20 14:32:00,
2013-06-20 10:33:00,93.4,51.2,30.21,SSE,168,5.8,8.1,24,0.00,,---,0.24,VWS V15.00,2013-06-20 14:33:00,
2013-06-20 10:34:00,93.0,53.1,30.21,SSE,157,5.8,6.3,26,0.00,,---,0.24,VWS V15.00,2013-06-20 14:34:00,
2013-06-20 10:35:00,93.2,54.3,30.21,SSE,164,4.9,5.8,27,0.00,,---,0.24,VWS V15.00,2013-06-20 14:35:00,
2013-06-20 10:36:00,93.4,53.4,30.21,SE,138,5.4,5.4,26,0.00,,---,0.24,VWS V15.00,2013-06-20 14:36:00,
2013-06-20 10:37:00,96.1,47.2,30.21,SSW,208,2.7,3.6,19,0.00,,---,0.24,VWS V14.01,2013-06-20 14:37:00,
2013-06-20 10:40:00,91.8,53.1,30.21,SE,142,5.8,7.6,27,0.00,,---,0.24,VWS V15.00,2013-06-20 14:40:00,
2013-06-20 10:41:00,91.4,53.8,30.21,East,99,5.4,6.3,28,0.00,,---,0.24,VWS V15.00,2013-06-20 14:41:00,
2013-06-20 10:42:00,96.1,48.6,30.21,South,189,3.1,3.1,20,0.00,,---,0.24,VWS V14.01,2013-06-20 14:42:00,
2013-06-20 10:43:00,91.8,54.0,30.21,East,86,2.7,3.1,28,0.00,,---,0.24,VWS V15.00,2013-06-20 14:43:00,
2013-06-20 10:44:00,91.9,53.2,30.21,SSE,149,6.3,6.3,27,0.00,,---,0.24,VWS V15.00,2013-06-20 14:44:00,
2013-06-20 10:45:00,91.8,53.1,30.21,ESE,114,8.7,12.3,27,0.00,,---,0.24,VWS V15.00,2013-06-20 14:45:00,
2013-06-20 10:46:00,92.1,53.4,30.21,ESE,113,5.4,8.7,27,0.00,,---,0.24,VWS V15.00,2013-06-20 14:46:00,
2013-06-20 10:47:00,96.4,47.5,30.21,WSW,254,2.7,4.0,19,0.00,,---,0.24,VWS V14.01,2013-06-20 14:47:00,
2013-06-20 10:48:00,92.7,53.8,30.21,SE,133,4.5,5.8,27,0.00,,---,0.24,VWS V15.00,2013-06-20 14:48:00,
2013-06-20 10:49:00,92.8,54.0,30.21,SE,140,5.4,5.4,27,0.00,,---,0.24,VWS V15.00,2013-06-20 14:49:00,
2013-06-20 10:50:00,92.8,54.0,30.21,ESE,111,6.3,6.3,27,0.00,,---,0.24,VWS V15.00,2013-06-20 14:50:00,
2013-06-20 10:51:00,93.0,54.1,30.21,SSE,153,3.6,8.1,27,0.00,,---,0.24,VWS V15.00,2013-06-20 14:51:00,
2013-06-20 10:52:00,97.7,47.1,30.21,South,177,3.1,3.1,18,0.00,,---,0.24,VWS V14.01,2013-06-20 14:52:00,
2013-06-20 10:53:00,93.0,54.1,30.21,SSE,162,2.7,5.8,27,0.00,,---,0.24,VWS V15.00,2013-06-20 14:53:00,
2013-06-20 10:54:00,93.2,53.2,30.21,SE,126,5.4,7.6,26,0.00,,---,0.24,VWS V15.00,2013-06-20 14:54:00,
2013-06-20 10:55:00,93.2,53.2,30.21,SE,146,5.8,8.1,26,0.00,,---,0.24,VWS V15.00,2013-06-20 14:55:00,
2013-06-20 10:56:00,93.4,54.4,30.21,NE,55,3.1,5.8,27,0.00,,---,0.24,VWS V15.00,2013-06-20 14:56:00,
2013-06-20 10:57:00,96.8,46.3,30.21,South,169,4.0,4.0,18,0.00,,---,0.24,VWS V14.01,2013-06-20 14:57:00,
2013-06-20 10:58:00,93.4,54.4,30.21,SE,138,5.4,6.3,27,0.00,,---,0.24,VWS V15.00,2013-06-20 14:58:00,
2013-06-20 10:59:00,93.4,54.4,30.21,SE,137,4.9,6.3,27,0.00,,---,0.24,VWS V15.00,2013-06-20 14:59:00,
2013-06-20 11:00:00,93.7,54.7,30.21,South,175,4.9,6.3,27,0.00,,---,0.24,VWS V15.00,2013-06-20 15:00:00,
2013-06-20 11:01:00,93.7,52.6,30.21,SSE,161,3.1,4.9,25,0.00,,---,0.24,VWS V15.00,2013-06-20 15:01:00,
2013-06-20 11:02:00,94.1,52.9,30.21,ESE,117,4.0,4.0,25,0.00,,---,0.24,VWS V15.00,2013-06-20 15:02:00,
2013-06-20 11:03:00,99.0,50.9,30.21,South,175,3.1,3.1,20,0.00,,---,0.24,VWS V14.01,2013-06-20 15:03:00,
2013-06-20 11:04:00,94.8,52.4,30.21,SSE,158,6.3,7.6,24,0.00,,---,0.24,VWS V15.00,2013-06-20 15:04:00,
2013-06-20 11:05:00,95.0,52.6,30.21,ESE,116,3.6,6.3,24,0.00,,---,0.24,VWS V15.00,2013-06-20 15:05:00,
2013-06-20 11:06:00,95.4,52.9,30.21,NNE,13,3.1,3.6,24,0.00,,---,0.24,VWS V15.00,2013-06-20 15:06:00,
2013-06-20 11:07:00,94.1,55.0,30.21,SE,139,5.4,5.4,27,0.00,,---,0.24,VWS V15.00,2013-06-20 15:07:00,
2013-06-20 11:08:00,99.5,45.4,30.21,SSE,155,5.4,5.4,16,0.00,,---,0.24,VWS V14.01,2013-06-20 15:08:00,
2013-06-20 11:09:00,94.8,54.6,30.21,ESE,103,4.0,6.3,26,0.00,,---,0.24,VWS V15.00,2013-06-20 15:09:00,
2013-06-20 11:10:00,95.0,53.7,30.21,SE,124,3.1,5.8,25,0.00,,---,0.24,VWS V15.00,2013-06-20 15:10:00,
2013-06-20 11:11:00,94.8,52.4,30.21,East,89,6.3,6.7,24,0.00,,---,0.24,VWS V15.00,2013-06-20 15:11:00,
2013-06-20 11:12:00,95.0,53.7,30.21,SE,139,3.6,6.3,25,0.00,,---,0.24,VWS V15.00,2013-06-20 15:12:00,
2013-06-20 11:13:00,99.9,45.7,30.21,South,172,3.6,3.6,16,0.00,,---,0.24,VWS V14.01,2013-06-20 15:13:00,
2013-06-20 11:14:00,94.5,51.0,30.21,SE,128,6.3,8.7,23,0.00,,---,0.24,VWS V15.00,2013-06-20 15:14:00,
2013-06-20 11:15:00,94.3,50.8,30.21,SE,124,5.8,8.3,23,0.00,,---,0.24,VWS V15.00,2013-06-20 15:15:00,
2013-06-20 11:16:00,93.9,50.5,30.21,SE,135,6.3,8.1,23,0.00,,---,0.24,VWS V15.00,2013-06-20 15:16:00,
2013-06-20 11:17:00,93.9,50.5,30.21,SE,143,8.7,8.7,23,0.00,,---,0.24,VWS V15.00,2013-06-20 15:17:00,
2013-06-20 11:18:00,93.9,48.1,30.21,ESE,111,3.6,3.6,21,0.00,,---,0.24,VWS V14.01,2013-06-20 15:18:00,
2013-06-20 11:19:00,93.7,51.5,30.21,ESE,117,8.1,9.6,24,0.00,,---,0.24,VWS V15.00,2013-06-20 15:19:00,
2013-06-20 11:20:00,93.9,50.5,30.21,SE,143,6.3,8.7,23,0.00,,---,0.24,VWS V15.00,2013-06-20 15:20:00,
2013-06-20 11:21:00,94.3,53.1,30.21,ESE,117,4.0,6.3,25,0.00,,---,0.24,VWS V15.00,2013-06-20 15:21:00,
2013-06-20 11:22:00,93.6,49.0,30.21,SSE,149,4.9,5.8,22,0.00,,---,0.24,VWS V15.00,2013-06-20 15:22:00,
2013-06-20 11:23:00,91.9,48.9,30.21,SSE,155,4.0,4.5,23,0.00,,---,0.24,VWS V14.01,2013-06-20 15:23:00,
2013-06-20 11:24:00,94.1,49.5,30.21,ESE,105,4.0,5.4,22,0.00,,---,0.24,VWS V15.00,2013-06-20 15:24:00,
2013-06-20 11:25:00,94.1,48.2,30.21,SSE,162,4.9,5.8,21,0.00,,---,0.24,VWS V15.00,2013-06-20 15:25:00,
2013-06-20 11:26:00,94.1,48.2,30.21,South,170,4.0,4.9,21,0.00,,---,0.24,VWS V15.00,2013-06-20 15:26:00,
2013-06-20 11:27:00,94.3,48.4,30.21,SSE,164,5.4,5.4,21,0.00,,---,0.24,VWS V15.00,2013-06-20 15:27:00,
2013-06-20 11:28:00,90.1,49.6,30.21,South,174,2.7,4.9,25,0.00,,---,0.24,VWS V14.01,2013-06-20 15:28:00,
2013-06-20 11:29:00,94.8,51.3,30.21,SE,136,5.4,5.4,23,0.00,,---,0.24,VWS V15.00,2013-06-20 15:29:00,
2013-06-20 11:30:00,94.8,51.3,30.21,SE,136,5.4,5.4,23,0.00,,---,0.24,VWS V15.00,2013-06-20 15:30:00,
2013-06-20 11:31:00,95.4,50.5,30.21,SE,136,5.4,5.4,22,0.00,,---,0.24,VWS V15.00,2013-06-20 15:31:00,
2013-06-20 11:32:00,95.4,50.5,30.21,SSE,160,3.6,5.4,22,0.00,,---,0.24,VWS V15.00,2013-06-20 15:32:00,
2013-06-20 11:33:00,94.6,46.0,30.21,SE,135,3.1,6.3,19,0.00,,---,0.24,VWS V14.01,2013-06-20 15:33:00,
2013-06-20 11:34:00,95.0,47.7,30.21,South,185,4.9,5.4,20,0.00,,---,0.24,VWS V15.00,2013-06-20 15:34:00,
2013-06-20 11:35:00,95.5,48.1,30.21,SE,139,4.9,5.4,20,0.00,,---,0.24,VWS V15.00,2013-06-20 15:35:00,
2013-06-20 11:36:00,95.2,46.5,30.21,ESE,121,5.4,5.4,19,0.00,,---,0.24,VWS V15.00,2013-06-20 15:36:00,
2013-06-20 11:37:00,96.1,47.2,30.21,South,171,3.6,8.1,19,0.00,,---,0.24,VWS V15.00,2013-06-20 15:37:00,
2013-06-20 11:38:00,97.5,51.1,30.21,East,101,3.6,3.6,21,0.00,,---,0.24,VWS V14.01,2013-06-20 15:38:00,
2013-06-20 11:39:00,95.9,47.0,30.21,SSE,167,3.6,7.2,19,0.00,,---,0.24,VWS V15.00,2013-06-20 15:39:00,
2013-06-20 11:40:00,96.1,47.2,30.21,South,187,4.9,5.8,19,0.00,,---,0.24,VWS V15.00,2013-06-20 15:40:00,
2013-06-20 11:41:00,95.9,48.4,30.21,SE,127,2.2,4.9,20,0.00,,---,0.24,VWS V15.00,2013-06-20 15:41:00,
2013-06-20 11:42:00,96.1,48.6,30.21,SE,135,2.7,3.6,20,0.00,,---,0.24,VWS V15.00,2013-06-20 15:42:00,
2013-06-20 11:43:00,97.9,48.7,30.21,SSE,164,4.0,4.0,19,0.00,,---,0.24,VWS V14.01,2013-06-20 15:43:00,
2013-06-20 11:44:00,95.4,48.0,30.21,SSE,160,4.9,4.9,20,0.00,,---,0.24,VWS V15.00,2013-06-20 15:44:00,
2013-06-20 11:45:00,96.8,47.8,30.21,ESE,111,3.1,4.9,19,0.00,,---,0.24,VWS V15.00,2013-06-20 15:45:00,
2013-06-20 11:46:00,96.8,49.2,30.21,SE,144,4.0,4.0,20,0.00,,---,0.24,VWS V15.00,2013-06-20 15:46:00,
2013-06-20 11:47:00,96.4,47.5,30.21,WSW,254,2.7,4.0,19,0.00,,---,0.24,VWS V15.00,2013-06-20 15:47:00,
2013-06-20 11:48:00,97.9,48.7,30.21,SSE,161,4.9,6.7,19,0.00,,---,0.24,VWS V14.01,2013-06-20 15:48:00,
2013-06-20 11:49:00,96.6,49.0,30.21,SE,146,0.0,0.0,20,0.00,,---,0.24,VWS V15.00,2013-06-20 15:49:00,
2013-06-20 11:50:00,97.9,50.0,30.21,ESE,119,4.0,4.0,20,0.00,,---,0.24,VWS V15.00,2013-06-20 15:50:00,
2013-06-20 11:51:00,97.9,47.2,30.21,SE,127,3.6,6.3,18,0.00,,---,0.24,VWS V15.00,2013-06-20 15:51:00,
2013-06-20 11:52:00,97.9,47.2,30.21,SE,146,3.1,4.0,18,0.00,,---,0.24,VWS V15.00,2013-06-20 15:52:00,
2013-06-20 11:53:00,97.9,48.7,30.21,SE,127,5.4,5.4,19,0.00,,---,0.24,VWS V14.01,2013-06-20 15:53:00,
2013-06-20 11:54:00,97.2,46.6,30.21,SE,142,3.1,4.0,18,0.00,,---,0.24,VWS V15.00,2013-06-20 15:54:00,
2013-06-20 11:55:00,98.1,51.5,30.21,SE,144,3.6,3.6,21,0.00,,---,0.24,VWS V15.00,2013-06-20 15:55:00,
2013-06-20 11:56:00,97.2,46.6,30.21,SE,138,5.4,5.4,18,0.00,,---,0.24,VWS V15.00,2013-06-20 15:56:00,
2013-06-20 11:57:00,98.2,47.5,30.21,SSW,213,4.0,5.4,18,0.00,,---,0.24,VWS V15.00,2013-06-20 15:57:00,
2013-06-20 11:58:00,97.9,44.1,30.21,SSE,150,5.8,6.3,16,0.00,,---,0.24,VWS V14.01,2013-06-20 15:58:00,
2013-06-20 11:59:00,97.9,48.7,30.21,SSE,149,2.7,4.0,19,0.00,,---,0.24,VWS V15.00,2013-06-20 15:59:00,
2013-06-20 12:00:00,98.6,46.3,30.21,ESE,108,5.4,5.8,17,0.00,,---,0.24,VWS V15.00,2013-06-20 16:00:00,
2013-06-20 12:01:00,98.4,50.5,30.21,ESE,109,4.0,5.4,20,0.00,,---,0.24,VWS V15.00,2013-06-20 16:01:00,
2013-06-20 12:02:00,98.6,49.2,30.21,SE,140,0.0,4.0,19,0.00,,---,0.24,VWS V15.00,2013-06-20 16:02:00,
2013-06-20 12:03:00,96.3,42.8,30.21,South,181,2.7,2.7,16,0.00,,---,0.24,VWS V14.01,2013-06-20 16:03:00,
2013-06-20 12:04:00,99.3,48.4,30.21,South,176,0.0,3.1,18,0.00,,---,0.24,VWS V15.00,2013-06-20 16:04:00,
2013-06-20 12:05:00,99.5,47.0,30.21,SE,130,5.8,5.8,17,0.00,,---,0.24,VWS V15.00,2013-06-20 16:05:00,
2013-06-20 12:06:00,99.5,45.4,30.21,SE,133,3.6,8.1,16,0.00,,---,0.24,VWS V15.00,2013-06-20 16:06:00,
2013-06-20 12:07:00,99.5,45.4,30.21,SE,145,4.9,5.4,16,0.00,,---,0.24,VWS V15.00,2013-06-20 16:07:00,
2013-06-20 12:08:00,99.3,46.9,30.21,SSE,164,3.1,5.4,17,0.00,,---,0.24,VWS V15.00,2013-06-20 16:08:00,
2013-06-20 12:09:00,96.6,44.7,30.21,NNE,18,2.2,2.2,17,0.00,,---,0.24,VWS V14.01,2013-06-20 16:09:00,
2013-06-20 12:10:00,99.9,47.3,30.21,SSE,166,4.9,5.4,17,0.00,,---,0.24,VWS V15.00,2013-06-20 16:10:00,
2013-06-20 12:11:00,100.0,47.4,30.21,ESE,112,3.6,4.9,17,0.00,,---,0.24,VWS V15.00,2013-06-20 16:11:00,
2013-06-20 12:12:00,100.0,47.4,30.21,SSE,152,2.7,4.0,17,0.00,,---,0.24,VWS V15.00,2013-06-20 16:12:00,
2013-06-20 12:13:00,99.3,45.3,30.21,South,182,0.0,3.6,16,0.00,,---,0.24,VWS V15.00,2013-06-20 16:13:00,
2013-06-20 12:14:00,97.7,44.0,30.21,East,82,3.6,4.0,16,0.00,,---,0.24,VWS V14.01,2013-06-20 16:14:00,
2013-06-20 12:15:00,98.8,46.4,30.21,East,79,3.6,5.4,17,0.00,,---,0.24,VWS V15.00,2013-06-20 16:15:00,
2013-06-20 12:16:00,96.3,45.9,30.21,East,83,2.7,4.0,18,0.00,,---,0.24,VWS V15.00,2013-06-20 16:16:00,
2013-06-20 12:17:00,94.3,45.7,30.21,ENE,61,3.1,4.0,19,0.00,,---,0.24,VWS V15.00,2013-06-20 16:17:00,
2013-06-20 12:18:00,93.9,48.1,30.21,ESE,120,4.0,4.0,21,0.00,,---,0.24,VWS V15.00,2013-06-20 16:18:00,
2013-06-20 12:19:00,97.3,45.3,30.21,WSW,239,3.6,3.6,17,0.00,,---,0.24,VWS V14.01,2013-06-20 16:19:00,
2013-06-20 12:20:00,91.9,48.9,30.21,ESE,110,3.6,3.6,23,0.00,,---,0.24,VWS V15.00,2013-06-20 16:20:00,
2013-06-20 12:21:00,92.1,47.8,30.21,ENE,77,2.7,3.6,22,0.00,,---,0.24,VWS V15.00,2013-06-20 16:21:00,
2013-06-20 12:22:00,92.1,47.8,30.21,SE,142,3.6,4.5,22,0.00,,---,0.24,VWS V15.00,2013-06-20 16:22:00,
2013-06-20 12:23:00,91.9,48.9,30.21,SE,142,3.6,4.5,23,0.00,,---,0.24,VWS V15.00,2013-06-20 16:23:00,
2013-06-20 12:24:00,99.5,47.0,30.21,SW,216,0.0,3.1,17,0.00,,---,0.24,VWS V14.01,2013-06-20 16:24:00,
2013-06-20 12:25:00,91.2,49.4,30.21,ESE,115,6.3,6.3,24,0.00,,---,0.24,VWS V15.00,2013-06-20 16:25:00,
2013-06-20 12:26:00,90.9,48.0,30.21,SE,146,5.8,6.3,23,0.00,,---,0.24,VWS V15.00,2013-06-20 16:26:00,
2013-06-20 12:27:00,90.3,48.7,30.21,SE,132,4.9,5.8,24,0.00,,---,0.24,VWS V15.00,2013-06-20 16:27:00,
2013-06-20 12:28:00,90.1,49.6,30.21,South,174,2.7,4.9,25,0.00,,---,0.24,VWS V15.00,2013-06-20 16:28:00,
2013-06-20 12:29:00,100.2,46.0,30.21,WSW,243,2.2,2.7,16,0.00,,---,0.24,VWS V14.01,2013-06-20 16:29:00,
2013-06-20 12:30:00,93.2,54.3,30.21,ESE,105,0.0,2.2,27,0.00,,---,0.24,VWS V15.00,2013-06-20 16:30:00,
2013-06-20 12:31:00,93.7,53.7,30.21,ENE,77,2.2,2.2,26,0.00,,---,0.24,VWS V15.00,2013-06-20 16:31:00,
2013-06-20 12:32:00,94.1,47.0,30.21,South,173,5.8,5.8,20,0.00,,---,0.24,VWS V15.00,2013-06-20 16:32:00,
2013-06-20 12:33:00,94.6,46.0,30.21,SE,135,3.1,6.3,19,0.00,,---,0.24,VWS V15.00,2013-06-20 16:33:00,
2013-06-20 12:34:00,99.7,45.5,30.18,WSW,241,0.0,0.0,16,0.00,,---,0.24,VWS V14.01,2013-06-20 16:34:00,
2013-06-20 12:35:00,96.3,48.7,30.21,South,171,0.0,4.0,20,0.00,,---,0.24,VWS V15.00,2013-06-20 16:35:00,
2013-06-20 12:36:00,96.6,47.6,30.21,SE,136,2.2,3.1,19,0.00,,---,0.24,VWS V15.00,2013-06-20 16:36:00,
2013-06-20 12:37:00,97.0,50.6,30.21,ENE,59,2.2,5.8,21,0.00,,---,0.24,VWS V15.00,2013-06-20 16:37:00,
2013-06-20 12:38:00,97.0,50.6,30.21,East,101,3.6,3.6,21,0.00,,---,0.24,VWS V15.00,2013-06-20 16:38:00,
2013-06-20 12:39:00,97.9,44.1,30.18,South,187,3.1,6.3,16,0.00,,---,0.24,VWS V14.01,2013-06-20 16:39:00,
2013-06-20 12:40:00,97.9,48.7,30.21,East,90,2.7,5.8,19,0.00,,---,0.24,VWS V15.00,2013-06-20 16:40:00,
2013-06-20 12:41:00,97.9,48.7,30.21,ESE,119,2.7,4.0,19,0.00,,---,0.24,VWS V15.00,2013-06-20 16:41:00,
2013-06-20 12:42:00,97.9,48.7,30.21,East,99,3.6,5.4,19,0.00,,---,0.24,VWS V15.00,2013-06-20 16:42:00,
2013-06-20 12:43:00,97.9,48.7,30.21,SSE,164,4.0,4.9,19,0.00,,---,0.24,VWS V15.00,2013-06-20 16:43:00,
2013-06-20 12:44:00,98.6,44.7,30.18,WSW,242,0.0,0.0,16,0.00,,---,0.24,VWS V14.01,2013-06-20 16:44:00,
2013-06-20 12:45:00,97.9,48.7,30.21,South,187,0.0,5.4,19,0.00,,---,0.24,VWS V15.00,2013-06-20 16:45:00,
2013-06-20 12:46:00,97.9,48.7,30.21,SSE,165,3.1,3.1,19,0.00,,---,0.24,VWS V15.00,2013-06-20 16:46:00,
2013-06-20 12:47:00,97.9,48.7,30.21,South,182,3.6,3.6,19,0.00,,---,0.24,VWS V15.00,2013-06-20 16:47:00,
2013-06-20 12:48:00,97.9,48.7,30.21,ESE,115,6.7,6.7,19,0.00,,---,0.24,VWS V15.00,2013-06-20 16:48:00,
2013-06-20 12:49:00,99.1,45.1,30.21,SSE,158,5.4,5.4,16,0.00,,---,0.24,VWS V14.01,2013-06-20 16:49:00,
2013-06-20 12:50:00,97.9,48.7,30.21,SE,131,3.6,3.6,19,0.00,,---,0.24,VWS V15.00,2013-06-20 16:50:00,
2013-06-20 12:51:00,97.9,48.7,30.21,ESE,106,5.4,5.4,19,0.00,,---,0.24,VWS V15.00,2013-06-20 16:51:00,
2013-06-20 12:52:00,97.9,48.7,30.21,South,172,2.7,5.4,19,0.00,,---,0.24,VWS V15.00,2013-06-20 16:52:00,
2013-06-20 12:53:00,97.9,48.7,30.21,SE,131,3.6,3.6,19,0.00,,---,0.24,VWS V15.00,2013-06-20 16:53:00,
2013-06-20 12:54:00,98.6,44.7,30.21,SE,133,2.7,2.7,16,0.00,,---,0.24,VWS V14.01,2013-06-20 16:54:00,
2013-06-20 12:55:00,96.6,44.7,30.21,East,93,3.6,3.6,17,0.00,,---,0.24,VWS V15.00,2013-06-20 16:55:00,
2013-06-20 12:56:00,96.6,43.1,30.21,SE,133,2.7,3.6,16,0.00,,---,0.24,VWS V15.00,2013-06-20 16:56:00,
2013-06-20 12:57:00,96.6,43.1,30.21,ESE,117,2.7,2.7,16,0.00,,---,0.24,VWS V15.00,2013-06-20 16:57:00,
2013-06-20 12:58:00,96.6,43.1,30.21,ESE,117,6.3,6.3,16,0.00,,---,0.24,VWS V15.00,2013-06-20 16:58:00,
2013-06-20 12:59:00,99.1,45.1,30.21,ESE,114,0.0,0.0,16,0.00,,---,0.24,VWS V14.01,2013-06-20 16:59:00,
2013-06-20 13:00:00,97.9,44.1,30.21,SSE,165,4.0,5.4,16,0.00,,---,0.24,VWS V15.00,2013-06-20 17:00:00,
2013-06-20 13:01:00,97.9,44.1,30.21,SE,142,2.2,4.0,16,0.00,,---,0.24,VWS V15.00,2013-06-20 17:01:00,
2013-06-20 13:02:00,97.9,44.1,30.21,South,190,2.2,2.2,16,0.00,,---,0.24,VWS V15.00,2013-06-20 17:02:00,
2013-06-20 13:03:00,96.8,43.3,30.21,South,182,2.7,2.7,16,0.00,,---,0.24,VWS V15.00,2013-06-20 17:03:00,
2013-06-20 13:04:00,98.6,44.7,30.18,NE,54,2.2,2.7,16,0.00,,---,0.24,VWS V14.01,2013-06-20 17:04:00,
2013-06-20 13:05:00,96.6,44.7,30.21,SE,125,4.9,5.4,17,0.00,,---,0.24,VWS V15.00,2013-06-20 17:05:00,
2013-06-20 13:06:00,96.6,44.7,30.21,ESE,102,4.9,4.9,17,0.00,,---,0.24,VWS V15.00,2013-06-20 17:06:00,
2013-06-20 13:07:00,96.6,44.7,30.21,ESE,113,3.6,4.9,17,0.00,,---,0.24,VWS V15.00,2013-06-20 17:07:00,
2013-06-20 13:08:00,96.6,44.7,30.21,NNE,18,2.2,3.6,17,0.00,,---,0.24,VWS V15.00,2013-06-20 17:08:00,
2013-06-20 13:09:00,96.6,44.7,30.21,NNE,18,2.2,2.2,17,0.00,,---,0.24,VWS V15.00,2013-06-20 17:09:00,
2013-06-20 13:10:00,96.6,46.2,30.18,SSE,161,0.0,2.2,18,0.00,,---,0.24,VWS V14.01,2013-06-20 17:10:00,
2013-06-20 13:11:00,96.6,44.7,30.21,East,96,2.7,3.6,17,0.00,,---,0.24,VWS V15.00,2013-06-20 17:11:00,
2013-06-20 13:12:00,97.3,45.3,30.21,SE,139,3.6,3.6,17,0.00,,---,0.24,VWS V15.00,2013-06-20 17:12:00,
2013-06-20 13:13:00,97.3,43.7,30.21,SE,137,4.0,5.8,16,0.00,,---,0.24,VWS V15.00,2013-06-20 17:13:00,
2013-06-20 13:14:00,97.5,43.8,30.21,ENE,68,3.1,4.0,16,0.00,,---,0.24,VWS V15.00,2013-06-20 17:14:00,
2013-06-20 13:15:00,97.7,45.6,30.18,SE,127,2.7,3.6,17,0.00,,---,0.24,VWS V14.01,2013-06-20 17:15:00,
2013-06-20 13:16:00,97.0,45.0,30.21,ESE,120,2.7,5.8,17,0.00,,---,0.24,VWS V15.00,2013-06-20 17:16:00,
2013-06-20 13:17:00,96.8,44.8,30.21,SSE,156,2.2,2.7,17,0.00,,---,0.24,VWS V15.00,2013-06-20 17:17:00,
2013-06-20 13:18:00,97.0,45.0,30.21,South,181,2.2,2.2,17,0.00,,---,0.24,VWS V15.00,2013-06-20 17:18:00,
2013-06-20 13:19:00,97.3,45.3,30.21,SW,228,3.1,3.6,17,0.00,,---,0.24,VWS V15.00,2013-06-20 17:19:00,
2013-06-20 13:20:00,95.4,45.2,30.18,ESE,105,6.3,6.3,18,0.00,,---,0.24,VWS V14.01,2013-06-20 17:20:00,
2013-06-20 13:21:00,97.3,43.7,30.21,SSE,168,3.6,4.9,16,0.00,,---,0.24,VWS V15.00,2013-06-20 17:21:00,
2013-06-20 13:22:00,98.2,46.0,30.21,SSE,168,3.6,4.0,17,0.00,,---,0.24,VWS V15.00,2013-06-20 17:22:00,
2013-06-20 13:23:00,98.8,44.8,30.21,SSE,150,2.2,3.6,16,0.00,,---,0.24,VWS V15.00,2013-06-20 17:23:00,
2013-06-20 13:24:00,99.5,47.0,30.21,South,175,0.0,3.1,17,0.00,,---,0.24,VWS V15.00,2013-06-20 17:24:00,
2013-06-20 13:25:00,96.6,46.2,30.18,ESE,104,5.4,5.4,18,0.00,,---,0.24,VWS V14.01,2013-06-20 17:25:00,
2013-06-20 13:26:00,99.9,45.7,30.21,SSE,147,3.6,4.9,16,0.00,,---,0.24,VWS V15.00,2013-06-20 17:26:00,
2013-06-20 13:27:00,100.4,47.7,30.21,SE,133,3.1,3.6,17,0.00,,---,0.24,VWS V15.00,2013-06-20 17:27:00,
2013-06-20 13:28:00,100.4,44.4,30.21,SE,145,2.2,3.1,15,0.00,,---,0.24,VWS V15.00,2013-06-20 17:28:00,
2013-06-20 13:29:00,100.2,46.0,30.21,WSW,243,2.2,2.7,16,0.00,,---,0.24,VWS V15.00,2013-06-20 17:29:00,
2013-06-20 13:30:00,97.3,45.3,30.18,East,82,5.8,5.8,17,0.00,,---,0.24,VWS V14.01,2013-06-20 17:30:00,
2013-06-20 13:31:00,100.6,44.6,30.21,West,274,0.0,0.0,15,0.00,,---,0.24,VWS V15.00,2013-06-20 17:31:00,
2013-06-20 13:32:00,99.5,45.4,30.18,WSW,241,0.0,3.6,16,0.00,,---,0.24,VWS V15.00,2013-06-20 17:32:00,
2013-06-20 13:33:00,100.2,46.0,30.18,WSW,241,0.0,0.0,16,0.00,,---,0.24,VWS V15.00,2013-06-20 17:33:00,
2013-06-20 13:34:00,99.7,45.5,30.18,WSW,241,0.0,0.0,16,0.00,,---,0.24,VWS V15.00,2013-06-20 17:34:00,
2013-06-20 13:35:00,97.9,47.2,30.18,ENE,64,3.1,5.4,18,0.00,,---,0.24,VWS V14.01,2013-06-20 17:35:00,
2013-06-20 13:36:00,99.7,45.5,30.18,East,83,3.6,5.8,16,0.00,,---,0.24,VWS V15.00,2013-06-20 17:36:00,
2013-06-20 13:37:00,99.1,45.1,30.18,ESE,102,4.0,6.3,16,0.00,,---,0.24,VWS V15.00,2013-06-20 17:37:00,
2013-06-20 13:38:00,99.0,45.0,30.18,ESE,115,6.3,6.3,16,0.00,,---,0.24,VWS V15.00,2013-06-20 17:38:00,
2013-06-20 13:39:00,97.9,44.1,30.18,South,187,3.1,6.3,16,0.00,,---,0.24,VWS V15.00,2013-06-20 17:39:00,
2013-06-20 13:40:00,95.9,44.1,30.18,NE,54,4.0,4.0,17,0.00,,---,0.24,VWS V14.01,2013-06-20 17:40:00,
2013-06-20 13:41:00,98.4,46.2,30.18,East,96,0.0,3.6,17,0.00,,---,0.24,VWS V15.00,2013-06-20 17:41:00,
2013-06-20 13:42:00,98.6,44.7,30.18,SSE,156,3.6,3.6,16,0.00,,---,0.24,VWS V15.00,2013-06-20 17:42:00,
2013-06-20 13:43:00,99.0,45.0,30.18,South,189,4.0,5.4,16,0.00,,---,0.24,VWS V15.00,2013-06-20 17:43:00,
2013-06-20 13:44:00,99.0,45.0,30.18,SSW,208,0.0,4.0,16,0.00,,---,0.24,VWS V15.00,2013-06-20 17:44:00,
2013-06-20 13:45:00,95.9,44.1,30.18,North,7,2.7,3.1,17,0.00,,---,0.24,VWS V14.01,2013-06-20 17:45:00,
2013-06-20 13:46:00,98.4,44.5,30.18,West,270,2.2,3.1,16,0.00,,---,0.24,VWS V15.00,2013-06-20 17:46:00,
2013-06-20 13:47:00,99.1,45.1,30.18,East,85,3.1,3.1,16,0.00,,---,0.24,VWS V15.00,2013-06-20 17:47:00,
2013-06-20 13:48:00,99.0,45.0,30.21,ESE,119,3.6,4.9,16,0.00,,---,0.24,VWS V15.00,2013-06-20 17:48:00,
2013-06-20 13:49:00,99.1,45.1,30.21,SSE,167,4.0,5.4,16,0.00,,---,0.24,VWS V15.00,2013-06-20 17:49:00,
2013-06-20 13:50:00,92.7,45.8,30.18,East,80,3.1,3.1,20,0.00,,---,0.24,VWS V14.01,2013-06-20 17:50:00,
2013-06-20 13:51:00,99.1,45.1,30.21,ESE,111,5.8,5.8,16,0.00,,---,0.24,VWS V15.00,2013-06-20 17:51:00,
2013-06-20 13:52:00,98.1,45.9,30.21,East,100,0.0,5.8,17,0.00,,---,0.24,VWS V15.00,2013-06-20 17:52:00,
2013-06-20 13:53:00,98.1,47.4,30.21,SSE,164,2.7,2.7,18,0.00,,---,0.24,VWS V15.00,2013-06-20 17:53:00,
2013-06-20 13:54:00,98.6,44.7,30.21,East,98,2.2,4.0,16,0.00,,---,0.24,VWS V15.00,2013-06-20 17:54:00,
2013-06-20 13:55:00,92.7,45.8,30.18,ENE,64,5.8,5.8,20,0.00,,---,0.24,VWS V14.01,2013-06-20 17:55:00,
2013-06-20 13:56:00,99.0,45.0,30.21,SE,133,3.1,4.9,16,0.00,,---,0.24,VWS V15.00,2013-06-20 17:56:00,
2013-06-20 13:57:00,99.1,45.1,30.21,SE,146,2.2,3.6,16,0.00,,---,0.24,VWS V15.00,2013-06-20 17:57:00,
2013-06-20 13:58:00,99.1,45.1,30.21,SSE,152,4.9,4.9,16,0.00,,---,0.24,VWS V15.00,2013-06-20 17:58:00,
2013-06-20 13:59:00,99.3,45.3,30.21,ESE,114,0.0,4.9,16,0.00,,---,0.24,VWS V15.00,2013-06-20 17:59:00,
2013-06-20 14:00:00,92.7,45.8,30.18,ENE,77,4.5,4.5,20,0.00,,---,0.24,VWS V14.01,2013-06-20 18:00:00,
2013-06-20 14:01:00,99.3,45.3,30.21,West,264,3.1,4.9,16,0.00,,---,0.24,VWS V15.00,2013-06-20 18:01:00,
2013-06-20 14:02:00,99.1,46.7,30.18,SW,220,2.7,3.1,17,0.00,,---,0.24,VWS V15.00,2013-06-20 18:02:00,
2013-06-20 14:03:00,99.3,46.9,30.18,SW,235,2.2,2.7,17,0.00,,---,0.24,VWS V15.00,2013-06-20 18:03:00,
2013-06-20 14:04:00,99.5,45.4,30.18,North,350,2.7,4.0,16,0.00,,---,0.24,VWS V15.00,2013-06-20 18:04:00,
2013-06-20 14:05:00,97.5,48.4,30.18,ESE,113,5.4,5.4,19,0.00,,---,0.24,VWS V14.01,2013-06-20 18:05:00,
2013-06-20 14:06:00,96.1,44.3,30.18,ENE,67,4.5,4.9,17,0.00,,---,0.24,VWS V15.00,2013-06-20 18:06:00,
2013-06-20 14:07:00,96.1,44.3,30.18,ENE,68,0.0,4.5,17,0.00,,---,0.24,VWS V15.00,2013-06-20 18:07:00,
2013-06-20 14:08:00,96.4,46.1,30.18,South,169,5.4,6.3,18,0.00,,---,0.24,VWS V15.00,2013-06-20 18:08:00,
2013-06-20 14:09:00,96.8,44.8,30.18,SSE,161,2.2,5.4,17,0.00,,---,0.24,VWS V15.00,2013-06-20 18:09:00,
2013-06-20 14:10:00,96.3,45.9,30.18,SSE,160,0.0,2.2,18,0.00,,---,0.24,VWS V15.00,2013-06-20 18:10:00,
2013-06-20 14:11:00,99.3,46.9,30.18,East,88,4.9,8.3,17,0.00,,---,0.24,VWS V14.01,2013-06-20 18:11:00,
2013-06-20 14:12:00,97.0,45.0,30.18,SE,128,5.4,5.4,17,0.00,,---,0.24,VWS V15.00,2013-06-20 18:12:00,
2013-06-20 14:13:00,97.0,45.0,30.18,SE,124,3.6,5.4,17,0.00,,---,0.24,VWS V15.00,2013-06-20 18:13:00,
2013-06-20 14:14:00,97.5,45.4,30.18,ESE,109,3.6,4.9,17,0.00,,---,0.24,VWS V15.00,2013-06-20 18:14:00,
2013-06-20 14:15:00,97.7,47.1,30.18,SE,127,3.1,3.6,18,0.00,,---,0.24,VWS V15.00,2013-06-20 18:15:00,
2013-06-20 14:16:00,99.0,46.6,30.18,ESE,111,6.3,6.3,17,0.00,,---,0.24,VWS V14.01,2013-06-20 18:16:00,
2013-06-20 14:17:00,97.9,45.7,30.18,NE,44,3.1,4.9,17,0.00,,---,0.24,VWS V15.00,2013-06-20 18:17:00,
2013-06-20 14:18:00,96.6,44.7,30.18,East,79,4.0,4.0,17,0.00,,---,0.24,VWS V15.00,2013-06-20 18:18:00,
2013-06-20 14:19:00,95.5,45.3,30.18,NE,56,5.4,5.4,18,0.00,,---,0.24,VWS V15.00,2013-06-20 18:19:00,
2013-06-20 14:20:00,95.4,45.2,30.18,ENE,78,3.6,6.3,18,0.00,,---,0.24,VWS V15.00,2013-06-20 18:20:00,
2013-06-20 14:21:00,95.5,48.1,30.18,ENE,62,4.9,5.4,20,0.00,,---,0.24,VWS V14.01,2013-06-20 18:21:00,
2013-06-20 14:22:00,95.9,49.7,30.18,East,80,3.6,4.0,21,0.00,,---,0.24,VWS V15.00,2013-06-20 18:22:00,
2013-06-20 14:23:00,96.1,45.8,30.18,ENE,63,4.0,5.4,18,0.00,,---,0.24,VWS V15.00,2013-06-20 18:23:00,
2013-06-20 14:24:00,95.9,47.0,30.18,ENE,74,4.0,4.0,19,0.00,,---,0.24,VWS V15.00,2013-06-20 18:24:00,
2013-06-20 14:25:00,96.6,46.2,30.18,ESE,105,3.1,5.4,18,0.00,,---,0.24,VWS V15.00,2013-06-20 18:25:00,
2013-06-20 14:26:00,93.4,47.7,30.18,ESE,121,8.1,8.1,21,0.00,,---,0.24,VWS V14.01,2013-06-20 18:26:00,
2013-06-20 14:27:00,96.4,46.1,30.18,South,175,6.3,6.3,18,0.00,,---,0.24,VWS V15.00,2013-06-20 18:27:00,
2013-06-20 14:28:00,96.3,47.3,30.18,East,86,4.5,6.3,19,0.00,,---,0.24,VWS V15.00,2013-06-20 18:28:00,
2013-06-20 14:29:00,97.9,48.7,30.18,ESE,117,3.1,5.4,19,0.00,,---,0.24,VWS V15.00,2013-06-20 18:29:00,
2013-06-20 14:30:00,97.3,45.3,30.18,East,82,5.8,5.8,17,0.00,,---,0.24,VWS V15.00,2013-06-20 18:30:00,
2013-06-20 14:31:00,89.4,52.1,30.18,ENE,78,4.9,6.3,28,0.00,,---,0.24,VWS V14.01,2013-06-20 18:31:00,
2013-06-20 14:32:00,97.5,45.4,30.18,ESE,102,3.1,4.0,17,0.00,,---,0.24,VWS V15.00,2013-06-20 18:32:00,
2013-06-20 14:33:00,98.4,46.2,30.18,ENE,75,5.4,5.8,17,0.00,,---,0.24,VWS V15.00,2013-06-20 18:33:00,
2013-06-20 14:34:00,97.9,45.7,30.18,ENE,58,5.4,5.4,17,0.00,,---,0.24,VWS V15.00,2013-06-20 18:34:00,
2013-06-20 14:35:00,97.9,47.2,30.18,ENE,64,3.1,5.4,18,0.00,,---,0.24,VWS V15.00,2013-06-20 18:35:00,
2013-06-20 14:36:00,91.8,52.0,30.18,SE,124,4.0,6.3,26,0.00,,---,0.24,VWS V14.01,2013-06-20 18:36:00,
2013-06-20 14:37:00,97.7,45.6,30.18,ENE,61,3.6,3.6,17,0.00,,---,0.24,VWS V15.00,2013-06-20 18:37:00,
2013-06-20 14:38:00,97.7,45.6,30.18,East,88,2.7,4.0,17,0.00,,---,0.24,VWS V15.00,2013-06-20 18:38:00,
2013-06-20 14:39:00,97.2,45.1,30.18,ENE,58,3.1,3.1,17,0.00,,---,0.24,VWS V15.00,2013-06-20 18:39:00,
2013-06-20 14:40:00,95.9,44.1,30.18,NE,54,4.0,4.0,17,0.00,,---,0.24,VWS V15.00,2013-06-20 18:40:00,
2013-06-20 14:41:00,96.3,48.7,30.18,East,95,3.6,7.6,20,0.00,,---,0.24,VWS V14.01,2013-06-20 18:41:00,
2013-06-20 14:42:00,95.9,44.1,30.18,East,98,3.6,3.6,17,0.00,,---,0.24,VWS V15.00,2013-06-20 18:42:00,
2013-06-20 14:43:00,95.9,44.1,30.18,East,90,4.0,6.3,17,0.00,,---,0.24,VWS V15.00,2013-06-20 18:43:00,
2013-06-20 14:44:00,95.9,44.1,30.18,ENE,76,3.1,4.0,17,0.00,,---,0.24,VWS V15.00,2013-06-20 18:44:00,
2013-06-20 14:45:00,95.9,44.1,30.18,North,7,2.7,3.1,17,0.00,,---,0.24,VWS V15.00,2013-06-20 18:45:00,
2013-06-20 14:46:00,93.2,47.5,30.18,East,91,8.1,8.1,21,0.00,,---,0.24,VWS V14.01,2013-06-20 18:46:00,
2013-06-20 14:47:00,95.9,44.1,30.18,ENE,65,3.6,4.0,17,0.00,,---,0.24,VWS V15.00,2013-06-20 18:47:00,
2013-06-20 14:48:00,95.9,44.1,30.18,ENE,76,2.7,3.6,17,0.00,,---,0.24,VWS V15.00,2013-06-20 18:48:00,
2013-06-20 14:49:00,92.7,45.8,30.18,East,91,3.1,3.6,20,0.00,,---,0.24,VWS V15.00,2013-06-20 18:49:00,
2013-06-20 14:50:00,92.7,45.8,30.18,East,91,2.7,3.1,20,0.00,,---,0.24,VWS V15.00,2013-06-20 18:50:00,
2013-06-20 14:51:00,95.4,48.0,30.18,ESE,122,3.1,3.6,20,0.00,,---,0.24,VWS V14.01,2013-06-20 18:51:00,
2013-06-20 14:52:00,92.7,45.8,30.18,NE,54,2.2,3.1,20,0.00,,---,0.24,VWS V15.00,2013-06-20 18:52:00,
2013-06-20 14:53:00,92.7,45.8,30.18,ENE,69,0.0,3.1,20,0.00,,---,0.24,VWS V15.00,2013-06-20 18:53:00,
2013-06-20 14:54:00,92.7,45.8,30.18,East,79,2.7,2.7,20,0.00,,---,0.24,VWS V15.00,2013-06-20 18:54:00,
2013-06-20 14:55:00,92.7,45.8,30.18,NE,53,5.8,5.8,20,0.00,,---,0.24,VWS V15.00,2013-06-20 18:55:00,
2013-06-20 14:56:00,94.3,47.1,30.18,ESE,105,5.8,6.3,20,0.00,,---,0.24,VWS V14.01,2013-06-20 18:56:00,
2013-06-20 14:57:00,92.7,45.8,30.18,ENE,72,6.3,6.3,20,0.00,,---,0.24,VWS V15.00,2013-06-20 18:57:00,
2013-06-20 14:58:00,92.7,45.8,30.18,SE,133,5.8,6.3,20,0.00,,---,0.24,VWS V15.00,2013-06-20 18:58:00,
2013-06-20 14:59:00,92.7,45.8,30.18,ESE,103,4.0,6.7,20,0.00,,---,0.24,VWS V15.00,2013-06-20 18:59:00,
2013-06-20 15:00:00,92.7,45.8,30.18,East,87,3.6,4.0,20,0.00,,---,0.24,VWS V15.00,2013-06-20 19:00:00,
2013-06-20 15:01:00,93.2,47.5,30.18,SE,136,8.1,8.1,21,0.00,,---,0.24,VWS V14.01,2013-06-20 19:01:00,
2013-06-20 15:02:00,92.7,45.8,30.18,SSE,166,7.6,8.3,20,0.00,,---,0.24,VWS V15.00,2013-06-20 19:02:00,
2013-06-20 15:03:00,92.7,45.8,30.18,ESE,110,5.8,7.6,20,0.00,,---,0.24,VWS V15.00,2013-06-20 19:03:00,
2013-06-20 15:04:00,92.7,45.8,30.18,ENE,67,3.1,5.8,20,0.00,,---,0.24,VWS V15.00,2013-06-20 19:04:00,
2013-06-20 15:05:00,92.7,45.8,30.18,ESE,118,0.0,3.1,20,0.00,,---,0.24,VWS V15.00,2013-06-20 19:05:00,
2013-06-20 15:06:00,93.2,47.5,30.18,East,100,8.1,8.1,21,0.00,,---,0.24,VWS V14.01,2013-06-20 19:06:00,
2013-06-20 15:07:00,97.5,48.4,30.18,ESE,111,4.9,6.3,19,0.00,,---,0.24,VWS V15.00,2013-06-20 19:07:00,
2013-06-20 15:08:00,97.5,48.4,30.18,ESE,102,4.0,4.9,19,0.00,,---,0.24,VWS V15.00,2013-06-20 19:08:00,
2013-06-20 15:09:00,97.5,48.4,30.18,SSE,165,4.0,6.3,19,0.00,,---,0.24,VWS V15.00,2013-06-20 19:09:00,
2013-06-20 15:10:00,99.3,46.9,30.18,ESE,105,8.3,8.7,17,0.00,,---,0.24,VWS V15.00,2013-06-20 19:10:00,
2013-06-20 15:11:00,99.3,46.9,30.18,East,98,5.8,8.3,17,0.00,,---,0.24,VWS V15.00,2013-06-20 19:11:00,
2013-06-20 15:12:00,96.4,47.5,30.15,SE,129,6.3,8.7,19,0.00,,---,0.24,VWS V14.01,2013-06-20 19:12:00,
2013-06-20 15:13:00,98.4,46.2,30.18,SE,140,6.3,8.1,17,0.00,,---,0.24,VWS V15.00,2013-06-20 19:13:00,
2013-06-20 15:14:00,98.4,46.2,30.18,SE,131,4.0,7.2,17,0.00,,---,0.24,VWS V15.00,2013-06-20 19:14:00,
2013-06-20 15:15:00,98.6,46.3,30.18,ESE,120,5.8,5.8,17,0.00,,---,0.24,VWS V15.00,2013-06-20 19:15:00,
2013-06-20 15:16:00,98.6,46.3,30.18,ESE,120,5.8,6.3,17,0.00,,---,0.24,VWS V15.00,2013-06-20 19:16:00,
2013-06-20 15:17:00,97.7,45.6,30.15,East,99,8.3,8.3,17,0.00,,---,0.24,VWS V14.01,2013-06-20 19:17:00,
2013-06-20 15:18:00,99.1,46.7,30.18,East,93,3.6,8.7,17,0.00,,---,0.24,VWS V15.00,2013-06-20 19:18:00,
2013-06-20 15:19:00,97.7,47.1,30.18,East,93,3.6,3.6,18,0.00,,---,0.24,VWS V15.00,2013-06-20 19:19:00,
2013-06-20 15:20:00,97.7,48.5,30.18,ENE,73,5.4,5.8,19,0.00,,---,0.24,VWS V15.00,2013-06-20 19:20:00,
2013-06-20 15:21:00,95.5,48.1,30.18,ESE,103,5.4,5.4,20,0.00,,---,0.24,VWS V15.00,2013-06-20 19:21:00,
2013-06-20 15:22:00,97.7,45.6,30.15,SE,127,6.3,8.1,17,0.00,,---,0.24,VWS V14.01,2013-06-20 19:22:00,
2013-06-20 15:23:00,95.2,49.1,30.18,SSE,167,5.4,5.8,21,0.00,,---,0.24,VWS V15.00,2013-06-20 19:23:00,
2013-06-20 15:24:00,94.1,48.2,30.18,ESE,116,4.0,5.4,21,0.00,,---,0.24,VWS V15.00,2013-06-20 19:24:00,
2013-06-20 15:25:00,93.9,49.3,30.18,SE,131,4.9,5.8,22,0.00,,---,0.24,VWS V15.00,2013-06-20 19:25:00,
2013-06-20 15:26:00,93.4,47.7,30.18,SE,128,5.4,8.1,21,0.00,,---,0.24,VWS V15.00,2013-06-20 19:26:00,
2013-06-20 15:27:00,97.7,45.6,30.15,ESE,111,8.3,8.3,17,0.00,,---,0.24,VWS V14.01,2013-06-20 19:27:00,
2013-06-20 15:28:00,92.1,49.0,30.18,SSE,161,6.3,8.3,23,0.00,,---,0.24,VWS V15.00,2013-06-20 19:28:00,
2013-06-20 15:29:00,91.4,49.6,30.18,East,97,4.9,6.3,24,0.00,,---,0.24,VWS V15.00,2013-06-20 19:29:00,
2013-06-20 15:30:00,90.0,51.5,30.18,East,81,3.6,6.7,27,0.00,,---,0.24,VWS V15.00,2013-06-20 19:30:00,
2013-06-20 15:31:00,89.4,52.1,30.18,ENE,78,4.9,6.3,28,0.00,,---,0.24,VWS V15.00,2013-06-20 19:31:00,
2013-06-20 15:32:00,96.4,46.1,30.15,SE,137,5.8,7.6,18,0.00,,---,0.24,VWS V14.01,2013-06-20 19:32:00,
2013-06-20 15:33:00,91.0,54.4,30.18,ENE,58,5.4,6.3,29,0.00,,---,0.24,VWS V15.00,2013-06-20 19:33:00,
2013-06-20 15:34:00,91.8,52.0,30.18,ENE,57,4.0,7.6,26,0.00,,---,0.24,VWS V15.00,2013-06-20 19:34:00,
2013-06-20 15:35:00,91.8,52.0,30.18,East,88,6.3,6.3,26,0.00,,---,0.24,VWS V15.00,2013-06-20 19:35:00,
2013-06-20 15:36:00,91.8,52.0,30.18,SE,124,4.0,6.3,26,0.00,,---,0.24,VWS V15.00,2013-06-20 19:36:00,
2013-06-20 15:37:00,97.3,45.3,30.15,SE,128,7.6,8.1,17,0.00,,---,0.24,VWS V14.01,2013-06-20 19:37:00,
2013-06-20 15:38:00,91.8,52.0,30.18,ENE,76,8.1,8.1,26,0.00,,---,0.24,VWS V15.00,2013-06-20 19:38:00,
2013-06-20 15:39:00,93.4,50.1,30.18,SE,125,5.8,8.1,23,0.00,,---,0.24,VWS V15.00,2013-06-20 19:39:00,
2013-06-20 15:40:00,94.8,51.3,30.18,ESE,102,5.8,5.8,23,0.00,,---,0.24,VWS V15.00,2013-06-20 19:40:00,
2013-06-20 15:41:00,96.3,48.7,30.18,East,95,3.6,7.6,20,0.00,,---,0.24,VWS V15.00,2013-06-20 19:41:00,
2013-06-20 15:42:00,96.8,44.8,30.15,ESE,109,5.4,8.7,17,0.00,,---,0.24,VWS V14.01,2013-06-20 19:42:00,
2013-06-20 15:43:00,94.6,48.7,30.18,East,96,4.9,8.1,21,0.00,,---,0.24,VWS V15.00,2013-06-20 19:43:00,
2013-06-20 15:44:00,94.6,53.4,30.18,ENE,71,4.0,5.8,25,0.00,,---,0.24,VWS V15.00,2013-06-20 19:44:00,
2013-06-20 15:45:00,94.5,53.2,30.18,NE,47,4.9,7.6,25,0.00,,---,0.24,VWS V15.00,2013-06-20 19:45:00,
2013-06-20 15:46:00,94.3,53.1,30.18,East,89,8.1,8.1,25,0.00,,---,0.24,VWS V15.00,2013-06-20 19:46:00,
2013-06-20 15:47:00,95.4,48.0,30.15,NE,48,5.8,5.8,20,0.00,,---,0.24,VWS V14.01,2013-06-20 19:47:00,
2013-06-20 15:48:00,95.5,49.4,30.18,East,83,8.3,8.3,21,0.00,,---,0.24,VWS V15.00,2013-06-20 19:48:00,
2013-06-20 15:49:00,95.4,48.0,30.18,ESE,110,4.0,8.3,20,0.00,,---,0.24,VWS V15.00,2013-06-20 19:49:00,
2013-06-20 15:50:00,95.4,48.0,30.18,ENE,75,5.8,5.8,20,0.00,,---,0.24,VWS V15.00,2013-06-20 19:50:00,
2013-06-20 15:51:00,95.4,48.0,30.18,SE,138,3.6,6.3,20,0.00,,---,0.24,VWS V15.00,2013-06-20 19:51:00,
2013-06-20 15:52:00,95.9,47.0,30.15,SSE,148,4.0,4.0,19,0.00,,---,0.24,VWS V14.01,2013-06-20 19:52:00,
2013-06-20 15:53:00,95.4,48.0,30.18,ENE,61,5.8,6.3,20,0.00,,---,0.24,VWS V15.00,2013-06-20 19:53:00,
2013-06-20 15:54:00,94.6,48.7,30.18,ENE,72,7.6,7.6,21,0.00,,---,0.24,VWS V15.00,2013-06-20 19:54:00,
2013-06-20 15:55:00,94.6,48.7,30.18,ENE,73,5.4,8.3,21,0.00,,---,0.24,VWS V15.00,2013-06-20 19:55:00,
2013-06-20 15:56:00,94.3,47.1,30.18,East,91,6.3,6.3,20,0.00,,---,0.24,VWS V15.00,2013-06-20 19:56:00,
2013-06-20 15:57:00,94.3,45.7,30.15,ESE,109,4.0,6.3,19,0.00,,---,0.24,VWS V14.01,2013-06-20 19:57:00,
2013-06-20 15:58:00,93.2,47.5,30.18,East,79,6.3,6.3,21,0.00,,---,0.24,VWS V15.00,2013-06-20 19:58:00,
2013-06-20 15:59:00,93.2,47.5,30.18,ESE,102,8.3,8.3,21,0.00,,---,0.24,VWS V15.00,2013-06-20 19:59:00,
2013-06-20 16:00:00,93.2,47.5,30.18,ESE,112,4.9,8.3,21,0.00,,---,0.24,VWS V15.00,2013-06-20 20:00:00,
2013-06-20 16:01:00,93.2,47.5,30.18,SSW,196,7.6,7.6,21,0.00,,---,0.24,VWS V15.00,2013-06-20 20:01:00,
2013-06-20 16:02:00,90.9,50.2,30.15,ESE,108,6.3,7.6,25,0.00,,---,0.24,VWS V14.01,2013-06-20 20:02:00,
2013-06-20 16:03:00,93.2,47.5,30.18,SE,130,4.5,5.8,21,0.00,,---,0.24,VWS V15.00,2013-06-20 20:03:00,
2013-06-20 16:04:00,93.2,47.5,30.18,SE,129,8.1,8.1,21,0.00,,---,0.24,VWS V15.00,2013-06-20 20:04:00,
2013-06-20 16:05:00,93.2,47.5,30.18,ESE,119,5.8,8.1,21,0.00,,---,0.24,VWS V15.00,2013-06-20 20:05:00,
2013-06-20 16:06:00,93.2,47.5,30.18,ESE,117,6.3,6.3,21,0.00,,---,0.24,VWS V15.00,2013-06-20 20:06:00,
2013-06-20 16:07:00,93.2,47.5,30.18,ENE,68,3.6,8.1,21,0.00,,---,0.24,VWS V15.00,2013-06-20 20:07:00,
2013-06-20 16:08:00,88.3,51.1,30.15,SSE,166,5.8,5.8,28,0.00,,---,0.24,VWS V14.01,2013-06-20 20:08:00,
2013-06-20 16:09:00,96.4,47.5,30.18,ESE,116,8.7,8.7,19,0.00,,---,0.24,VWS V15.00,2013-06-20 20:09:00,
2013-06-20 16:10:00,96.4,47.5,30.18,ESE,116,4.0,8.7,19,0.00,,---,0.24,VWS V15.00,2013-06-20 20:10:00,
2013-06-20 16:11:00,96.4,47.5,30.15,ESE,119,8.7,8.7,19,0.00,,---,0.24,VWS V15.00,2013-06-20 20:11:00,
2013-06-20 16:12:00,96.4,47.5,30.15,ESE,120,4.9,8.7,19,0.00,,---,0.24,VWS V15.00,2013-06-20 20:12:00,
2013-06-20 16:13:00,87.4,51.3,30.15,ESE,117,3.1,6.3,29,0.00,,---,0.24,VWS V14.01,2013-06-20 20:13:00,
2013-06-20 16:14:00,97.3,45.3,30.15,ESE,114,6.3,6.3,17,0.00,,---,0.24,VWS V15.00,2013-06-20 20:14:00,
2013-06-20 16:15:00,97.7,45.6,30.15,SSE,157,9.2,9.2,17,0.00,,---,0.24,VWS V15.00,2013-06-20 20:15:00,
2013-06-20 16:16:00,97.7,45.6,30.15,SE,135,7.6,9.2,17,0.00,,---,0.24,VWS V15.00,2013-06-20 20:16:00,
2013-06-20 16:17:00,97.7,45.6,30.15,SE,145,5.8,8.3,17,0.00,,---,0.24,VWS V15.00,2013-06-20 20:17:00,
2013-06-20 16:18:00,87.1,51.0,30.15,SSE,152,8.3,8.3,29,0.00,,---,0.24,VWS V14.01,2013-06-20 20:18:00,
2013-06-20 16:19:00,97.5,46.9,30.15,ESE,116,5.8,6.3,18,0.00,,---,0.24,VWS V15.00,2013-06-20 20:19:00,
2013-06-20 16:20:00,97.7,45.6,30.15,ESE,109,8.1,8.1,17,0.00,,---,0.24,VWS V15.00,2013-06-20 20:20:00,
2013-06-20 16:21:00,97.7,45.6,30.15,ENE,59,6.3,8.1,17,0.00,,---,0.24,VWS V15.00,2013-06-20 20:21:00,
2013-06-20 16:22:00,97.3,45.3,30.15,ESE,102,5.8,8.1,17,0.00,,---,0.24,VWS V15.00,2013-06-20 20:22:00,
2013-06-20 16:23:00,86.7,50.7,30.15,SE,139,5.4,6.3,29,0.00,,---,0.24,VWS V14.01,2013-06-20 20:23:00,
2013-06-20 16:24:00,97.0,45.0,30.15,SE,127,5.4,8.1,17,0.00,,---,0.24,VWS V15.00,2013-06-20 20:24:00,
2013-06-20 16:25:00,97.3,45.3,30.15,ESE,105,8.1,10.5,17,0.00,,---,0.24,VWS V15.00,2013-06-20 20:25:00,
2013-06-20 16:26:00,97.7,45.6,30.15,East,86,6.3,10.1,17,0.00,,---,0.24,VWS V15.00,2013-06-20 20:26:00,
2013-06-20 16:27:00,97.7,45.6,30.15,SE,130,9.6,9.6,17,0.00,,---,0.24,VWS V15.00,2013-06-20 20:27:00,
2013-06-20 16:28:00,86.5,50.5,30.15,ESE,119,4.9,6.3,29,0.00,,---,0.24,VWS V14.01,2013-06-20 20:28:00,
2013-06-20 16:29:00,97.7,45.6,30.15,SE,129,3.1,10.1,17,0.00,,---,0.24,VWS V15.00,2013-06-20 20:29:00,
2013-06-20 16:30:00,96.8,44.8,30.15,SE,127,5.8,8.1,17,0.00,,---,0.24,VWS V15.00,2013-06-20 20:30:00,
2013-06-20 16:31:00,96.8,44.8,30.15,East,100,3.6,8.1,17,0.00,,---,0.24,VWS V15.00,2013-06-20 20:31:00,
2013-06-20 16:32:00,96.4,46.1,30.15,SE,137,5.8,7.6,18,0.00,,---,0.24,VWS V15.00,2013-06-20 20:32:00,
2013-06-20 16:33:00,86.7,51.6,30.15,ESE,111,3.6,5.4,30,0.00,,---,0.24,VWS V14.01,2013-06-20 20:33:00,
2013-06-20 16:34:00,97.0,46.5,30.15,SSE,161,3.6,7.6,18,0.00,,---,0.24,VWS V15.00,2013-06-20 20:34:00,
2013-06-20 16:35:00,97.5,46.9,30.15,ESE,112,4.0,6.3,18,0.00,,---,0.24,VWS V15.00,2013-06-20 20:35:00,
2013-06-20 16:36:00,97.3,45.3,30.15,East,80,5.8,6.3,17,0.00,,---,0.24,VWS V15.00,2013-06-20 20:36:00,
2013-06-20 16:37:00,97.3,45.3,30.15,ESE,110,6.3,8.1,17,0.00,,---,0.24,VWS V15.00,2013-06-20 20:37:00,
2013-06-20 16:38:00,86.7,51.6,30.15,ESE,107,2.7,5.4,30,0.00,,---,0.24,VWS V14.01,2013-06-20 20:38:00,
2013-06-20 16:39:00,97.2,45.1,30.15,SE,124,5.4,8.1,17,0.00,,---,0.24,VWS V15.00,2013-06-20 20:39:00,
2013-06-20 16:40:00,97.0,46.5,30.15,SSE,163,7.2,9.6,18,0.00,,---,0.24,VWS V15.00,2013-06-20 20:40:00,
2013-06-20 16:41:00,96.8,44.8,30.15,ESE,110,8.1,8.7,17,0.00,,---,0.24,VWS V15.00,2013-06-20 20:41:00,
2013-06-20 16:42:00,96.8,44.8,30.15,ESE,109,5.4,8.7,17,0.00,,---,0.24,VWS V15.00,2013-06-20 20:42:00,
2013-06-20 16:43:00,86.9,50.8,30.15,SSE,165,5.8,7.6,29,0.00,,---,0.24,VWS V14.01,2013-06-20 20:43:00,
2013-06-20 16:44:00,96.8,49.2,30.15,ENE,75,5.8,8.3,20,0.00,,---,0.24,VWS V15.00,2013-06-20 20:44:00,
2013-06-20 16:45:00,94.8,48.8,30.15,ESE,102,4.0,8.3,21,0.00,,---,0.24,VWS V15.00,2013-06-20 20:45:00,
2013-06-20 16:46:00,95.7,48.3,30.15,ESE,108,3.1,8.3,20,0.00,,---,0.24,VWS V15.00,2013-06-20 20:46:00,
2013-06-20 16:47:00,96.4,47.5,30.15,ESE,105,5.4,9.2,19,0.00,,---,0.24,VWS V15.00,2013-06-20 20:47:00,
2013-06-20 16:48:00,86.7,50.7,30.15,SSE,160,4.9,4.9,29,0.00,,---,0.24,VWS V14.01,2013-06-20 20:48:00,
2013-06-20 16:49:00,95.0,51.4,30.15,ESE,119,6.3,8.1,23,0.00,,---,0.24,VWS V15.00,2013-06-20 20:49:00,
2013-06-20 16:50:00,95.7,46.9,30.15,ESE,122,2.7,6.3,19,0.00,,---,0.24,VWS V15.00,2013-06-20 20:50:00,
2013-06-20 16:51:00,96.3,45.9,30.15,East,84,8.1,8.7,18,0.00,,---,0.24,VWS V15.00,2013-06-20 20:51:00,
2013-06-20 16:52:00,95.9,47.0,30.15,SSE,164,4.0,8.1,19,0.00,,---,0.24,VWS V15.00,2013-06-20 20:52:00,
2013-06-20 16:53:00,86.4,49.4,30.15,SSW,205,0.0,0.0,28,0.00,,---,0.24,VWS V14.01,2013-06-20 20:53:00,
2013-06-20 16:54:00,95.2,47.8,30.15,SSE,161,2.7,5.8,20,0.00,,---,0.24,VWS V15.00,2013-06-20 20:54:00,
2013-06-20 16:55:00,95.5,46.8,30.15,South,171,3.1,4.0,19,0.00,,---,0.24,VWS V15.00,2013-06-20 20:55:00,
2013-06-20 16:56:00,95.4,45.2,30.15,ESE,108,6.3,8.3,18,0.00,,---,0.24,VWS V15.00,2013-06-20 20:56:00,
2013-06-20 16:57:00,94.3,45.7,30.15,SSE,157,6.3,8.3,19,0.00,,---,0.24,VWS V15.00,2013-06-20 20:57:00,
2013-06-20 16:58:00,85.6,45.8,30.15,WSW,240,0.0,0.0,25,0.00,,---,0.24,VWS V14.01,2013-06-20 20:58:00,
2013-06-20 16:59:00,92.8,47.2,30.15,East,92,8.3,10.5,21,0.00,,---,0.24,VWS V15.00,2013-06-20 20:59:00,
2013-06-20 17:00:00,92.3,49.2,30.15,East,85,3.6,8.3,23,0.00,,---,0.24,VWS V15.00,2013-06-20 21:00:00,
2013-06-20 17:01:00,91.6,49.7,30.15,ESE,122,6.3,6.3,24,0.00,,---,0.24,VWS V15.00,2013-06-20 21:01:00,
2013-06-20 17:02:00,90.9,50.2,30.15,SE,128,6.3,6.3,25,0.00,,---,0.24,VWS V15.00,2013-06-20 21:02:00,
2013-06-20 17:03:00,85.1,46.4,30.15,SSW,209,0.0,0.0,26,0.00,,---,0.24,VWS V14.01,2013-06-20 21:03:00,
2013-06-20 17:04:00,89.8,50.4,30.15,ENE,60,5.4,6.3,26,0.00,,---,0.24,VWS V15.00,2013-06-20 21:04:00,
2013-06-20 17:05:00,89.2,51.9,30.15,SE,137,5.8,5.8,28,0.00,,---,0.24,VWS V15.00,2013-06-20 21:05:00,
2013-06-20 17:06:00,89.1,51.8,30.15,SE,129,5.4,5.8,28,0.00,,---,0.24,VWS V15.00,2013-06-20 21:06:00,
2013-06-20 17:07:00,88.5,51.3,30.15,SE,133,3.1,7.6,28,0.00,,---,0.24,VWS V15.00,2013-06-20 21:07:00,
2013-06-20 17:08:00,88.2,51.0,30.15,SSE,159,5.4,7.2,28,0.00,,---,0.24,VWS V15.00,2013-06-20 21:08:00,
2013-06-20 17:09:00,85.1,48.4,30.15,South,187,0.0,0.0,28,0.00,,---,0.24,VWS V14.01,2013-06-20 21:09:00,
2013-06-20 17:10:00,87.8,50.7,30.15,ESE,117,3.6,5.8,28,0.00,,---,0.24,VWS V15.00,2013-06-20 21:10:00,
2013-06-20 17:11:00,87.6,51.5,30.15,SE,127,5.4,5.4,29,0.00,,---,0.24,VWS V15.00,2013-06-20 21:11:00,
2013-06-20 17:12:00,87.4,51.3,30.15,ESE,109,6.3,6.3,29,0.00,,---,0.24,VWS V15.00,2013-06-20 21:12:00,
2013-06-20 17:13:00,87.3,51.2,30.15,SSE,157,7.6,7.6,29,0.00,,---,0.24,VWS V15.00,2013-06-20 21:13:00,
2013-06-20 17:14:00,86.2,44.1,30.15,South,187,0.0,0.0,23,0.00,,---,0.24,VWS V14.01,2013-06-20 21:14:00,
2013-06-20 17:15:00,87.1,51.0,30.15,ESE,107,4.0,6.3,29,0.00,,---,0.24,VWS V15.00,2013-06-20 21:15:00,
2013-06-20 17:16:00,87.1,51.0,30.15,ENE,61,2.7,6.3,29,0.00,,---,0.24,VWS V15.00,2013-06-20 21:16:00,
2013-06-20 17:17:00,87.1,51.0,30.15,ESE,122,2.7,3.1,29,0.00,,---,0.24,VWS V15.00,2013-06-20 21:17:00,
2013-06-20 17:18:00,87.1,51.0,30.15,SE,135,5.4,8.3,29,0.00,,---,0.24,VWS V15.00,2013-06-20 21:18:00,
2013-06-20 17:19:00,86.7,45.7,30.15,South,186,0.0,0.0,24,0.00,,---,0.24,VWS V14.01,2013-06-20 21:19:00,
2013-06-20 17:20:00,86.7,50.7,30.15,East,92,5.8,8.3,29,0.00,,---,0.24,VWS V15.00,2013-06-20 21:20:00,
2013-06-20 17:21:00,86.7,50.7,30.15,South,186,3.6,8.7,29,0.00,,---,0.24,VWS V15.00,2013-06-20 21:21:00,
2013-06-20 17:22:00,86.7,50.7,30.15,SSE,149,6.3,8.3,29,0.00,,---,0.24,VWS V15.00,2013-06-20 21:22:00,
2013-06-20 17:23:00,86.7,50.7,30.15,SSE,153,4.9,6.3,29,0.00,,---,0.24,VWS V15.00,2013-06-20 21:23:00,
2013-06-20 17:24:00,86.2,45.2,30.15,South,186,0.0,0.0,24,0.00,,---,0.24,VWS V14.01,2013-06-20 21:24:00,
2013-06-20 17:25:00,86.5,50.5,30.15,SE,129,6.3,6.3,29,0.00,,---,0.24,VWS V15.00,2013-06-20 21:25:00,
2013-06-20 17:26:00,86.4,50.4,30.15,ENE,71,5.4,7.6,29,0.00,,---,0.24,VWS V15.00,2013-06-20 21:26:00,
2013-06-20 17:27:00,86.5,50.5,30.15,SSE,147,6.3,7.6,29,0.00,,---,0.24,VWS V15.00,2013-06-20 21:27:00,
2013-06-20 17:28:00,86.5,50.5,30.15,SSE,155,5.4,6.3,29,0.00,,---,0.24,VWS V15.00,2013-06-20 21:28:00,
2013-06-20 17:29:00,85.1,48.4,30.15,SW,230,0.0,0.0,28,0.00,,---,0.24,VWS V14.01,2013-06-20 21:29:00,
2013-06-20 17:30:00,86.5,50.5,30.15,SSE,152,5.8,6.3,29,0.00,,---,0.24,VWS V15.00,2013-06-20 21:30:00,
2013-06-20 17:31:00,86.7,50.7,30.15,ESE,120,3.6,5.8,29,0.00,,---,0.24,VWS V15.00,2013-06-20 21:31:00,
2013-06-20 17:32:00,86.7,50.7,30.15,SSE,147,5.4,5.4,29,0.00,,---,0.24,VWS V15.00,2013-06-20 21:32:00,
2013-06-20 17:33:00,86.7,51.6,30.15,SE,131,3.1,5.4,30,0.00,,---,0.24,VWS V15.00,2013-06-20 21:33:00,
2013-06-20 17:34:00,84.7,48.1,30.15,SSE,153,0.0,0.0,28,0.00,,---,0.24,VWS V14.01,2013-06-20 21:34:00,
2013-06-20 17:35:00,86.7,50.7,30.15,SSE,147,5.4,5.8,29,0.00,,---,0.24,VWS V15.00,2013-06-20 21:35:00,
2013-06-20 17:36:00,86.7,50.7,30.15,SSE,167,2.7,6.3,29,0.00,,---,0.24,VWS V15.00,2013-06-20 21:36:00,
2013-06-20 17:37:00,86.7,50.7,30.15,SE,140,5.4,5.4,29,0.00,,---,0.24,VWS V15.00,2013-06-20 21:37:00,
2013-06-20 17:38:00,86.7,51.6,30.15,ESE,107,2.7,5.4,30,0.00,,---,0.24,VWS V15.00,2013-06-20 21:38:00,
2013-06-20 17:39:00,84.9,49.2,30.15,South,178,0.0,2.7,29,0.00,,---,0.24,VWS V14.01,2013-06-20 21:39:00,
2013-06-20 17:40:00,86.9,50.8,30.15,South,183,5.8,5.8,29,0.00,,---,0.24,VWS V15.00,2013-06-20 21:40:00,
2013-06-20 17:41:00,86.9,50.8,30.15,SE,140,3.6,5.8,29,0.00,,---,0.24,VWS V15.00,2013-06-20 21:41:00,
2013-06-20 17:42:00,86.9,50.8,30.15,ESE,121,4.0,4.0,29,0.00,,---,0.24,VWS V15.00,2013-06-20 21:42:00,
2013-06-20 17:43:00,86.9,50.8,30.15,SSE,165,5.8,7.6,29,0.00,,---,0.24,VWS V15.00,2013-06-20 21:43:00,
2013-06-20 17:44:00,84.9,50.1,30.15,SSE,147,7.2,8.1,30,0.00,,---,0.24,VWS V14.01,2013-06-20 21:44:00,
2013-06-20 17:46:00,86.9,50.8,30.15,SE,140,3.6,5.8,29,0.00,,---,0.24,VWS V15.00,2013-06-20 21:46:00,
2013-06-20 17:47:00,86.7,50.7,30.15,SE,140,5.4,6.3,29,0.00,,---,0.24,VWS V15.00,2013-06-20 21:47:00,
2013-06-20 17:48:00,86.7,50.7,30.15,SSE,160,4.9,6.3,29,0.00,,---,0.24,VWS V15.00,2013-06-20 21:48:00,
2013-06-20 17:49:00,85.1,52.8,30.15,ESE,123,2.7,3.1,33,0.00,,---,0.24,VWS V14.01,2013-06-20 21:49:00,
2013-06-20 17:50:00,86.7,51.6,30.15,WNW,290,0.0,4.9,30,0.00,,---,0.24,VWS V15.00,2013-06-20 21:50:00,
2013-06-20 17:51:00,86.5,49.6,30.15,SW,230,0.0,0.0,28,0.00,,---,0.24,VWS V15.00,2013-06-20 21:51:00,
2013-06-20 17:52:00,86.5,49.6,30.15,SW,230,0.0,0.0,28,0.00,,---,0.24,VWS V15.00,2013-06-20 21:52:00,
2013-06-20 17:53:00,86.5,49.6,30.15,SSW,205,0.0,0.0,28,0.00,,---,0.24,VWS V15.00,2013-06-20 21:53:00,
2013-06-20 17:54:00,85.1,52.8,30.15,SE,137,2.7,2.7,33,0.00,,---,0.24,VWS V14.01,2013-06-20 21:54:00,
2013-06-20 17:55:00,86.4,49.4,30.15,SE,124,0.0,4.0,28,0.00,,---,0.24,VWS V15.00,2013-06-20 21:55:00,
2013-06-20 17:56:00,86.4,49.4,30.15,SE,124,0.0,0.0,28,0.00,,---,0.24,VWS V15.00,2013-06-20 21:56:00,
2013-06-20 17:57:00,85.8,46.0,30.15,South,172,0.0,0.0,25,0.00,,---,0.24,VWS V15.00,2013-06-20 21:57:00,
2013-06-20 17:58:00,85.6,45.8,30.15,SSE,152,0.0,4.0,25,0.00,,---,0.24,VWS V15.00,2013-06-20 21:58:00,
2013-06-20 17:59:00,84.6,52.3,30.15,NNW,339,2.7,3.6,33,0.00,,---,0.24,VWS V14.01,2013-06-20 21:59:00,
2013-06-20 18:00:00,85.5,46.7,30.15,WSW,240,0.0,0.0,26,0.00,,---,0.24,VWS V15.00,2013-06-20 22:00:00,
2013-06-20 18:01:00,85.5,46.7,30.15,SW,227,2.7,2.7,26,0.00,,---,0.24,VWS V15.00,2013-06-20 22:01:00,
2013-06-20 18:02:00,85.3,47.5,30.15,SW,223,0.0,2.7,27,0.00,,---,0.24,VWS V15.00,2013-06-20 22:02:00,
2013-06-20 18:03:00,85.1,46.4,30.15,SSW,209,0.0,0.0,26,0.00,,---,0.24,VWS V15.00,2013-06-20 22:03:00,
2013-06-20 18:04:00,80.4,52.5,30.18,West,266,3.6,4.0,38,0.00,,---,0.24,VWS V14.01,2013-06-20 22:04:00,
2013-06-20 18:05:00,85.1,47.4,30.15,South,187,0.0,0.0,27,0.00,,---,0.24,VWS V15.00,2013-06-20 22:05:00,
2013-06-20 18:06:00,85.1,49.3,30.15,South,187,0.0,0.0,29,0.00,,---,0.24,VWS V15.00,2013-06-20 22:06:00,
2013-06-20 18:07:00,85.1,49.3,30.15,South,186,0.0,0.0,29,0.00,,---,0.24,VWS V15.00,2013-06-20 22:07:00,
2013-06-20 18:08:00,85.1,48.4,30.15,South,186,0.0,0.0,28,0.00,,---,0.24,VWS V15.00,2013-06-20 22:08:00,
2013-06-20 18:09:00,85.1,48.4,30.15,South,186,0.0,0.0,28,0.00,,---,0.24,VWS V15.00,2013-06-20 22:09:00,
2013-06-20 18:10:00,79.0,52.6,30.18,NNW,343,3.1,4.0,40,0.00,,---,0.24,VWS V14.01,2013-06-20 22:10:00,
2013-06-20 18:11:00,85.5,46.7,30.15,South,186,0.0,0.0,26,0.00,,---,0.24,VWS V15.00,2013-06-20 22:11:00,
2013-06-20 18:12:00,85.8,46.0,30.15,South,187,0.0,0.0,25,0.00,,---,0.24,VWS V15.00,2013-06-20 22:12:00,
2013-06-20 18:13:00,86.0,46.1,30.15,South,187,0.0,0.0,25,0.00,,---,0.24,VWS V15.00,2013-06-20 22:13:00,
2013-06-20 18:14:00,86.2,44.1,30.15,South,187,0.0,0.0,23,0.00,,---,0.24,VWS V15.00,2013-06-20 22:14:00,
2013-06-20 18:15:00,78.4,53.5,30.18,WNW,290,5.4,5.4,42,0.00,,---,0.24,VWS V14.01,2013-06-20 22:15:00,
2013-06-20 18:16:00,86.7,45.7,30.15,South,186,0.0,0.0,24,0.00,,---,0.24,VWS V15.00,2013-06-20 22:16:00,
2013-06-20 18:17:00,86.7,44.5,30.15,South,187,0.0,0.0,23,0.00,,---,0.24,VWS V15.00,2013-06-20 22:17:00,
2013-06-20 18:18:00,86.9,45.8,30.15,South,187,0.0,0.0,24,0.00,,---,0.24,VWS V15.00,2013-06-20 22:18:00,
2013-06-20 18:19:00,86.7,45.7,30.15,South,187,0.0,0.0,24,0.00,,---,0.24,VWS V15.00,2013-06-20 22:19:00,
2013-06-20 18:20:00,77.9,51.7,30.21,North,353,8.3,9.2,40,0.00,,---,0.24,VWS V14.01,2013-06-20 22:20:00,
2013-06-20 18:21:00,86.5,45.5,30.15,South,186,0.0,0.0,24,0.00,,---,0.24,VWS V15.00,2013-06-20 22:21:00,
2013-06-20 18:22:00,86.4,45.3,30.15,South,187,0.0,0.0,24,0.00,,---,0.24,VWS V15.00,2013-06-20 22:22:00,
2013-06-20 18:23:00,86.2,45.2,30.15,South,187,0.0,0.0,24,0.00,,---,0.24,VWS V15.00,2013-06-20 22:23:00,
2013-06-20 18:24:00,86.0,45.0,30.15,South,187,0.0,0.0,24,0.00,,---,0.24,VWS V15.00,2013-06-20 22:24:00,
2013-06-20 18:25:00,77.5,52.0,30.21,NW,314,4.0,4.0,41,0.00,,---,0.24,VWS V14.01,2013-06-20 22:25:00,
2013-06-20 18:26:00,85.6,46.8,30.15,SW,230,0.0,2.7,26,0.00,,---,0.24,VWS V15.00,2013-06-20 22:26:00,
2013-06-20 18:27:00,85.6,46.8,30.15,SW,230,0.0,0.0,26,0.00,,---,0.24,VWS V15.00,2013-06-20 22:27:00,
2013-06-20 18:28:00,85.3,47.5,30.15,SW,230,0.0,0.0,27,0.00,,---,0.24,VWS V15.00,2013-06-20 22:28:00,
2013-06-20 18:29:00,85.1,48.4,30.15,SW,230,0.0,0.0,28,0.00,,---,0.24,VWS V15.00,2013-06-20 22:29:00,
2013-06-20 18:30:00,77.5,52.7,30.21,NW,310,2.7,5.8,42,0.00,,---,0.24,VWS V14.01,2013-06-20 22:30:00,
2013-06-20 18:31:00,84.9,48.2,30.15,SW,230,0.0,0.0,28,0.00,,---,0.24,VWS V15.00,2013-06-20 22:31:00,
2013-06-20 18:32:00,84.7,47.1,30.15,SSW,196,0.0,0.0,27,0.00,,---,0.24,VWS V15.00,2013-06-20 22:32:00,
2013-06-20 18:33:00,84.7,49.0,30.15,SSE,152,0.0,0.0,29,0.00,,---,0.24,VWS V15.00,2013-06-20 22:33:00,
2013-06-20 18:34:00,84.7,48.1,30.15,SSE,153,0.0,0.0,28,0.00,,---,0.24,VWS V15.00,2013-06-20 22:34:00,
2013-06-20 18:35:00,77.5,52.0,30.21,North,0,4.0,8.1,41,0.00,,---,0.24,VWS V14.01,2013-06-20 22:35:00,
2013-06-20 18:36:00,84.7,49.0,30.15,ESE,122,3.1,4.0,29,0.00,,---,0.24,VWS V15.00,2013-06-20 22:36:00,
2013-06-20 18:37:00,84.7,49.0,30.15,ESE,122,0.0,3.1,29,0.00,,---,0.24,VWS V15.00,2013-06-20 22:37:00,
2013-06-20 18:38:00,84.7,49.0,30.15,SSE,168,2.7,2.7,29,0.00,,---,0.24,VWS V15.00,2013-06-20 22:38:00,
2013-06-20 18:39:00,84.9,49.2,30.15,South,178,0.0,2.7,29,0.00,,---,0.24,VWS V15.00,2013-06-20 22:39:00,
2013-06-20 18:40:00,77.5,52.7,30.21,NNW,337,4.0,6.3,42,0.00,,---,0.24,VWS V14.01,2013-06-20 22:40:00,
2013-06-20 18:41:00,84.7,49.9,30.15,ESE,117,3.1,4.0,30,0.00,,---,0.24,VWS V15.00,2013-06-20 22:41:00,
2013-06-20 18:42:00,84.7,49.9,30.15,ESE,104,3.1,3.6,30,0.00,,---,0.24,VWS V15.00,2013-06-20 22:42:00,
2013-06-20 18:43:00,84.9,50.1,30.15,SE,128,3.1,3.6,30,0.00,,---,0.24,VWS V15.00,2013-06-20 22:43:00,
2013-06-20 18:44:00,84.9,50.1,30.15,SE,135,8.1,8.1,30,0.00,,---,0.24,VWS V15.00,2013-06-20 22:44:00,
2013-06-20 18:45:00,77.7,52.8,30.21,North,349,4.0,4.0,42,0.00,,---,0.24,VWS V14.01,2013-06-20 22:45:00,
2013-06-20 18:46:00,85.1,52.0,30.15,SE,126,4.0,5.8,32,0.00,,---,0.24,VWS V15.00,2013-06-20 22:46:00,
2013-06-20 18:47:00,85.1,52.0,30.15,ESE,119,5.4,5.4,32,0.00,,---,0.24,VWS V15.00,2013-06-20 22:47:00,
2013-06-20 18:48:00,85.1,52.0,30.15,SE,145,3.6,5.8,32,0.00,,---,0.24,VWS V15.00,2013-06-20 22:48:00,
2013-06-20 18:49:00,85.1,52.0,30.15,ESE,123,3.1,4.9,32,0.00,,---,0.24,VWS V15.00,2013-06-20 22:49:00,
2013-06-20 18:50:00,77.5,52.7,30.21,North,350,4.0,6.7,42,0.00,,---,0.24,VWS V14.01,2013-06-20 22:50:00,
2013-06-20 18:51:00,85.1,52.0,30.15,East,92,5.4,5.4,32,0.00,,---,0.24,VWS V15.00,2013-06-20 22:51:00,
2013-06-20 18:52:00,85.1,52.8,30.15,ESE,122,3.1,6.3,33,0.00,,---,0.24,VWS V15.00,2013-06-20 22:52:00,
2013-06-20 18:53:00,85.1,53.6,30.15,ENE,72,2.7,4.9,34,0.00,,---,0.24,VWS V15.00,2013-06-20 22:53:00,
2013-06-20 18:54:00,85.1,52.8,30.15,SE,128,2.2,3.6,33,0.00,,---,0.24,VWS V15.00,2013-06-20 22:54:00,
2013-06-20 18:55:00,77.2,53.0,30.21,NNW,337,3.6,4.0,43,0.00,,---,0.24,VWS V14.01,2013-06-20 22:55:00,
2013-06-20 18:56:00,84.9,53.5,30.15,East,94,0.0,0.0,34,0.00,,---,0.24,VWS V15.00,2013-06-20 22:56:00,
2013-06-20 18:57:00,84.9,52.6,30.15,NNE,19,0.0,0.0,33,0.00,,---,0.24,VWS V15.00,2013-06-20 22:57:00,
2013-06-20 18:58:00,84.7,53.3,30.15,NNW,339,6.3,6.3,34,0.00,,---,0.24,VWS V15.00,2013-06-20 22:58:00,
2013-06-20 18:59:00,84.7,54.1,30.15,NE,37,3.6,6.3,35,0.00,,---,0.24,VWS V15.00,2013-06-20 22:59:00,
2013-06-20 19:00:00,76.8,53.9,30.21,NNW,337,5.4,5.4,45,0.00,,---,0.24,VWS V14.01,2013-06-20 23:00:00,
2013-06-20 19:01:00,82.6,49.8,30.15,NNE,17,7.6,9.6,32,0.00,,---,0.24,VWS V15.00,2013-06-20 23:01:00,
2013-06-20 19:02:00,81.5,50.5,30.18,North,350,5.4,11.0,34,0.00,,---,0.24,VWS V15.00,2013-06-20 23:02:00,
2013-06-20 19:03:00,81.1,51.7,30.18,West,263,5.8,5.8,36,0.00,,---,0.24,VWS V15.00,2013-06-20 23:03:00,
2013-06-20 19:04:00,80.4,52.5,30.18,West,266,4.0,6.3,38,0.00,,---,0.24,VWS V15.00,2013-06-20 23:04:00,
2013-06-20 19:05:00,76.6,54.3,30.21,NNE,28,2.7,3.6,46,0.00,,---,0.24,VWS V14.01,2013-06-20 23:05:00,
2013-06-20 19:06:00,79.5,52.4,30.18,NW,308,8.7,8.7,39,0.00,,---,0.24,VWS V15.00,2013-06-20 23:06:00,
2013-06-20 19:07:00,79.5,53.1,30.18,WSW,249,5.4,11.0,40,0.00,,---,0.24,VWS V15.00,2013-06-20 23:07:00,
2013-06-20 19:08:00,79.3,53.0,30.18,NW,325,4.0,8.3,40,0.00,,---,0.24,VWS V15.00,2013-06-20 23:08:00,
2013-06-20 19:09:00,79.2,52.8,30.18,NW,310,4.0,5.8,40,0.00,,---,0.24,VWS V15.00,2013-06-20 23:09:00,
2013-06-20 19:10:00,79.0,52.6,30.18,SSE,160,7.6,7.6,40,0.00,,---,0.24,VWS V15.00,2013-06-20 23:10:00,
2013-06-20 19:11:00,76.6,54.9,30.21,NW,313,2.2,2.2,47,0.00,,---,0.24,VWS V14.01,2013-06-20 23:11:00,
2013-06-20 19:12:00,78.6,52.3,30.18,NW,319,5.4,8.3,40,0.00,,---,0.24,VWS V15.00,2013-06-20 23:12:00,
2013-06-20 19:13:00,78.6,52.3,30.18,West,265,5.8,5.8,40,0.00,,---,0.24,VWS V15.00,2013-06-20 23:13:00,
2013-06-20 19:14:00,78.4,52.8,30.18,WNW,289,2.7,5.8,41,0.00,,---,0.24,VWS V15.00,2013-06-20 23:14:00,
2013-06-20 19:15:00,78.4,53.5,30.18,North,353,6.3,6.3,42,0.00,,---,0.24,VWS V15.00,2013-06-20 23:15:00,
2013-06-20 19:16:00,76.5,55.9,30.21,NW,322,0.0,0.0,49,0.00,,---,0.24,VWS V14.01,2013-06-20 23:16:00,
2013-06-20 19:17:00,78.1,52.5,30.21,NNW,336,6.3,8.7,41,0.00,,---,0.24,VWS V15.00,2013-06-20 23:17:00,
2013-06-20 19:18:00,78.1,52.5,30.21,WNW,299,5.8,8.1,41,0.00,,---,0.24,VWS V15.00,2013-06-20 23:18:00,
2013-06-20 19:19:00,78.1,51.8,30.21,NW,322,5.8,6.3,40,0.00,,---,0.24,VWS V15.00,2013-06-20 23:19:00,
2013-06-20 19:20:00,77.9,51.7,30.21,North,1,7.6,9.2,40,0.00,,---,0.24,VWS V15.00,2013-06-20 23:20:00,
2013-06-20 19:21:00,76.3,55.2,30.21,NNW,332,2.2,2.7,48,0.00,,---,0.24,VWS V14.01,2013-06-20 23:21:00,
2013-06-20 19:22:00,77.7,52.2,30.21,North,349,5.8,10.5,41,0.00,,---,0.24,VWS V15.00,2013-06-20 23:22:00,
2013-06-20 19:23:00,77.5,52.7,30.21,WNW,283,3.1,8.3,42,0.00,,---,0.24,VWS V15.00,2013-06-20 23:23:00,
2013-06-20 19:24:00,77.7,52.8,30.21,NW,314,4.0,5.4,42,0.00,,---,0.24,VWS V15.00,2013-06-20 23:24:00,
2013-06-20 19:25:00,77.5,52.0,30.21,WNW,287,6.3,6.3,41,0.00,,---,0.24,VWS V15.00,2013-06-20 23:25:00,
2013-06-20 19:26:00,76.3,55.2,30.21,ENE,61,0.0,2.7,48,0.00,,---,0.24,VWS V14.01,2013-06-20 23:26:00,
2013-06-20 19:27:00,77.7,52.8,30.21,North,6,2.7,5.8,42,0.00,,---,0.24,VWS V15.00,2013-06-20 23:27:00,
2013-06-20 19:28:00,77.5,52.0,30.21,WNW,289,4.9,9.6,41,0.00,,---,0.24,VWS V15.00,2013-06-20 23:28:00,
2013-06-20 19:29:00,77.5,52.7,30.21,NNW,337,5.8,8.7,42,0.00,,---,0.24,VWS V15.00,2013-06-20 23:29:00,
2013-06-20 19:30:00,77.5,52.7,30.21,North,353,3.6,5.8,42,0.00,,---,0.24,VWS V15.00,2013-06-20 23:30:00,
2013-06-20 19:31:00,76.3,55.2,30.21,ENE,62,0.0,0.0,48,0.00,,---,0.24,VWS V14.01,2013-06-20 23:31:00,
2013-06-20 19:32:00,77.5,52.7,30.21,North,6,3.1,5.4,42,0.00,,---,0.24,VWS V15.00,2013-06-20 23:32:00,
2013-06-20 19:33:00,77.5,52.0,30.21,NNW,348,5.8,5.8,41,0.00,,---,0.24,VWS V15.00,2013-06-20 23:33:00,
2013-06-20 19:34:00,77.7,52.8,30.21,NNW,336,6.3,7.6,42,0.00,,---,0.24,VWS V15.00,2013-06-20 23:34:00,
2013-06-20 19:35:00,77.5,52.0,30.21,North,357,5.8,8.1,41,0.00,,---,0.24,VWS V15.00,2013-06-20 23:35:00,
2013-06-20 19:36:00,76.3,55.2,30.18,ENE,70,0.0,2.7,48,0.00,,---,0.24,VWS V14.01,2013-06-20 23:36:00,
2013-06-20 19:37:00,77.7,52.8,30.21,North,353,3.1,6.7,42,0.00,,---,0.24,VWS V15.00,2013-06-20 23:37:00,
2013-06-20 19:38:00,77.5,52.7,30.21,NNW,341,5.8,6.7,42,0.00,,---,0.24,VWS V15.00,2013-06-20 23:38:00,
2013-06-20 19:39:00,77.5,52.7,30.21,North,0,4.9,5.8,42,0.00,,---,0.24,VWS V15.00,2013-06-20 23:39:00,
2013-06-20 19:40:00,77.5,52.7,30.21,NNW,337,4.0,6.3,42,0.00,,---,0.24,VWS V15.00,2013-06-20 23:40:00,
2013-06-20 19:41:00,76.3,55.2,30.18,ENE,73,0.0,2.7,48,0.00,,---,0.24,VWS V14.01,2013-06-20 23:41:00,
2013-06-20 19:42:00,77.7,53.5,30.21,NNW,331,4.0,5.4,43,0.00,,---,0.24,VWS V15.00,2013-06-20 23:42:00,
2013-06-20 19:43:00,77.5,52.7,30.21,North,353,3.1,4.0,42,0.00,,---,0.24,VWS V15.00,2013-06-20 23:43:00,
2013-06-20 19:44:00,77.5,52.0,30.21,West,269,3.6,4.9,41,0.00,,---,0.24,VWS V15.00,2013-06-20 23:44:00,
2013-06-20 19:45:00,77.7,52.8,30.21,North,353,2.7,3.6,42,0.00,,---,0.24,VWS V15.00,2013-06-20 23:45:00,
2013-06-20 19:46:00,76.3,55.7,30.18,ENE,73,0.0,0.0,49,0.00,,---,0.24,VWS V14.01,2013-06-20 23:46:00,
2013-06-20 19:47:00,77.5,52.7,30.21,NNW,335,2.7,5.8,42,0.00,,---,0.24,VWS V15.00,2013-06-20 23:47:00,
2013-06-20 19:48:00,77.5,52.7,30.21,North,10,5.8,5.8,42,0.00,,---,0.24,VWS V15.00,2013-06-20 23:48:00,
2013-06-20 19:49:00,77.4,51.8,30.21,NNW,342,5.8,6.3,41,0.00,,---,0.24,VWS V15.00,2013-06-20 23:49:00,
2013-06-20 19:50:00,77.5,52.7,30.21,North,350,4.0,6.7,42,0.00,,---,0.24,VWS V15.00,2013-06-20 23:50:00,
2013-06-20 19:51:00,76.1,55.6,30.18,ENE,72,0.0,0.0,49,0.00,,---,0.24,VWS V14.01,2013-06-20 23:51:00,
2013-06-20 19:52:00,77.5,53.3,30.21,ENE,68,3.1,5.4,43,0.00,,---,0.24,VWS V15.00,2013-06-20 23:52:00,
2013-06-20 19:53:00,77.4,53.1,30.21,South,182,3.1,3.1,43,0.00,,---,0.24,VWS V15.00,2013-06-20 23:53:00,
2013-06-20 19:54:00,77.4,53.1,30.21,North,353,3.6,6.3,43,0.00,,---,0.24,VWS V15.00,2013-06-20 23:54:00,
2013-06-20 19:55:00,77.2,53.0,30.21,NW,313,4.0,5.8,43,0.00,,---,0.24,VWS V15.00,2013-06-20 23:55:00,
2013-06-20 19:56:00,76.1,55.0,30.18,ENE,72,0.0,0.0,48,0.00,,---,0.24,VWS V14.01,2013-06-20 23:56:00,
2013-06-20 19:57:00,77.0,52.8,30.21,NNW,337,3.6,7.6,43,0.00,,---,0.24,VWS V15.00,2013-06-20 23:57:00,
2013-06-20 19:58:00,76.8,53.3,30.21,North,4,6.3,8.1,44,0.00,,---,0.24,VWS V15.00,2013-06-20 23:58:00,
2013-06-20 19:59:00,76.8,53.9,30.21,NW,308,3.6,6.3,45,0.00,,---,0.24,VWS V15.00,2013-06-20 23:59:00,
2013-06-20 20:00:00,76.8,53.9,30.21,WNW,294,2.2,4.0,45,0.00,,---,0.24,VWS V15.00,2013-06-21 00:00:00,
2013-06-20 20:01:00,76.3,55.2,30.18,East,80,2.2,2.2,48,0.00,,---,0.24,VWS V14.01,2013-06-21 00:01:00,
2013-06-20 20:02:00,76.8,53.9,30.21,NNW,333,3.6,3.6,45,0.00,,---,0.24,VWS V15.00,2013-06-21 00:02:00,
2013-06-20 20:03:00,76.8,54.5,30.21,North,353,3.6,3.6,46,0.00,,---,0.24,VWS V15.00,2013-06-21 00:03:00,
2013-06-20 20:04:00,76.8,55.1,30.21,North,353,4.9,4.9,47,0.00,,---,0.24,VWS V15.00,2013-06-21 00:04:00,
2013-06-20 20:05:00,76.6,53.7,30.21,NNE,18,3.6,4.9,45,0.00,,---,0.24,VWS V15.00,2013-06-21 00:05:00,
2013-06-20 20:06:00,75.9,55.4,30.18,ENE,63,0.0,0.0,49,0.00,,---,0.24,VWS V14.01,2013-06-21 00:06:00,
2013-06-20 20:07:00,76.6,54.9,30.21,NW,314,3.1,3.6,47,0.00,,---,0.24,VWS V15.00,2013-06-21 00:07:00,
2013-06-20 20:08:00,76.6,54.3,30.21,East,80,3.1,3.1,46,0.00,,---,0.24,VWS V15.00,2013-06-21 00:08:00,
2013-06-20 20:09:00,76.6,54.3,30.21,NNW,342,2.7,3.1,46,0.00,,---,0.24,VWS V15.00,2013-06-21 00:09:00,
2013-06-20 20:10:00,76.6,54.9,30.21,North,357,2.2,2.7,47,0.00,,---,0.24,VWS V15.00,2013-06-21 00:10:00,
2013-06-20 20:11:00,76.5,54.8,30.21,NW,313,2.2,2.2,47,0.00,,---,0.24,VWS V15.00,2013-06-21 00:11:00,
2013-06-20 20:12:00,75.9,56.5,30.18,ENE,62,2.7,2.7,51,0.00,,---,0.24,VWS V14.01,2013-06-21 00:12:00,
2013-06-20 20:13:00,76.5,54.8,30.21,NNW,334,3.1,3.1,47,0.00,,---,0.24,VWS V15.00,2013-06-21 00:13:00,
2013-06-20 20:14:00,76.5,54.8,30.21,North,353,0.0,3.1,47,0.00,,---,0.24,VWS V15.00,2013-06-21 00:14:00,
2013-06-20 20:15:00,76.5,54.8,30.21,North,353,0.0,0.0,47,0.00,,---,0.24,VWS V15.00,2013-06-21 00:15:00,
2013-06-20 20:16:00,76.5,55.9,30.21,North,7,3.6,4.0,49,0.00,,---,0.24,VWS V15.00,2013-06-21 00:16:00,
2013-06-20 20:17:00,75.7,56.3,30.18,NE,41,0.0,0.0,51,0.00,,---,0.24,VWS V14.01,2013-06-21 00:17:00,
2013-06-20 20:18:00,76.3,54.6,30.21,NNW,337,3.6,3.6,47,0.00,,---,0.24,VWS V15.00,2013-06-21 00:18:00,
2013-06-20 20:19:00,76.3,54.6,30.21,NNW,337,2.7,3.6,47,0.00,,---,0.24,VWS V15.00,2013-06-21 00:19:00,
2013-06-20 20:20:00,76.3,55.2,30.21,NNW,348,2.7,4.0,48,0.00,,---,0.24,VWS V15.00,2013-06-21 00:20:00,
2013-06-20 20:21:00,76.3,55.2,30.21,NNW,332,0.0,2.7,48,0.00,,---,0.24,VWS V15.00,2013-06-21 00:21:00,
2013-06-20 20:22:00,75.7,55.8,30.18,SE,141,2.7,4.0,50,0.00,,---,0.24,VWS V14.01,2013-06-21 00:22:00,
2013-06-20 20:23:00,76.3,55.2,30.21,NNW,337,4.0,4.0,48,0.00,,---,0.24,VWS V15.00,2013-06-21 00:23:00,
2013-06-20 20:24:00,76.3,55.2,30.21,NW,319,2.7,4.0,48,0.00,,---,0.24,VWS V15.00,2013-06-21 00:24:00,
2013-06-20 20:25:00,76.3,55.2,30.21,NE,56,2.7,3.6,48,0.00,,---,0.24,VWS V15.00,2013-06-21 00:25:00,
2013-06-20 20:26:00,76.3,55.2,30.21,NE,49,0.0,2.7,48,0.00,,---,0.24,VWS V15.00,2013-06-21 00:26:00,
2013-06-20 20:27:00,76.1,55.0,30.21,SE,124,0.0,0.0,48,0.00,,---,0.24,VWS V14.01,2013-06-21 00:27:00,
2013-06-20 20:28:00,76.3,54.6,30.21,NE,48,0.0,0.0,47,0.00,,---,0.24,VWS V15.00,2013-06-21 00:28:00,
2013-06-20 20:29:00,76.3,54.6,30.21,ENE,74,0.0,0.0,47,0.00,,---,0.24,VWS V15.00,2013-06-21 00:29:00,
2013-06-20 20:30:00,76.3,55.2,30.21,ENE,74,0.0,0.0,48,0.00,,---,0.24,VWS V15.00,2013-06-21 00:30:00,
2013-06-20 20:31:00,76.3,55.2,30.21,NNE,22,0.0,0.0,48,0.00,,---,0.24,VWS V15.00,2013-06-21 00:31:00,
2013-06-20 20:32:00,75.9,56.0,30.21,ENE,68,0.0,2.7,50,0.00,,---,0.24,VWS V14.01,2013-06-21 00:32:00,
2013-06-20 20:33:00,76.3,55.2,30.21,NNW,337,2.7,2.7,48,0.00,,---,0.24,VWS V15.00,2013-06-21 00:33:00,
2013-06-20 20:34:00,76.3,55.2,30.21,NNW,341,0.0,2.7,48,0.00,,---,0.24,VWS V15.00,2013-06-21 00:34:00,
2013-06-20 20:35:00,76.3,55.7,30.21,ENE,62,2.7,2.7,49,0.00,,---,0.24,VWS V15.00,2013-06-21 00:35:00,
2013-06-20 20:36:00,76.3,55.2,30.18,ENE,70,0.0,2.7,48,0.00,,---,0.24,VWS V15.00,2013-06-21 00:36:00,
2013-06-20 20:37:00,75.9,56.0,30.21,NE,46,0.0,0.0,50,0.00,,---,0.24,VWS V14.01,2013-06-21 00:37:00,
2013-06-20 20:38:00,76.3,55.2,30.18,East,83,0.0,0.0,48,0.00,,---,0.24,VWS V15.00,2013-06-21 00:38:00,
2013-06-20 20:39:00,76.3,55.2,30.18,East,83,0.0,0.0,48,0.00,,---,0.24,VWS V15.00,2013-06-21 00:39:00,
2013-06-20 20:40:00,76.1,54.4,30.18,ENE,73,2.7,2.7,47,0.00,,---,0.24,VWS V15.00,2013-06-21 00:40:00,
2013-06-20 20:41:00,76.3,55.2,30.18,ENE,73,0.0,2.7,48,0.00,,---,0.24,VWS V15.00,2013-06-21 00:41:00,
2013-06-20 20:42:00,75.6,55.6,30.21,NE,46,0.0,0.0,50,0.00,,---,0.24,VWS V14.01,2013-06-21 00:42:00,
2013-06-20 20:43:00,76.1,55.0,30.18,ENE,73,0.0,0.0,48,0.00,,---,0.24,VWS V15.00,2013-06-21 00:43:00,
2013-06-20 20:44:00,76.3,55.7,30.18,ENE,73,0.0,0.0,49,0.00,,---,0.24,VWS V15.00,2013-06-21 00:44:00,
2013-06-20 20:45:00,76.3,55.7,30.18,ENE,73,0.0,0.0,49,0.00,,---,0.24,VWS V15.00,2013-06-21 00:45:00,
2013-06-20 20:46:00,76.3,55.7,30.18,ENE,73,0.0,0.0,49,0.00,,---,0.24,VWS V15.00,2013-06-21 00:46:00,
2013-06-20 20:47:00,75.6,56.2,30.21,NE,42,0.0,0.0,51,0.00,,---,0.24,VWS V14.01,2013-06-21 00:47:00,
2013-06-20 20:48:00,76.1,55.6,30.18,ENE,72,0.0,0.0,49,0.00,,---,0.24,VWS V15.00,2013-06-21 00:48:00,
2013-06-20 20:49:00,76.1,55.6,30.18,ENE,72,0.0,0.0,49,0.00,,---,0.24,VWS V15.00,2013-06-21 00:49:00,
2013-06-20 20:50:00,76.1,55.6,30.18,ENE,72,0.0,0.0,49,0.00,,---,0.24,VWS V15.00,2013-06-21 00:50:00,
2013-06-20 20:51:00,76.1,55.6,30.18,ENE,72,0.0,0.0,49,0.00,,---,0.24,VWS V15.00,2013-06-21 00:51:00,
2013-06-20 20:52:00,75.4,56.0,30.21,NE,43,0.0,0.0,51,0.00,,---,0.24,VWS V14.01,2013-06-21 00:52:00,
2013-06-20 20:53:00,76.1,55.0,30.18,ENE,73,0.0,0.0,48,0.00,,---,0.24,VWS V15.00,2013-06-21 00:53:00,
2013-06-20 20:54:00,76.1,55.0,30.18,ENE,72,0.0,0.0,48,0.00,,---,0.24,VWS V15.00,2013-06-21 00:54:00,
2013-06-20 20:55:00,76.1,55.0,30.18,ENE,72,0.0,0.0,48,0.00,,---,0.24,VWS V15.00,2013-06-21 00:55:00,
2013-06-20 20:56:00,76.1,55.0,30.18,ENE,72,0.0,0.0,48,0.00,,---,0.24,VWS V15.00,2013-06-21 00:56:00,
2013-06-20 20:57:00,75.4,56.0,30.21,NE,42,0.0,0.0,51,0.00,,---,0.24,VWS V14.01,2013-06-21 00:57:00,
2013-06-20 20:58:00,76.1,54.4,30.18,ENE,68,0.0,0.0,47,0.00,,---,0.24,VWS V15.00,2013-06-21 00:58:00,
2013-06-20 20:59:00,76.1,54.4,30.18,ENE,61,2.2,3.1,47,0.00,,---,0.24,VWS V15.00,2013-06-21 00:59:00,
2013-06-20 21:00:00,76.1,54.4,30.18,East,79,2.2,2.2,47,0.00,,---,0.24,VWS V15.00,2013-06-21 01:00:00,
2013-06-20 21:01:00,76.3,55.2,30.18,East,79,2.2,2.2,48,0.00,,---,0.24,VWS V15.00,2013-06-21 01:01:00,
2013-06-20 21:02:00,75.0,56.2,30.21,NE,43,0.0,0.0,52,0.00,,---,0.24,VWS V14.01,2013-06-21 01:02:00,
2013-06-20 21:03:00,76.1,55.0,30.18,ENE,63,0.0,0.0,48,0.00,,---,0.24,VWS V15.00,2013-06-21 01:03:00,
2013-06-20 21:04:00,76.1,55.0,30.18,ENE,63,0.0,0.0,48,0.00,,---,0.24,VWS V15.00,2013-06-21 01:04:00,
2013-06-20 21:05:00,76.1,55.0,30.18,ENE,63,0.0,0.0,48,0.00,,---,0.24,VWS V15.00,2013-06-21 01:05:00,
2013-06-20 21:06:00,75.9,55.4,30.18,ENE,63,0.0,0.0,49,0.00,,---,0.24,VWS V15.00,2013-06-21 01:06:00,
2013-06-20 21:07:00,74.7,56.4,30.21,NE,42,0.0,0.0,53,0.00,,---,0.24,VWS V14.01,2013-06-21 01:07:00,
2013-06-20 21:08:00,75.9,56.5,30.18,ENE,58,3.1,3.1,51,0.00,,---,0.24,VWS V15.00,2013-06-21 01:08:00,
2013-06-20 21:09:00,75.9,56.5,30.18,ENE,64,3.1,3.1,51,0.00,,---,0.24,VWS V15.00,2013-06-21 01:09:00,
2013-06-20 21:10:00,75.9,56.0,30.18,ENE,69,2.7,3.1,50,0.00,,---,0.24,VWS V15.00,2013-06-21 01:10:00,
2013-06-20 21:11:00,75.9,56.5,30.18,ENE,61,0.0,3.1,51,0.00,,---,0.24,VWS V15.00,2013-06-21 01:11:00,
2013-06-20 21:12:00,74.5,56.8,30.21,NE,42,0.0,0.0,54,0.00,,---,0.24,VWS V14.01,2013-06-21 01:12:00,
2013-06-20 21:13:00,75.9,56.5,30.18,NE,41,0.0,2.7,51,0.00,,---,0.24,VWS V15.00,2013-06-21 01:13:00,
2013-06-20 21:14:00,75.9,56.5,30.18,NE,41,0.0,0.0,51,0.00,,---,0.24,VWS V15.00,2013-06-21 01:14:00,
2013-06-20 21:15:00,75.9,56.0,30.18,NE,41,0.0,0.0,50,0.00,,---,0.24,VWS V15.00,2013-06-21 01:15:00,
2013-06-20 21:16:00,75.7,56.3,30.18,NE,41,0.0,0.0,51,0.00,,---,0.24,VWS V15.00,2013-06-21 01:16:00,
2013-06-20 21:17:00,74.5,57.3,30.21,NE,43,0.0,0.0,55,0.00,,---,0.24,VWS V14.01,2013-06-21 01:17:00,
2013-06-20 21:18:00,75.6,56.2,30.18,East,85,0.0,0.0,51,0.00,,---,0.24,VWS V15.00,2013-06-21 01:18:00,
2013-06-20 21:19:00,75.7,55.8,30.18,ESE,109,0.0,0.0,50,0.00,,---,0.24,VWS V15.00,2013-06-21 01:19:00,
2013-06-20 21:20:00,75.7,55.8,30.18,SE,124,0.0,0.0,50,0.00,,---,0.24,VWS V15.00,2013-06-21 01:20:00,
2013-06-20 21:21:00,75.7,55.8,30.18,SSE,161,0.0,0.0,50,0.00,,---,0.24,VWS V15.00,2013-06-21 01:21:00,
2013-06-20 21:22:00,75.7,55.8,30.18,SE,140,3.6,4.0,50,0.00,,---,0.24,VWS V15.00,2013-06-21 01:22:00,
2013-06-20 21:23:00,74.5,59.7,30.21,NE,42,0.0,0.0,60,0.00,,---,0.24,VWS V14.01,2013-06-21 01:23:00,
2013-06-20 21:24:00,75.9,55.4,30.18,SE,124,3.1,3.6,49,0.00,,---,0.24,VWS V15.00,2013-06-21 01:24:00,
2013-06-20 21:25:00,75.9,55.4,30.18,SE,124,0.0,3.1,49,0.00,,---,0.24,VWS V15.00,2013-06-21 01:25:00,
2013-06-20 21:26:00,76.1,55.6,30.18,SE,124,0.0,0.0,49,0.00,,---,0.24,VWS V15.00,2013-06-21 01:26:00,
2013-06-20 21:27:00,76.1,55.0,30.21,SE,124,0.0,0.0,48,0.00,,---,0.24,VWS V15.00,2013-06-21 01:27:00,
2013-06-20 21:28:00,74.5,59.2,30.21,NE,52,0.0,0.0,59,0.00,,---,0.24,VWS V14.01,2013-06-21 01:28:00,
2013-06-20 21:29:00,76.1,55.0,30.21,East,97,2.7,4.0,48,0.00,,---,0.24,VWS V15.00,2013-06-21 01:29:00,
2013-06-20 21:30:00,76.1,55.6,30.21,ESE,107,3.1,3.1,49,0.00,,---,0.24,VWS V15.00,2013-06-21 01:30:00,
2013-06-20 21:31:00,75.9,56.0,30.21,ENE,71,2.2,3.6,50,0.00,,---,0.24,VWS V15.00,2013-06-21 01:31:00,
2013-06-20 21:32:00,75.9,56.0,30.21,ENE,68,0.0,2.7,50,0.00,,---,0.24,VWS V15.00,2013-06-21 01:32:00,
2013-06-20 21:33:00,74.7,58.4,30.21,NE,53,0.0,0.0,57,0.00,,---,0.24,VWS V14.01,2013-06-21 01:33:00,
2013-06-20 21:34:00,75.9,55.4,30.21,ENE,68,0.0,0.0,49,0.00,,---,0.24,VWS V15.00,2013-06-21 01:34:00,
2013-06-20 21:35:00,75.9,56.0,30.21,ENE,68,0.0,0.0,50,0.00,,---,0.24,VWS V15.00,2013-06-21 01:35:00,
2013-06-20 21:36:00,75.9,57.0,30.21,ENE,68,0.0,0.0,52,0.00,,---,0.24,VWS V15.00,2013-06-21 01:36:00,
2013-06-20 21:37:00,75.9,56.0,30.21,NE,46,0.0,0.0,50,0.00,,---,0.24,VWS V15.00,2013-06-21 01:37:00,
2013-06-20 21:38:00,74.5,57.8,30.21,NE,53,0.0,0.0,56,0.00,,---,0.24,VWS V14.01,2013-06-21 01:38:00,
2013-06-20 21:39:00,75.7,55.8,30.21,NE,46,0.0,0.0,50,0.00,,---,0.24,VWS V15.00,2013-06-21 01:39:00,
2013-06-20 21:40:00,75.7,55.8,30.21,NE,46,0.0,0.0,50,0.00,,---,0.24,VWS V15.00,2013-06-21 01:40:00,
2013-06-20 21:41:00,75.7,55.8,30.21,NE,46,0.0,0.0,50,0.00,,---,0.24,VWS V15.00,2013-06-21 01:41:00,
2013-06-20 21:42:00,75.6,55.6,30.21,NE,46,0.0,0.0,50,0.00,,---,0.24,VWS V15.00,2013-06-21 01:42:00,
2013-06-20 21:43:00,74.5,57.8,30.21,NE,53,0.0,0.0,56,0.00,,---,0.24,VWS V14.01,2013-06-21 01:43:00,
2013-06-20 21:44:00,75.6,56.7,30.21,NE,45,0.0,0.0,52,0.00,,---,0.24,VWS V15.00,2013-06-21 01:44:00,
2013-06-20 21:45:00,75.6,56.7,30.21,NE,42,0.0,0.0,52,0.00,,---,0.24,VWS V15.00,2013-06-21 01:45:00,
2013-06-20 21:46:00,75.4,55.5,30.21,NE,43,0.0,0.0,50,0.00,,---,0.24,VWS V15.00,2013-06-21 01:46:00,
2013-06-20 21:47:00,75.6,56.2,30.21,NE,42,0.0,0.0,51,0.00,,---,0.24,VWS V15.00,2013-06-21 01:47:00,
2013-06-20 21:48:00,74.8,57.6,30.21,ENE,78,0.0,0.0,55,0.00,,---,0.24,VWS V14.01,2013-06-21 01:48:00,
2013-06-20 21:49:00,75.6,56.2,30.21,NE,42,0.0,0.0,51,0.00,,---,0.24,VWS V15.00,2013-06-21 01:49:00,
2013-06-20 21:50:00,75.6,56.2,30.21,NE,42,0.0,0.0,51,0.00,,---,0.24,VWS V15.00,2013-06-21 01:50:00,
2013-06-20 21:51:00,75.4,56.0,30.21,NE,42,0.0,0.0,51,0.00,,---,0.24,VWS V15.00,2013-06-21 01:51:00,
2013-06-20 21:52:00,75.4,56.0,30.21,NE,42,0.0,0.0,51,0.00,,---,0.24,VWS V15.00,2013-06-21 01:52:00,
2013-06-20 21:53:00,75.0,56.8,30.21,ENE,78,0.0,0.0,53,0.00,,---,0.24,VWS V14.01,2013-06-21 01:53:00,
2013-06-20 21:54:00,75.4,56.0,30.21,NE,42,0.0,0.0,51,0.00,,---,0.24,VWS V15.00,2013-06-21 01:54:00,
2013-06-20 21:55:00,75.4,56.0,30.21,NE,42,0.0,0.0,51,0.00,,---,0.24,VWS V15.00,2013-06-21 01:55:00,
2013-06-20 21:56:00,75.4,56.0,30.21,NE,43,0.0,0.0,51,0.00,,---,0.24,VWS V15.00,2013-06-21 01:56:00,
2013-06-20 21:57:00,75.4,56.0,30.21,NE,42,0.0,0.0,51,0.00,,---,0.24,VWS V15.00,2013-06-21 01:57:00,
2013-06-20 21:58:00,74.8,56.6,30.21,ENE,78,0.0,0.0,53,0.00,,---,0.24,VWS V14.01,2013-06-21 01:58:00,
2013-06-20 21:59:00,75.4,56.0,30.21,NE,42,0.0,0.0,51,0.00,,---,0.24,VWS V15.00,2013-06-21 01:59:00,
2013-06-20 22:00:00,75.2,56.4,30.21,NE,43,0.0,0.0,52,0.00,,---,0.24,VWS V15.00,2013-06-21 02:00:00,
2013-06-20 22:01:00,75.0,56.2,30.21,NE,43,0.0,0.0,52,0.00,,---,0.24,VWS V15.00,2013-06-21 02:01:00,
2013-06-20 22:02:00,75.0,56.2,30.21,NE,43,0.0,0.0,52,0.00,,---,0.24,VWS V15.00,2013-06-21 02:02:00,
2013-06-20 22:03:00,74.7,58.9,30.21,ENE,78,0.0,0.0,58,0.00,,---,0.24,VWS V14.01,2013-06-21 02:03:00,
2013-06-20 22:04:00,75.0,56.2,30.21,NE,42,0.0,0.0,52,0.00,,---,0.24,VWS V15.00,2013-06-21 02:04:00,
2013-06-20 22:05:00,74.8,56.0,30.21,NE,43,0.0,0.0,52,0.00,,---,0.24,VWS V15.00,2013-06-21 02:05:00,
2013-06-20 22:06:00,74.7,56.4,30.21,NE,42,0.0,0.0,53,0.00,,---,0.24,VWS V15.00,2013-06-21 02:06:00,
2013-06-20 22:07:00,74.7,56.4,30.21,NE,42,0.0,0.0,53,0.00,,---,0.24,VWS V15.00,2013-06-21 02:07:00,
2013-06-20 22:08:00,74.5,60.2,30.21,ENE,78,0.0,0.0,61,0.00,,---,0.24,VWS V14.01,2013-06-21 02:08:00,
2013-06-20 22:09:00,74.7,56.4,30.21,NE,42,0.0,0.0,53,0.00,,---,0.24,VWS V15.00,2013-06-21 02:09:00,
2013-06-20 22:10:00,74.7,56.9,30.21,NE,43,0.0,0.0,54,0.00,,---,0.24,VWS V15.00,2013-06-21 02:10:00,
2013-06-20 22:11:00,74.7,56.9,30.21,NE,43,0.0,0.0,54,0.00,,---,0.24,VWS V15.00,2013-06-21 02:11:00,
2013-06-20 22:12:00,74.7,56.9,30.21,NE,43,0.0,0.0,54,0.00,,---,0.24,VWS V15.00,2013-06-21 02:12:00,
2013-06-20 22:13:00,74.3,59.5,30.21,ENE,78,0.0,0.0,60,0.00,,---,0.24,VWS V14.01,2013-06-21 02:13:00,
2013-06-20 22:14:00,74.5,57.3,30.21,NE,42,0.0,0.0,55,0.00,,---,0.24,VWS V15.00,2013-06-21 02:14:00,
2013-06-20 22:15:00,74.5,57.3,30.21,NE,43,0.0,0.0,55,0.00,,---,0.24,VWS V15.00,2013-06-21 02:15:00,
2013-06-20 22:16:00,74.5,57.3,30.21,NE,42,0.0,0.0,55,0.00,,---,0.24,VWS V15.00,2013-06-21 02:16:00,
2013-06-20 22:17:00,74.5,57.3,30.21,NE,43,0.0,0.0,55,0.00,,---,0.24,VWS V15.00,2013-06-21 02:17:00,
2013-06-20 22:18:00,74.1,58.9,30.21,ENE,78,0.0,0.0,59,0.00,,---,0.24,VWS V14.01,2013-06-21 02:18:00,
2013-06-20 22:19:00,74.5,57.8,30.21,NE,42,0.0,0.0,56,0.00,,---,0.24,VWS V15.00,2013-06-21 02:19:00,
2013-06-20 22:20:00,74.5,57.8,30.21,NE,42,0.0,0.0,56,0.00,,---,0.24,VWS V15.00,2013-06-21 02:20:00,
2013-06-20 22:21:00,74.5,58.3,30.21,NE,42,0.0,0.0,57,0.00,,---,0.24,VWS V15.00,2013-06-21 02:21:00,
2013-06-20 22:22:00,74.5,59.7,30.21,NE,42,0.0,0.0,60,0.00,,---,0.24,VWS V15.00,2013-06-21 02:22:00,
2013-06-20 22:23:00,73.9,59.2,30.21,ENE,78,0.0,0.0,60,0.00,,---,0.24,VWS V14.01,2013-06-21 02:23:00,
2013-06-20 22:24:00,74.5,59.7,30.21,NE,42,0.0,0.0,60,0.00,,---,0.24,VWS V15.00,2013-06-21 02:24:00,
2013-06-20 22:25:00,74.5,59.7,30.21,NE,42,0.0,0.0,60,0.00,,---,0.24,VWS V15.00,2013-06-21 02:25:00,
2013-06-20 22:26:00,74.5,59.2,30.21,NE,42,0.0,0.0,59,0.00,,---,0.24,VWS V15.00,2013-06-21 02:26:00,
2013-06-20 22:27:00,74.5,59.2,30.21,NE,52,0.0,0.0,59,0.00,,---,0.24,VWS V15.00,2013-06-21 02:27:00,
2013-06-20 22:28:00,73.8,59.0,30.21,ENE,78,0.0,0.0,60,0.00,,---,0.24,VWS V14.01,2013-06-21 02:28:00,
2013-06-20 22:29:00,74.7,59.4,30.21,NE,53,0.0,0.0,59,0.00,,---,0.24,VWS V15.00,2013-06-21 02:29:00,
2013-06-20 22:30:00,74.7,58.9,30.21,NE,52,0.0,0.0,58,0.00,,---,0.24,VWS V15.00,2013-06-21 02:30:00,
2013-06-20 22:31:00,74.8,59.1,30.21,NE,52,0.0,0.0,58,0.00,,---,0.24,VWS V15.00,2013-06-21 02:31:00,
2013-06-20 22:32:00,74.7,58.4,30.21,NE,52,0.0,0.0,57,0.00,,---,0.24,VWS V15.00,2013-06-21 02:32:00,
2013-06-20 22:33:00,74.7,58.4,30.21,NE,52,0.0,0.0,57,0.00,,---,0.24,VWS V15.00,2013-06-21 02:33:00,
2013-06-20 22:34:00,73.9,60.6,30.21,ENE,78,0.0,0.0,63,0.00,,---,0.24,VWS V14.01,2013-06-21 02:34:00,
2013-06-20 22:35:00,74.7,57.9,30.21,NE,52,0.0,0.0,56,0.00,,---,0.24,VWS V15.00,2013-06-21 02:35:00,
2013-06-20 22:36:00,74.7,57.9,30.21,NE,53,0.0,0.0,56,0.00,,---,0.24,VWS V15.00,2013-06-21 02:36:00,
2013-06-20 22:37:00,74.5,57.8,30.21,NE,53,0.0,0.0,56,0.00,,---,0.24,VWS V15.00,2013-06-21 02:37:00,
2013-06-20 22:38:00,74.5,57.8,30.21,NE,53,0.0,0.0,56,0.00,,---,0.24,VWS V15.00,2013-06-21 02:38:00,
2013-06-20 22:39:00,73.9,61.0,30.21,ENE,78,0.0,0.0,64,0.00,,---,0.24,VWS V14.01,2013-06-21 02:39:00,
2013-06-20 22:40:00,74.5,57.3,30.21,NE,52,0.0,0.0,55,0.00,,---,0.24,VWS V15.00,2013-06-21 02:40:00,
2013-06-20 22:41:00,74.5,57.3,30.21,NE,52,0.0,0.0,55,0.00,,---,0.24,VWS V15.00,2013-06-21 02:41:00,
2013-06-20 22:42:00,74.5,57.8,30.21,NE,53,0.0,0.0,56,0.00,,---,0.24,VWS V15.00,2013-06-21 02:42:00,
2013-06-20 22:43:00,74.5,57.8,30.21,NE,53,0.0,0.0,56,0.00,,---,0.24,VWS V15.00,2013-06-21 02:43:00,
2013-06-20 22:44:00,73.9,61.4,30.21,ENE,78,0.0,0.0,65,0.00,,---,0.24,VWS V14.01,2013-06-21 02:44:00,
2013-06-20 22:45:00,74.5,57.8,30.21,NE,53,0.0,0.0,56,0.00,,---,0.24,VWS V15.00,2013-06-21 02:45:00,
2013-06-20 22:46:00,74.7,57.9,30.21,NE,53,0.0,0.0,56,0.00,,---,0.24,VWS V15.00,2013-06-21 02:46:00,
2013-06-20 22:47:00,74.7,57.9,30.21,ENE,78,0.0,0.0,56,0.00,,---,0.24,VWS V15.00,2013-06-21 02:47:00,
2013-06-20 22:48:00,74.8,57.6,30.21,ENE,78,0.0,0.0,55,0.00,,---,0.24,VWS V15.00,2013-06-21 02:48:00,
2013-06-20 22:49:00,74.1,61.6,30.21,ENE,78,0.0,0.0,65,0.00,,---,0.24,VWS V14.01,2013-06-21 02:49:00,
2013-06-20 22:50:00,75.0,57.3,30.21,ENE,78,0.0,0.0,54,0.00,,---,0.24,VWS V15.00,2013-06-21 02:50:00,
2013-06-20 22:51:00,75.0,57.3,30.21,ENE,78,0.0,0.0,54,0.00,,---,0.24,VWS V15.00,2013-06-21 02:51:00,
2013-06-20 22:52:00,75.0,57.3,30.21,ENE,78,0.0,0.0,54,0.00,,---,0.24,VWS V15.00,2013-06-21 02:52:00,
2013-06-20 22:53:00,75.0,56.8,30.21,ENE,78,0.0,0.0,53,0.00,,---,0.24,VWS V15.00,2013-06-21 02:53:00,
2013-06-20 22:54:00,74.1,61.6,30.21,ENE,78,0.0,0.0,65,0.00,,---,0.24,VWS V14.01,2013-06-21 02:54:00,
2013-06-20 22:55:00,75.0,56.8,30.21,ENE,78,0.0,0.0,53,0.00,,---,0.24,VWS V15.00,2013-06-21 02:55:00,
2013-06-20 22:56:00,75.0,56.2,30.21,ENE,78,0.0,0.0,52,0.00,,---,0.24,VWS V15.00,2013-06-21 02:56:00,
2013-06-20 22:57:00,75.0,56.8,30.21,ENE,78,0.0,0.0,53,0.00,,---,0.24,VWS V15.00,2013-06-21 02:57:00,
2013-06-20 22:58:00,74.8,56.6,30.21,ENE,78,0.0,0.0,53,0.00,,---,0.24,VWS V15.00,2013-06-21 02:58:00,
2013-06-20 22:59:00,73.9,61.4,30.21,ENE,78,0.0,0.0,65,0.00,,---,0.24,VWS V14.01,2013-06-21 02:59:00,
2013-06-20 23:00:00,74.7,56.4,30.21,ENE,78,0.0,0.0,53,0.00,,---,0.24,VWS V15.00,2013-06-21 03:00:00,
2013-06-20 23:01:00,74.7,56.4,30.21,ENE,78,0.0,0.0,53,0.00,,---,0.24,VWS V15.00,2013-06-21 03:01:00,
2013-06-20 23:02:00,74.7,58.4,30.21,ENE,78,0.0,0.0,57,0.00,,---,0.24,VWS V15.00,2013-06-21 03:02:00,
2013-06-20 23:03:00,74.7,58.9,30.21,ENE,78,0.0,0.0,58,0.00,,---,0.24,VWS V15.00,2013-06-21 03:03:00,
2013-06-20 23:04:00,73.8,60.8,30.21,ENE,78,0.0,0.0,64,0.00,,---,0.24,VWS V14.01,2013-06-21 03:04:00,
2013-06-20 23:05:00,74.7,59.4,30.21,ENE,78,0.0,0.0,59,0.00,,---,0.24,VWS V15.00,2013-06-21 03:05:00,
2013-06-20 23:06:00,74.5,59.7,30.21,ENE,78,0.0,0.0,60,0.00,,---,0.24,VWS V15.00,2013-06-21 03:06:00,
2013-06-20 23:07:00,74.5,60.2,30.21,ENE,78,0.0,0.0,61,0.00,,---,0.24,VWS V15.00,2013-06-21 03:07:00,
2013-06-20 23:08:00,74.5,60.2,30.21,ENE,78,0.0,0.0,61,0.00,,---,0.24,VWS V15.00,2013-06-21 03:08:00,
2013-06-20 23:09:00,73.8,61.7,30.21,ENE,78,0.0,0.0,66,0.00,,---,0.24,VWS V14.01,2013-06-21 03:09:00,
2013-06-20 23:10:00,74.5,60.2,30.21,ENE,78,0.0,0.0,61,0.00,,---,0.24,VWS V15.00,2013-06-21 03:10:00,
2013-06-20 23:11:00,74.5,59.7,30.21,ENE,78,0.0,0.0,60,0.00,,---,0.24,VWS V15.00,2013-06-21 03:11:00,
2013-06-20 23:12:00,74.3,59.5,30.21,ENE,78,0.0,0.0,60,0.00,,---,0.24,VWS V15.00,2013-06-21 03:12:00,
2013-06-20 23:13:00,74.3,59.5,30.21,ENE,78,0.0,0.0,60,0.00,,---,0.24,VWS V15.00,2013-06-21 03:13:00,
2013-06-20 23:14:00,73.6,61.5,30.21,ENE,78,0.0,0.0,66,0.00,,---,0.24,VWS V14.01,2013-06-21 03:14:00,
2013-06-20 23:15:00,74.3,59.5,30.21,ENE,78,0.0,0.0,60,0.00,,---,0.24,VWS V15.00,2013-06-21 03:15:00,
2013-06-20 23:16:00,74.3,59.5,30.21,ENE,78,0.0,0.0,60,0.00,,---,0.24,VWS V15.00,2013-06-21 03:16:00,
2013-06-20 23:17:00,74.3,59.5,30.21,ENE,78,0.0,0.0,60,0.00,,---,0.24,VWS V15.00,2013-06-21 03:17:00,
2013-06-20 23:18:00,74.1,58.9,30.21,ENE,78,0.0,0.0,59,0.00,,---,0.24,VWS V15.00,2013-06-21 03:18:00,
2013-06-20 23:19:00,73.6,62.0,30.21,ENE,78,0.0,0.0,67,0.00,,---,0.24,VWS V14.01,2013-06-21 03:19:00,
2013-06-20 23:20:00,74.1,58.9,30.21,ENE,78,0.0,0.0,59,0.00,,---,0.24,VWS V15.00,2013-06-21 03:20:00,
2013-06-20 23:21:00,73.9,58.7,30.21,ENE,78,0.0,0.0,59,0.00,,---,0.24,VWS V15.00,2013-06-21 03:21:00,
2013-06-20 23:22:00,73.9,59.2,30.21,ENE,78,0.0,0.0,60,0.00,,---,0.24,VWS V15.00,2013-06-21 03:22:00,
2013-06-20 23:23:00,73.9,59.2,30.21,ENE,78,0.0,0.0,60,0.00,,---,0.24,VWS V15.00,2013-06-21 03:23:00,
2013-06-20 23:24:00,73.6,62.0,30.21,ENE,78,0.0,0.0,67,0.00,,---,0.24,VWS V14.01,2013-06-21 03:24:00,
2013-06-20 23:25:00,73.8,59.0,30.21,ENE,78,0.0,0.0,60,0.00,,---,0.24,VWS V15.00,2013-06-21 03:25:00,
2013-06-20 23:26:00,73.8,59.0,30.21,ENE,78,0.0,0.0,60,0.00,,---,0.24,VWS V15.00,2013-06-21 03:26:00,
2013-06-20 23:27:00,73.8,59.0,30.21,ENE,78,0.0,0.0,60,0.00,,---,0.24,VWS V15.00,2013-06-21 03:27:00,
2013-06-20 23:28:00,73.8,59.0,30.21,ENE,78,0.0,0.0,60,0.00,,---,0.24,VWS V15.00,2013-06-21 03:28:00,
2013-06-20 23:29:00,73.6,62.8,30.21,ENE,78,0.0,0.0,69,0.00,,---,0.24,VWS V14.01,2013-06-21 03:29:00,
2013-06-20 23:30:00,73.9,60.1,30.21,ENE,78,0.0,0.0,62,0.00,,---,0.24,VWS V15.00,2013-06-21 03:30:00,
2013-06-20 23:31:00,73.9,60.6,30.21,ENE,78,0.0,0.0,63,0.00,,---,0.24,VWS V15.00,2013-06-21 03:31:00,
2013-06-20 23:32:00,73.9,60.6,30.21,ENE,78,0.0,0.0,63,0.00,,---,0.24,VWS V15.00,2013-06-21 03:32:00,
2013-06-20 23:33:00,73.9,60.6,30.21,ENE,78,0.0,0.0,63,0.00,,---,0.24,VWS V15.00,2013-06-21 03:33:00,
2013-06-20 23:34:00,73.6,62.8,30.21,ENE,78,0.0,0.0,69,0.00,,---,0.24,VWS V14.01,2013-06-21 03:34:00,
2013-06-20 23:35:00,73.9,60.6,30.21,ENE,78,0.0,0.0,63,0.00,,---,0.24,VWS V15.00,2013-06-21 03:35:00,
2013-06-20 23:36:00,73.9,60.6,30.21,ENE,78,0.0,0.0,63,0.00,,---,0.24,VWS V15.00,2013-06-21 03:36:00,
2013-06-20 23:37:00,73.9,60.6,30.21,ENE,78,0.0,0.0,63,0.00,,---,0.24,VWS V15.00,2013-06-21 03:37:00,
2013-06-20 23:38:00,73.9,61.0,30.21,ENE,78,0.0,0.0,64,0.00,,---,0.24,VWS V15.00,2013-06-21 03:38:00,
2013-06-20 23:39:00,73.4,62.6,30.21,ENE,78,0.0,0.0,69,0.00,,---,0.24,VWS V14.01,2013-06-21 03:39:00,
2013-06-20 23:40:00,73.9,61.4,30.21,ENE,78,0.0,0.0,65,0.00,,---,0.24,VWS V15.00,2013-06-21 03:40:00,
2013-06-20 23:41:00,74.1,61.6,30.21,ENE,78,0.0,0.0,65,0.00,,---,0.24,VWS V15.00,2013-06-21 03:41:00,
2013-06-20 23:42:00,74.1,61.6,30.21,ENE,78,0.0,0.0,65,0.00,,---,0.24,VWS V15.00,2013-06-21 03:42:00,
2013-06-20 23:43:00,73.9,61.4,30.21,ENE,78,0.0,0.0,65,0.00,,---,0.24,VWS V15.00,2013-06-21 03:43:00,
2013-06-20 23:44:00,73.4,63.0,30.21,ENE,78,0.0,0.0,70,0.00,,---,0.24,VWS V14.01,2013-06-21 03:44:00,
2013-06-20 23:45:00,73.9,61.4,30.21,ENE,78,0.0,0.0,65,0.00,,---,0.24,VWS V15.00,2013-06-21 03:45:00,
2013-06-20 23:46:00,73.9,61.4,30.21,ENE,78,0.0,0.0,65,0.00,,---,0.24,VWS V15.00,2013-06-21 03:46:00,
2013-06-20 23:47:00,73.9,61.4,30.21,ENE,78,0.0,0.0,65,0.00,,---,0.24,VWS V15.00,2013-06-21 03:47:00,
2013-06-20 23:48:00,74.1,61.6,30.21,ENE,78,0.0,0.0,65,0.00,,---,0.24,VWS V15.00,2013-06-21 03:48:00,
2013-06-20 23:49:00,73.2,63.3,30.21,ENE,78,0.0,0.0,71,0.00,,---,0.24,VWS V14.01,2013-06-21 03:49:00,
2013-06-20 23:50:00,74.1,62.0,30.21,ENE,78,0.0,0.0,66,0.00,,---,0.24,VWS V15.00,2013-06-21 03:50:00,
2013-06-20 23:51:00,74.1,62.0,30.21,ENE,78,0.0,0.0,66,0.00,,---,0.24,VWS V15.00,2013-06-21 03:51:00,
2013-06-20 23:52:00,74.1,62.0,30.21,ENE,78,0.0,0.0,66,0.00,,---,0.24,VWS V15.00,2013-06-21 03:52:00,
2013-06-20 23:53:00,74.1,61.6,30.21,ENE,78,0.0,0.0,65,0.00,,---,0.24,VWS V15.00,2013-06-21 03:53:00,
2013-06-20 23:54:00,73.2,63.3,30.21,ENE,78,0.0,0.0,71,0.00,,---,0.24,VWS V14.01,2013-06-21 03:54:00,
2013-06-20 23:55:00,74.1,61.6,30.21,ENE,78,0.0,0.0,65,0.00,,---,0.24,VWS V15.00,2013-06-21 03:55:00,
2013-06-20 23:56:00,74.1,61.6,30.21,ENE,78,0.0,0.0,65,0.00,,---,0.24,VWS V15.00,2013-06-21 03:56:00,
2013-06-20 23:57:00,74.1,61.6,30.21,ENE,78,0.0,0.0,65,0.00,,---,0.24,VWS V15.00,2013-06-21 03:57:00,
2013-06-20 23:58:00,74.1,61.6,30.21,ENE,78,0.0,0.0,65,0.00,,---,0.24,VWS V15.00,2013-06-21 03:58:00,
2013-06-20 23:59:00,73.9,61.4,30.21,ENE,78,0.0,0.0,65,0.00,,---,0.24,VWS V15.00,2013-06-21 03:59:00,